<?xml version="1.0" encoding="UTF-8" standalone="no" ?>
<gpx xmlns="http://www.topografix.com/GPX/1/1" xmlns:xsi="http://www.w3.org/2001/XMLSchema-instance" xsi:schemaLocation="http://www.topografix.com/GPX/1/1 http://www.topografix.com/GPX/1/1/gpx.xsd" version="1.1" creator="VisuGPX - https://www.visugpx.com">
  <metadata>
    <name>Une variante vers la pointe du mesle</name>
    <desc><![CDATA[Ténébra reste devant tout le long, elle avance dès le départ à bonne allure !]]></desc>
  </metadata>
  <trk>
    <name><![CDATA[Untitled]]></name>
    <trkseg>
      <trkpt lat="48.70743" lon="1.75379">
        <ele>171.60000610352</ele>
        <time>2014-07-21T09:37:21.000Z</time>
      </trkpt>
      <trkpt lat="48.70748" lon="1.75375">
        <ele>171.80000305176</ele>
        <time>2014-07-21T09:37:26.000Z</time>
      </trkpt>
      <trkpt lat="48.70754" lon="1.75367">
        <ele>171.80000305176</ele>
        <time>2014-07-21T09:37:32.000Z</time>
      </trkpt>
      <trkpt lat="48.70757" lon="1.75355">
        <ele>171.80000305176</ele>
        <time>2014-07-21T09:37:38.000Z</time>
      </trkpt>
      <trkpt lat="48.70762" lon="1.75342">
        <ele>172</ele>
        <time>2014-07-21T09:37:45.000Z</time>
      </trkpt>
      <trkpt lat="48.7077" lon="1.75321">
        <ele>172</ele>
        <time>2014-07-21T09:37:55.000Z</time>
      </trkpt>
      <trkpt lat="48.70773" lon="1.75314">
        <ele>172.19999694824</ele>
        <time>2014-07-21T09:38:01.000Z</time>
      </trkpt>
      <trkpt lat="48.70776" lon="1.75303">
        <ele>172.39999389648</ele>
        <time>2014-07-21T09:38:39.000Z</time>
      </trkpt>
      <trkpt lat="48.70782" lon="1.7529">
        <ele>172.60000610352</ele>
        <time>2014-07-21T09:38:46.000Z</time>
      </trkpt>
      <trkpt lat="48.70785" lon="1.75278">
        <ele>172.80000305176</ele>
        <time>2014-07-21T09:38:53.000Z</time>
      </trkpt>
      <trkpt lat="48.70786" lon="1.75275">
        <ele>173</ele>
        <time>2014-07-21T09:38:57.000Z</time>
      </trkpt>
      <trkpt lat="48.70791" lon="1.75268">
        <ele>173.19999694824</ele>
        <time>2014-07-21T09:39:05.000Z</time>
      </trkpt>
      <trkpt lat="48.70794" lon="1.75258">
        <ele>173.19999694824</ele>
        <time>2014-07-21T09:39:09.000Z</time>
      </trkpt>
      <trkpt lat="48.70799" lon="1.75248">
        <ele>173.39999389648</ele>
        <time>2014-07-21T09:39:15.000Z</time>
      </trkpt>
      <trkpt lat="48.70803" lon="1.75242">
        <ele>173.39999389648</ele>
        <time>2014-07-21T09:39:20.000Z</time>
      </trkpt>
      <trkpt lat="48.70811" lon="1.75226">
        <ele>173.39999389648</ele>
        <time>2014-07-21T09:39:29.000Z</time>
      </trkpt>
      <trkpt lat="48.70813" lon="1.75219">
        <ele>173.60000610352</ele>
        <time>2014-07-21T09:39:33.000Z</time>
      </trkpt>
      <trkpt lat="48.70812" lon="1.7521">
        <ele>173.39999389648</ele>
        <time>2014-07-21T09:39:38.000Z</time>
      </trkpt>
      <trkpt lat="48.70813" lon="1.75206">
        <ele>173.60000610352</ele>
        <time>2014-07-21T09:39:40.000Z</time>
      </trkpt>
      <trkpt lat="48.70821" lon="1.75191">
        <ele>173.39999389648</ele>
        <time>2014-07-21T09:39:48.000Z</time>
      </trkpt>
      <trkpt lat="48.70823" lon="1.75189">
        <ele>173.39999389648</ele>
        <time>2014-07-21T09:39:52.000Z</time>
      </trkpt>
      <trkpt lat="48.70824" lon="1.75188">
        <ele>173.39999389648</ele>
        <time>2014-07-21T09:39:56.000Z</time>
      </trkpt>
      <trkpt lat="48.70826" lon="1.75185">
        <ele>173.39999389648</ele>
        <time>2014-07-21T09:39:59.000Z</time>
      </trkpt>
      <trkpt lat="48.70832" lon="1.7517">
        <ele>173.19999694824</ele>
        <time>2014-07-21T09:40:06.000Z</time>
      </trkpt>
      <trkpt lat="48.70835" lon="1.75165">
        <ele>173.19999694824</ele>
        <time>2014-07-21T09:40:09.000Z</time>
      </trkpt>
      <trkpt lat="48.70838" lon="1.75156">
        <ele>173</ele>
        <time>2014-07-21T09:40:14.000Z</time>
      </trkpt>
      <trkpt lat="48.70839" lon="1.75154">
        <ele>173</ele>
        <time>2014-07-21T09:40:15.000Z</time>
      </trkpt>
      <trkpt lat="48.70841" lon="1.7515">
        <ele>173</ele>
        <time>2014-07-21T09:40:17.000Z</time>
      </trkpt>
      <trkpt lat="48.70843" lon="1.75147">
        <ele>173.19999694824</ele>
        <time>2014-07-21T09:40:19.000Z</time>
      </trkpt>
      <trkpt lat="48.70844" lon="1.75141">
        <ele>173.19999694824</ele>
        <time>2014-07-21T09:40:22.000Z</time>
      </trkpt>
      <trkpt lat="48.70851" lon="1.75129">
        <ele>173.39999389648</ele>
        <time>2014-07-21T09:40:29.000Z</time>
      </trkpt>
      <trkpt lat="48.70857" lon="1.75118">
        <ele>173.60000610352</ele>
        <time>2014-07-21T09:40:36.000Z</time>
      </trkpt>
      <trkpt lat="48.70861" lon="1.75107">
        <ele>173.80000305176</ele>
        <time>2014-07-21T09:40:42.000Z</time>
      </trkpt>
      <trkpt lat="48.70861" lon="1.75105">
        <ele>173.80000305176</ele>
        <time>2014-07-21T09:40:44.000Z</time>
      </trkpt>
      <trkpt lat="48.70864" lon="1.75095">
        <ele>174</ele>
        <time>2014-07-21T09:40:49.000Z</time>
      </trkpt>
      <trkpt lat="48.70867" lon="1.75088">
        <ele>174.19999694824</ele>
        <time>2014-07-21T09:40:52.000Z</time>
      </trkpt>
      <trkpt lat="48.70876" lon="1.75068">
        <ele>174</ele>
        <time>2014-07-21T09:41:02.000Z</time>
      </trkpt>
      <trkpt lat="48.70878" lon="1.75065">
        <ele>174</ele>
        <time>2014-07-21T09:41:04.000Z</time>
      </trkpt>
      <trkpt lat="48.70878" lon="1.75063">
        <ele>174</ele>
        <time>2014-07-21T09:41:09.000Z</time>
      </trkpt>
      <trkpt lat="48.70882" lon="1.75055">
        <ele>174.19999694824</ele>
        <time>2014-07-21T09:41:14.000Z</time>
      </trkpt>
      <trkpt lat="48.7089" lon="1.75042">
        <ele>174.39999389648</ele>
        <time>2014-07-21T09:41:22.000Z</time>
      </trkpt>
      <trkpt lat="48.70898" lon="1.75028">
        <ele>174.60000610352</ele>
        <time>2014-07-21T09:41:31.000Z</time>
      </trkpt>
      <trkpt lat="48.70905" lon="1.75014">
        <ele>174.60000610352</ele>
        <time>2014-07-21T09:41:39.000Z</time>
      </trkpt>
      <trkpt lat="48.70913" lon="1.74999">
        <ele>174.80000305176</ele>
        <time>2014-07-21T09:41:48.000Z</time>
      </trkpt>
      <trkpt lat="48.70918" lon="1.74988">
        <ele>175</ele>
        <time>2014-07-21T09:41:54.000Z</time>
      </trkpt>
      <trkpt lat="48.70925" lon="1.74974">
        <ele>174.80000305176</ele>
        <time>2014-07-21T09:42:02.000Z</time>
      </trkpt>
      <trkpt lat="48.70932" lon="1.74959">
        <ele>175</ele>
        <time>2014-07-21T09:42:10.000Z</time>
      </trkpt>
      <trkpt lat="48.70934" lon="1.74956">
        <ele>175</ele>
        <time>2014-07-21T09:42:12.000Z</time>
      </trkpt>
      <trkpt lat="48.70941" lon="1.74943">
        <ele>175.19999694824</ele>
        <time>2014-07-21T09:42:20.000Z</time>
      </trkpt>
      <trkpt lat="48.70943" lon="1.7494">
        <ele>175.19999694824</ele>
        <time>2014-07-21T09:42:22.000Z</time>
      </trkpt>
      <trkpt lat="48.70946" lon="1.74929">
        <ele>175.39999389648</ele>
        <time>2014-07-21T09:42:28.000Z</time>
      </trkpt>
      <trkpt lat="48.70955" lon="1.74917">
        <ele>175.80000305176</ele>
        <time>2014-07-21T09:42:36.000Z</time>
      </trkpt>
      <trkpt lat="48.70963" lon="1.74907">
        <ele>176.19999694824</ele>
        <time>2014-07-21T09:42:43.000Z</time>
      </trkpt>
      <trkpt lat="48.70965" lon="1.74904">
        <ele>176.39999389648</ele>
        <time>2014-07-21T09:42:45.000Z</time>
      </trkpt>
      <trkpt lat="48.70973" lon="1.74897">
        <ele>177</ele>
        <time>2014-07-21T09:42:51.000Z</time>
      </trkpt>
      <trkpt lat="48.70981" lon="1.74886">
        <ele>177.80000305176</ele>
        <time>2014-07-21T09:42:59.000Z</time>
      </trkpt>
      <trkpt lat="48.70985" lon="1.74874">
        <ele>178.39999389648</ele>
        <time>2014-07-21T09:43:06.000Z</time>
      </trkpt>
      <trkpt lat="48.70995" lon="1.74863">
        <ele>178.60000610352</ele>
        <time>2014-07-21T09:43:15.000Z</time>
      </trkpt>
      <trkpt lat="48.71003" lon="1.74852">
        <ele>178.80000305176</ele>
        <time>2014-07-21T09:43:22.000Z</time>
      </trkpt>
      <trkpt lat="48.71007" lon="1.74846">
        <ele>178.80000305176</ele>
        <time>2014-07-21T09:43:26.000Z</time>
      </trkpt>
      <trkpt lat="48.71009" lon="1.74835">
        <ele>178.80000305176</ele>
        <time>2014-07-21T09:43:31.000Z</time>
      </trkpt>
      <trkpt lat="48.71007" lon="1.7483">
        <ele>178.80000305176</ele>
        <time>2014-07-21T09:43:36.000Z</time>
      </trkpt>
      <trkpt lat="48.71003" lon="1.74823">
        <ele>178.80000305176</ele>
        <time>2014-07-21T09:43:41.000Z</time>
      </trkpt>
      <trkpt lat="48.71001" lon="1.74825">
        <ele>178.80000305176</ele>
        <time>2014-07-21T09:43:47.000Z</time>
      </trkpt>
      <trkpt lat="48.71001" lon="1.74825">
        <ele>178.80000305176</ele>
        <time>2014-07-21T09:43:48.000Z</time>
      </trkpt>
      <trkpt lat="48.70999" lon="1.74816">
        <ele>178.80000305176</ele>
        <time>2014-07-21T09:43:56.000Z</time>
      </trkpt>
      <trkpt lat="48.70998" lon="1.74812">
        <ele>178.80000305176</ele>
        <time>2014-07-21T09:43:58.000Z</time>
      </trkpt>
      <trkpt lat="48.70993" lon="1.74799">
        <ele>178.60000610352</ele>
        <time>2014-07-21T09:44:05.000Z</time>
      </trkpt>
      <trkpt lat="48.7099" lon="1.74796">
        <ele>178.60000610352</ele>
        <time>2014-07-21T09:44:07.000Z</time>
      </trkpt>
      <trkpt lat="48.70984" lon="1.74787">
        <ele>178.60000610352</ele>
        <time>2014-07-21T09:44:13.000Z</time>
      </trkpt>
      <trkpt lat="48.70977" lon="1.74776">
        <ele>178.39999389648</ele>
        <time>2014-07-21T09:44:20.000Z</time>
      </trkpt>
      <trkpt lat="48.7097" lon="1.7477">
        <ele>178.39999389648</ele>
        <time>2014-07-21T09:44:26.000Z</time>
      </trkpt>
      <trkpt lat="48.70961" lon="1.74757">
        <ele>178.19999694824</ele>
        <time>2014-07-21T09:44:34.000Z</time>
      </trkpt>
      <trkpt lat="48.70952" lon="1.74753">
        <ele>178.19999694824</ele>
        <time>2014-07-21T09:44:40.000Z</time>
      </trkpt>
      <trkpt lat="48.70944" lon="1.74741">
        <ele>178</ele>
        <time>2014-07-21T09:44:48.000Z</time>
      </trkpt>
      <trkpt lat="48.70935" lon="1.74731">
        <ele>177.80000305176</ele>
        <time>2014-07-21T09:44:55.000Z</time>
      </trkpt>
      <trkpt lat="48.70927" lon="1.74721">
        <ele>177.60000610352</ele>
        <time>2014-07-21T09:45:02.000Z</time>
      </trkpt>
      <trkpt lat="48.70915" lon="1.74709">
        <ele>177.39999389648</ele>
        <time>2014-07-21T09:45:10.000Z</time>
      </trkpt>
      <trkpt lat="48.70906" lon="1.747">
        <ele>177.19999694824</ele>
        <time>2014-07-21T09:45:17.000Z</time>
      </trkpt>
      <trkpt lat="48.70902" lon="1.74692">
        <ele>177</ele>
        <time>2014-07-21T09:45:25.000Z</time>
      </trkpt>
      <trkpt lat="48.70898" lon="1.74682">
        <ele>176.60000610352</ele>
        <time>2014-07-21T09:45:33.000Z</time>
      </trkpt>
      <trkpt lat="48.70888" lon="1.7467">
        <ele>176.39999389648</ele>
        <time>2014-07-21T09:45:42.000Z</time>
      </trkpt>
      <trkpt lat="48.70879" lon="1.74656">
        <ele>176</ele>
        <time>2014-07-21T09:45:51.000Z</time>
      </trkpt>
      <trkpt lat="48.70873" lon="1.74649">
        <ele>176</ele>
        <time>2014-07-21T09:45:57.000Z</time>
      </trkpt>
      <trkpt lat="48.70871" lon="1.74647">
        <ele>176</ele>
        <time>2014-07-21T09:45:59.000Z</time>
      </trkpt>
      <trkpt lat="48.70866" lon="1.74639">
        <ele>176</ele>
        <time>2014-07-21T09:46:04.000Z</time>
      </trkpt>
      <trkpt lat="48.70861" lon="1.74633">
        <ele>176</ele>
        <time>2014-07-21T09:46:08.000Z</time>
      </trkpt>
      <trkpt lat="48.70848" lon="1.74617">
        <ele>176</ele>
        <time>2014-07-21T09:46:20.000Z</time>
      </trkpt>
      <trkpt lat="48.70838" lon="1.74605">
        <ele>176.19999694824</ele>
        <time>2014-07-21T09:46:29.000Z</time>
      </trkpt>
      <trkpt lat="48.70829" lon="1.74592">
        <ele>176.19999694824</ele>
        <time>2014-07-21T09:46:38.000Z</time>
      </trkpt>
      <trkpt lat="48.70817" lon="1.74578">
        <ele>176.39999389648</ele>
        <time>2014-07-21T09:46:49.000Z</time>
      </trkpt>
      <trkpt lat="48.70806" lon="1.74562">
        <ele>176.60000610352</ele>
        <time>2014-07-21T09:47:00.000Z</time>
      </trkpt>
      <trkpt lat="48.70795" lon="1.74546">
        <ele>176.80000305176</ele>
        <time>2014-07-21T09:47:11.000Z</time>
      </trkpt>
      <trkpt lat="48.70786" lon="1.74535">
        <ele>176.80000305176</ele>
        <time>2014-07-21T09:47:19.000Z</time>
      </trkpt>
      <trkpt lat="48.70777" lon="1.74523">
        <ele>177</ele>
        <time>2014-07-21T09:47:28.000Z</time>
      </trkpt>
      <trkpt lat="48.7077" lon="1.74515">
        <ele>177</ele>
        <time>2014-07-21T09:47:34.000Z</time>
      </trkpt>
      <trkpt lat="48.70765" lon="1.74511">
        <ele>177.19999694824</ele>
        <time>2014-07-21T09:47:39.000Z</time>
      </trkpt>
      <trkpt lat="48.70758" lon="1.74502">
        <ele>177.39999389648</ele>
        <time>2014-07-21T09:47:46.000Z</time>
      </trkpt>
      <trkpt lat="48.70753" lon="1.74498">
        <ele>177.60000610352</ele>
        <time>2014-07-21T09:47:50.000Z</time>
      </trkpt>
      <trkpt lat="48.70748" lon="1.74491">
        <ele>177.80000305176</ele>
        <time>2014-07-21T09:47:56.000Z</time>
      </trkpt>
      <trkpt lat="48.70746" lon="1.74488">
        <ele>177.80000305176</ele>
        <time>2014-07-21T09:47:58.000Z</time>
      </trkpt>
      <trkpt lat="48.70738" lon="1.74481">
        <ele>178.19999694824</ele>
        <time>2014-07-21T09:48:06.000Z</time>
      </trkpt>
      <trkpt lat="48.70733" lon="1.74473">
        <ele>178.60000610352</ele>
        <time>2014-07-21T09:48:11.000Z</time>
      </trkpt>
      <trkpt lat="48.70732" lon="1.7447">
        <ele>178.60000610352</ele>
        <time>2014-07-21T09:48:15.000Z</time>
      </trkpt>
      <trkpt lat="48.70735" lon="1.74457">
        <ele>178.60000610352</ele>
        <time>2014-07-21T09:48:54.000Z</time>
      </trkpt>
      <trkpt lat="48.70742" lon="1.74451">
        <ele>178.39999389648</ele>
        <time>2014-07-21T09:49:00.000Z</time>
      </trkpt>
      <trkpt lat="48.70743" lon="1.7445">
        <ele>178.39999389648</ele>
        <time>2014-07-21T09:49:01.000Z</time>
      </trkpt>
      <trkpt lat="48.70751" lon="1.74443">
        <ele>178.19999694824</ele>
        <time>2014-07-21T09:49:09.000Z</time>
      </trkpt>
      <trkpt lat="48.70757" lon="1.7444">
        <ele>178</ele>
        <time>2014-07-21T09:49:14.000Z</time>
      </trkpt>
      <trkpt lat="48.70764" lon="1.74436">
        <ele>177.80000305176</ele>
        <time>2014-07-21T09:49:20.000Z</time>
      </trkpt>
      <trkpt lat="48.70774" lon="1.7443">
        <ele>177.60000610352</ele>
        <time>2014-07-21T09:49:28.000Z</time>
      </trkpt>
      <trkpt lat="48.70782" lon="1.74424">
        <ele>177.60000610352</ele>
        <time>2014-07-21T09:49:35.000Z</time>
      </trkpt>
      <trkpt lat="48.70791" lon="1.74418">
        <ele>177.60000610352</ele>
        <time>2014-07-21T09:49:43.000Z</time>
      </trkpt>
      <trkpt lat="48.70793" lon="1.74417">
        <ele>177.39999389648</ele>
        <time>2014-07-21T09:49:45.000Z</time>
      </trkpt>
      <trkpt lat="48.70801" lon="1.74413">
        <ele>177.19999694824</ele>
        <time>2014-07-21T09:49:52.000Z</time>
      </trkpt>
      <trkpt lat="48.70801" lon="1.74413">
        <ele>177.19999694824</ele>
        <time>2014-07-21T09:49:53.000Z</time>
      </trkpt>
      <trkpt lat="48.7081" lon="1.74407">
        <ele>177</ele>
        <time>2014-07-21T09:50:00.000Z</time>
      </trkpt>
      <trkpt lat="48.70816" lon="1.74401">
        <ele>177</ele>
        <time>2014-07-21T09:50:06.000Z</time>
      </trkpt>
      <trkpt lat="48.70822" lon="1.74394">
        <ele>176.80000305176</ele>
        <time>2014-07-21T09:50:13.000Z</time>
      </trkpt>
      <trkpt lat="48.70826" lon="1.74391">
        <ele>176.80000305176</ele>
        <time>2014-07-21T09:50:17.000Z</time>
      </trkpt>
      <trkpt lat="48.70828" lon="1.74389">
        <ele>176.80000305176</ele>
        <time>2014-07-21T09:50:22.000Z</time>
      </trkpt>
      <trkpt lat="48.70861" lon="1.7435">
        <ele>176.60000610352</ele>
        <time>2014-07-21T09:56:27.000Z</time>
      </trkpt>
      <trkpt lat="48.70862" lon="1.7435">
        <ele>176.60000610352</ele>
        <time>2014-07-21T09:56:28.000Z</time>
      </trkpt>
      <trkpt lat="48.70864" lon="1.74351">
        <ele>176.60000610352</ele>
        <time>2014-07-21T09:56:33.000Z</time>
      </trkpt>
      <trkpt lat="48.70865" lon="1.74351">
        <ele>176.39999389648</ele>
        <time>2014-07-21T09:56:38.000Z</time>
      </trkpt>
      <trkpt lat="48.70869" lon="1.74323">
        <ele>176.80000305176</ele>
        <time>2014-07-21T09:59:30.000Z</time>
      </trkpt>
      <trkpt lat="48.70875" lon="1.74315">
        <ele>177</ele>
        <time>2014-07-21T09:59:35.000Z</time>
      </trkpt>
      <trkpt lat="48.70876" lon="1.74313">
        <ele>177</ele>
        <time>2014-07-21T09:59:36.000Z</time>
      </trkpt>
      <trkpt lat="48.70881" lon="1.74307">
        <ele>177.19999694824</ele>
        <time>2014-07-21T09:59:42.000Z</time>
      </trkpt>
      <trkpt lat="48.70886" lon="1.74297">
        <ele>177.39999389648</ele>
        <time>2014-07-21T09:59:49.000Z</time>
      </trkpt>
      <trkpt lat="48.70887" lon="1.74294">
        <ele>177.60000610352</ele>
        <time>2014-07-21T09:59:52.000Z</time>
      </trkpt>
      <trkpt lat="48.70889" lon="1.74287">
        <ele>177.80000305176</ele>
        <time>2014-07-21T09:59:56.000Z</time>
      </trkpt>
      <trkpt lat="48.70894" lon="1.74277">
        <ele>178</ele>
        <time>2014-07-21T10:00:01.000Z</time>
      </trkpt>
      <trkpt lat="48.70896" lon="1.74274">
        <ele>178.39999389648</ele>
        <time>2014-07-21T10:00:03.000Z</time>
      </trkpt>
      <trkpt lat="48.70899" lon="1.74268">
        <ele>178.80000305176</ele>
        <time>2014-07-21T10:00:07.000Z</time>
      </trkpt>
      <trkpt lat="48.709" lon="1.74263">
        <ele>179</ele>
        <time>2014-07-21T10:00:10.000Z</time>
      </trkpt>
      <trkpt lat="48.70905" lon="1.74251">
        <ele>179.80000305176</ele>
        <time>2014-07-21T10:00:16.000Z</time>
      </trkpt>
      <trkpt lat="48.70909" lon="1.74247">
        <ele>180</ele>
        <time>2014-07-21T10:00:20.000Z</time>
      </trkpt>
      <trkpt lat="48.7091" lon="1.74239">
        <ele>180.60000610352</ele>
        <time>2014-07-21T10:00:26.000Z</time>
      </trkpt>
      <trkpt lat="48.70911" lon="1.74238">
        <ele>180.60000610352</ele>
        <time>2014-07-21T10:00:30.000Z</time>
      </trkpt>
      <trkpt lat="48.7091" lon="1.7423">
        <ele>181</ele>
        <time>2014-07-21T10:01:40.000Z</time>
      </trkpt>
      <trkpt lat="48.70911" lon="1.7424">
        <ele>180.60000610352</ele>
        <time>2014-07-21T10:01:46.000Z</time>
      </trkpt>
      <trkpt lat="48.70913" lon="1.74235">
        <ele>180.80000305176</ele>
        <time>2014-07-21T10:01:51.000Z</time>
      </trkpt>
      <trkpt lat="48.70914" lon="1.74231">
        <ele>181</ele>
        <time>2014-07-21T10:01:53.000Z</time>
      </trkpt>
      <trkpt lat="48.70917" lon="1.74222">
        <ele>181.39999389648</ele>
        <time>2014-07-21T10:01:58.000Z</time>
      </trkpt>
      <trkpt lat="48.70918" lon="1.74218">
        <ele>181.39999389648</ele>
        <time>2014-07-21T10:02:00.000Z</time>
      </trkpt>
      <trkpt lat="48.70923" lon="1.74205">
        <ele>182</ele>
        <time>2014-07-21T10:02:07.000Z</time>
      </trkpt>
      <trkpt lat="48.70924" lon="1.74194">
        <ele>182.39999389648</ele>
        <time>2014-07-21T10:02:13.000Z</time>
      </trkpt>
      <trkpt lat="48.70925" lon="1.74182">
        <ele>182.80000305176</ele>
        <time>2014-07-21T10:02:20.000Z</time>
      </trkpt>
      <trkpt lat="48.70928" lon="1.7417">
        <ele>183.39999389648</ele>
        <time>2014-07-21T10:02:26.000Z</time>
      </trkpt>
      <trkpt lat="48.7093" lon="1.74158">
        <ele>183.80000305176</ele>
        <time>2014-07-21T10:02:32.000Z</time>
      </trkpt>
      <trkpt lat="48.70932" lon="1.74147">
        <ele>184</ele>
        <time>2014-07-21T10:02:38.000Z</time>
      </trkpt>
      <trkpt lat="48.70935" lon="1.74132">
        <ele>183.80000305176</ele>
        <time>2014-07-21T10:02:46.000Z</time>
      </trkpt>
      <trkpt lat="48.70935" lon="1.7413">
        <ele>183.80000305176</ele>
        <time>2014-07-21T10:02:47.000Z</time>
      </trkpt>
      <trkpt lat="48.70938" lon="1.74122">
        <ele>183.60000610352</ele>
        <time>2014-07-21T10:02:52.000Z</time>
      </trkpt>
      <trkpt lat="48.70939" lon="1.74115">
        <ele>183.39999389648</ele>
        <time>2014-07-21T10:02:56.000Z</time>
      </trkpt>
      <trkpt lat="48.70941" lon="1.74105">
        <ele>183.19999694824</ele>
        <time>2014-07-21T10:03:01.000Z</time>
      </trkpt>
      <trkpt lat="48.70944" lon="1.74091">
        <ele>183</ele>
        <time>2014-07-21T10:03:08.000Z</time>
      </trkpt>
      <trkpt lat="48.70944" lon="1.74084">
        <ele>182.80000305176</ele>
        <time>2014-07-21T10:03:14.000Z</time>
      </trkpt>
      <trkpt lat="48.70943" lon="1.74084">
        <ele>182.80000305176</ele>
        <time>2014-07-21T10:03:15.000Z</time>
      </trkpt>
      <trkpt lat="48.70943" lon="1.74075">
        <ele>182.80000305176</ele>
        <time>2014-07-21T10:03:25.000Z</time>
      </trkpt>
      <trkpt lat="48.70948" lon="1.7406">
        <ele>182.80000305176</ele>
        <time>2014-07-21T10:03:33.000Z</time>
      </trkpt>
      <trkpt lat="48.70951" lon="1.74049">
        <ele>183</ele>
        <time>2014-07-21T10:03:39.000Z</time>
      </trkpt>
      <trkpt lat="48.70953" lon="1.7404">
        <ele>183</ele>
        <time>2014-07-21T10:03:45.000Z</time>
      </trkpt>
      <trkpt lat="48.70953" lon="1.74038">
        <ele>183</ele>
        <time>2014-07-21T10:03:46.000Z</time>
      </trkpt>
      <trkpt lat="48.70956" lon="1.7403">
        <ele>183</ele>
        <time>2014-07-21T10:03:51.000Z</time>
      </trkpt>
      <trkpt lat="48.70958" lon="1.74021">
        <ele>183</ele>
        <time>2014-07-21T10:03:56.000Z</time>
      </trkpt>
      <trkpt lat="48.7096" lon="1.74012">
        <ele>183.19999694824</ele>
        <time>2014-07-21T10:04:01.000Z</time>
      </trkpt>
      <trkpt lat="48.70961" lon="1.74005">
        <ele>183.19999694824</ele>
        <time>2014-07-21T10:04:05.000Z</time>
      </trkpt>
      <trkpt lat="48.70962" lon="1.74001">
        <ele>183.19999694824</ele>
        <time>2014-07-21T10:04:08.000Z</time>
      </trkpt>
      <trkpt lat="48.70965" lon="1.73986">
        <ele>183.39999389648</ele>
        <time>2014-07-21T10:04:17.000Z</time>
      </trkpt>
      <trkpt lat="48.70966" lon="1.73976">
        <ele>183.19999694824</ele>
        <time>2014-07-21T10:04:23.000Z</time>
      </trkpt>
      <trkpt lat="48.70966" lon="1.73975">
        <ele>183.19999694824</ele>
        <time>2014-07-21T10:04:24.000Z</time>
      </trkpt>
      <trkpt lat="48.70969" lon="1.73958">
        <ele>182.80000305176</ele>
        <time>2014-07-21T10:04:33.000Z</time>
      </trkpt>
      <trkpt lat="48.7097" lon="1.73956">
        <ele>182.80000305176</ele>
        <time>2014-07-21T10:04:34.000Z</time>
      </trkpt>
      <trkpt lat="48.70972" lon="1.73952">
        <ele>182.80000305176</ele>
        <time>2014-07-21T10:04:37.000Z</time>
      </trkpt>
      <trkpt lat="48.70973" lon="1.7394">
        <ele>182.60000610352</ele>
        <time>2014-07-21T10:04:44.000Z</time>
      </trkpt>
      <trkpt lat="48.70977" lon="1.73927">
        <ele>183.19999694824</ele>
        <time>2014-07-21T10:04:51.000Z</time>
      </trkpt>
      <trkpt lat="48.70978" lon="1.73913">
        <ele>183.60000610352</ele>
        <time>2014-07-21T10:04:58.000Z</time>
      </trkpt>
      <trkpt lat="48.70982" lon="1.73906">
        <ele>184</ele>
        <time>2014-07-21T10:05:03.000Z</time>
      </trkpt>
      <trkpt lat="48.70983" lon="1.73898">
        <ele>184</ele>
        <time>2014-07-21T10:05:07.000Z</time>
      </trkpt>
      <trkpt lat="48.70985" lon="1.73894">
        <ele>183.80000305176</ele>
        <time>2014-07-21T10:05:10.000Z</time>
      </trkpt>
      <trkpt lat="48.70987" lon="1.73881">
        <ele>183.39999389648</ele>
        <time>2014-07-21T10:05:17.000Z</time>
      </trkpt>
      <trkpt lat="48.7099" lon="1.73873">
        <ele>183.19999694824</ele>
        <time>2014-07-21T10:05:21.000Z</time>
      </trkpt>
      <trkpt lat="48.70993" lon="1.73864">
        <ele>183</ele>
        <time>2014-07-21T10:05:27.000Z</time>
      </trkpt>
      <trkpt lat="48.70997" lon="1.73853">
        <ele>183</ele>
        <time>2014-07-21T10:05:33.000Z</time>
      </trkpt>
      <trkpt lat="48.71" lon="1.73843">
        <ele>182.80000305176</ele>
        <time>2014-07-21T10:05:39.000Z</time>
      </trkpt>
      <trkpt lat="48.71" lon="1.73838">
        <ele>182.60000610352</ele>
        <time>2014-07-21T10:05:41.000Z</time>
      </trkpt>
      <trkpt lat="48.71002" lon="1.73828">
        <ele>182.60000610352</ele>
        <time>2014-07-21T10:05:46.000Z</time>
      </trkpt>
      <trkpt lat="48.71003" lon="1.73826">
        <ele>182.60000610352</ele>
        <time>2014-07-21T10:05:47.000Z</time>
      </trkpt>
      <trkpt lat="48.71007" lon="1.7381">
        <ele>182.19999694824</ele>
        <time>2014-07-21T10:05:55.000Z</time>
      </trkpt>
      <trkpt lat="48.71011" lon="1.73802">
        <ele>182.19999694824</ele>
        <time>2014-07-21T10:06:00.000Z</time>
      </trkpt>
      <trkpt lat="48.71015" lon="1.73796">
        <ele>182.19999694824</ele>
        <time>2014-07-21T10:06:06.000Z</time>
      </trkpt>
      <trkpt lat="48.71021" lon="1.73789">
        <ele>182.19999694824</ele>
        <time>2014-07-21T10:06:12.000Z</time>
      </trkpt>
      <trkpt lat="48.71023" lon="1.73786">
        <ele>182.19999694824</ele>
        <time>2014-07-21T10:06:15.000Z</time>
      </trkpt>
      <trkpt lat="48.71026" lon="1.73781">
        <ele>182</ele>
        <time>2014-07-21T10:06:19.000Z</time>
      </trkpt>
      <trkpt lat="48.71033" lon="1.73771">
        <ele>181.60000610352</ele>
        <time>2014-07-21T10:06:26.000Z</time>
      </trkpt>
      <trkpt lat="48.71036" lon="1.73767">
        <ele>181.60000610352</ele>
        <time>2014-07-21T10:06:29.000Z</time>
      </trkpt>
      <trkpt lat="48.71038" lon="1.73765">
        <ele>181.39999389648</ele>
        <time>2014-07-21T10:06:31.000Z</time>
      </trkpt>
      <trkpt lat="48.71044" lon="1.73758">
        <ele>181.39999389648</ele>
        <time>2014-07-21T10:06:38.000Z</time>
      </trkpt>
      <trkpt lat="48.71047" lon="1.73756">
        <ele>181.39999389648</ele>
        <time>2014-07-21T10:06:42.000Z</time>
      </trkpt>
      <trkpt lat="48.71053" lon="1.73749">
        <ele>181.60000610352</ele>
        <time>2014-07-21T10:06:48.000Z</time>
      </trkpt>
      <trkpt lat="48.71057" lon="1.73748">
        <ele>181.80000305176</ele>
        <time>2014-07-21T10:06:51.000Z</time>
      </trkpt>
      <trkpt lat="48.71062" lon="1.73745">
        <ele>181.80000305176</ele>
        <time>2014-07-21T10:06:55.000Z</time>
      </trkpt>
      <trkpt lat="48.71068" lon="1.73737">
        <ele>182.19999694824</ele>
        <time>2014-07-21T10:07:02.000Z</time>
      </trkpt>
      <trkpt lat="48.71079" lon="1.73728">
        <ele>182</ele>
        <time>2014-07-21T10:07:10.000Z</time>
      </trkpt>
      <trkpt lat="48.71085" lon="1.73721">
        <ele>182</ele>
        <time>2014-07-21T10:07:16.000Z</time>
      </trkpt>
      <trkpt lat="48.7109" lon="1.73713">
        <ele>181.60000610352</ele>
        <time>2014-07-21T10:07:22.000Z</time>
      </trkpt>
      <trkpt lat="48.71096" lon="1.73707">
        <ele>181.39999389648</ele>
        <time>2014-07-21T10:07:28.000Z</time>
      </trkpt>
      <trkpt lat="48.71101" lon="1.73701">
        <ele>181.19999694824</ele>
        <time>2014-07-21T10:07:34.000Z</time>
      </trkpt>
      <trkpt lat="48.71105" lon="1.73698">
        <ele>181.19999694824</ele>
        <time>2014-07-21T10:07:38.000Z</time>
      </trkpt>
      <trkpt lat="48.71111" lon="1.73691">
        <ele>180.80000305176</ele>
        <time>2014-07-21T10:07:44.000Z</time>
      </trkpt>
      <trkpt lat="48.71113" lon="1.73688">
        <ele>180.80000305176</ele>
        <time>2014-07-21T10:07:46.000Z</time>
      </trkpt>
      <trkpt lat="48.71121" lon="1.73681">
        <ele>180.60000610352</ele>
        <time>2014-07-21T10:07:52.000Z</time>
      </trkpt>
      <trkpt lat="48.71125" lon="1.73677">
        <ele>180.39999389648</ele>
        <time>2014-07-21T10:07:55.000Z</time>
      </trkpt>
      <trkpt lat="48.71126" lon="1.73676">
        <ele>180.39999389648</ele>
        <time>2014-07-21T10:07:57.000Z</time>
      </trkpt>
      <trkpt lat="48.7113" lon="1.73669">
        <ele>180.39999389648</ele>
        <time>2014-07-21T10:08:02.000Z</time>
      </trkpt>
      <trkpt lat="48.71133" lon="1.73667">
        <ele>180.60000610352</ele>
        <time>2014-07-21T10:08:04.000Z</time>
      </trkpt>
      <trkpt lat="48.71143" lon="1.73657">
        <ele>181</ele>
        <time>2014-07-21T10:08:13.000Z</time>
      </trkpt>
      <trkpt lat="48.71144" lon="1.73656">
        <ele>181</ele>
        <time>2014-07-21T10:08:14.000Z</time>
      </trkpt>
      <trkpt lat="48.71152" lon="1.73647">
        <ele>181.19999694824</ele>
        <time>2014-07-21T10:08:21.000Z</time>
      </trkpt>
      <trkpt lat="48.7116" lon="1.7364">
        <ele>181.60000610352</ele>
        <time>2014-07-21T10:08:28.000Z</time>
      </trkpt>
      <trkpt lat="48.71167" lon="1.73634">
        <ele>181.80000305176</ele>
        <time>2014-07-21T10:08:34.000Z</time>
      </trkpt>
      <trkpt lat="48.71174" lon="1.7363">
        <ele>181.80000305176</ele>
        <time>2014-07-21T10:08:39.000Z</time>
      </trkpt>
      <trkpt lat="48.71181" lon="1.73622">
        <ele>181.80000305176</ele>
        <time>2014-07-21T10:08:46.000Z</time>
      </trkpt>
      <trkpt lat="48.71189" lon="1.73616">
        <ele>181.60000610352</ele>
        <time>2014-07-21T10:08:52.000Z</time>
      </trkpt>
      <trkpt lat="48.71195" lon="1.73607">
        <ele>181.39999389648</ele>
        <time>2014-07-21T10:08:59.000Z</time>
      </trkpt>
      <trkpt lat="48.71197" lon="1.73602">
        <ele>181.19999694824</ele>
        <time>2014-07-21T10:09:03.000Z</time>
      </trkpt>
      <trkpt lat="48.71208" lon="1.73604">
        <ele>181.19999694824</ele>
        <time>2014-07-21T10:09:10.000Z</time>
      </trkpt>
      <trkpt lat="48.71216" lon="1.73605">
        <ele>181.19999694824</ele>
        <time>2014-07-21T10:09:16.000Z</time>
      </trkpt>
      <trkpt lat="48.71223" lon="1.73605">
        <ele>181.39999389648</ele>
        <time>2014-07-21T10:09:22.000Z</time>
      </trkpt>
      <trkpt lat="48.71228" lon="1.73608">
        <ele>181.60000610352</ele>
        <time>2014-07-21T10:09:27.000Z</time>
      </trkpt>
      <trkpt lat="48.71233" lon="1.73608">
        <ele>181.80000305176</ele>
        <time>2014-07-21T10:09:31.000Z</time>
      </trkpt>
      <trkpt lat="48.71243" lon="1.73607">
        <ele>182.39999389648</ele>
        <time>2014-07-21T10:09:39.000Z</time>
      </trkpt>
      <trkpt lat="48.71248" lon="1.73612">
        <ele>182.60000610352</ele>
        <time>2014-07-21T10:09:45.000Z</time>
      </trkpt>
      <trkpt lat="48.71253" lon="1.73613">
        <ele>183</ele>
        <time>2014-07-21T10:09:51.000Z</time>
      </trkpt>
      <trkpt lat="48.71254" lon="1.73612">
        <ele>183</ele>
        <time>2014-07-21T10:09:52.000Z</time>
      </trkpt>
      <trkpt lat="48.71261" lon="1.73605">
        <ele>183.60000610352</ele>
        <time>2014-07-21T10:09:58.000Z</time>
      </trkpt>
      <trkpt lat="48.71267" lon="1.736">
        <ele>184.19999694824</ele>
        <time>2014-07-21T10:10:03.000Z</time>
      </trkpt>
      <trkpt lat="48.71274" lon="1.73595">
        <ele>183.80000305176</ele>
        <time>2014-07-21T10:10:08.000Z</time>
      </trkpt>
      <trkpt lat="48.7128" lon="1.73589">
        <ele>182.80000305176</ele>
        <time>2014-07-21T10:10:14.000Z</time>
      </trkpt>
      <trkpt lat="48.71286" lon="1.73584">
        <ele>181.80000305176</ele>
        <time>2014-07-21T10:10:20.000Z</time>
      </trkpt>
      <trkpt lat="48.71294" lon="1.73571">
        <ele>181.39999389648</ele>
        <time>2014-07-21T10:10:28.000Z</time>
      </trkpt>
      <trkpt lat="48.71297" lon="1.73564">
        <ele>180.60000610352</ele>
        <time>2014-07-21T10:10:33.000Z</time>
      </trkpt>
      <trkpt lat="48.71298" lon="1.7356">
        <ele>180.39999389648</ele>
        <time>2014-07-21T10:10:35.000Z</time>
      </trkpt>
      <trkpt lat="48.71299" lon="1.7355">
        <ele>179.80000305176</ele>
        <time>2014-07-21T10:10:41.000Z</time>
      </trkpt>
      <trkpt lat="48.71301" lon="1.73547">
        <ele>179.39999389648</ele>
        <time>2014-07-21T10:10:43.000Z</time>
      </trkpt>
      <trkpt lat="48.71304" lon="1.73543">
        <ele>178.80000305176</ele>
        <time>2014-07-21T10:10:47.000Z</time>
      </trkpt>
      <trkpt lat="48.71314" lon="1.73539">
        <ele>177</ele>
        <time>2014-07-21T10:10:53.000Z</time>
      </trkpt>
      <trkpt lat="48.7132" lon="1.73534">
        <ele>176.19999694824</ele>
        <time>2014-07-21T10:10:58.000Z</time>
      </trkpt>
      <trkpt lat="48.71324" lon="1.73531">
        <ele>176.19999694824</ele>
        <time>2014-07-21T10:11:02.000Z</time>
      </trkpt>
      <trkpt lat="48.71329" lon="1.73524">
        <ele>176.19999694824</ele>
        <time>2014-07-21T10:11:07.000Z</time>
      </trkpt>
      <trkpt lat="48.71334" lon="1.73524">
        <ele>176</ele>
        <time>2014-07-21T10:11:11.000Z</time>
      </trkpt>
      <trkpt lat="48.71335" lon="1.73525">
        <ele>175.80000305176</ele>
        <time>2014-07-21T10:11:12.000Z</time>
      </trkpt>
      <trkpt lat="48.71342" lon="1.73531">
        <ele>175</ele>
        <time>2014-07-21T10:11:17.000Z</time>
      </trkpt>
      <trkpt lat="48.71349" lon="1.73539">
        <ele>174.19999694824</ele>
        <time>2014-07-21T10:11:24.000Z</time>
      </trkpt>
      <trkpt lat="48.71353" lon="1.73542">
        <ele>173.80000305176</ele>
        <time>2014-07-21T10:11:28.000Z</time>
      </trkpt>
      <trkpt lat="48.71358" lon="1.73546">
        <ele>173</ele>
        <time>2014-07-21T10:11:32.000Z</time>
      </trkpt>
      <trkpt lat="48.71369" lon="1.73551">
        <ele>171.39999389648</ele>
        <time>2014-07-21T10:11:38.000Z</time>
      </trkpt>
      <trkpt lat="48.71377" lon="1.73557">
        <ele>170</ele>
        <time>2014-07-21T10:11:44.000Z</time>
      </trkpt>
      <trkpt lat="48.71382" lon="1.73561">
        <ele>169.19999694824</ele>
        <time>2014-07-21T10:11:47.000Z</time>
      </trkpt>
      <trkpt lat="48.71389" lon="1.73568">
        <ele>168</ele>
        <time>2014-07-21T10:11:52.000Z</time>
      </trkpt>
      <trkpt lat="48.71393" lon="1.73573">
        <ele>167.19999694824</ele>
        <time>2014-07-21T10:11:59.000Z</time>
      </trkpt>
      <trkpt lat="48.71401" lon="1.73573">
        <ele>166.19999694824</ele>
        <time>2014-07-21T10:12:05.000Z</time>
      </trkpt>
      <trkpt lat="48.71405" lon="1.73575">
        <ele>165.60000610352</ele>
        <time>2014-07-21T10:12:09.000Z</time>
      </trkpt>
      <trkpt lat="48.71411" lon="1.73572">
        <ele>165</ele>
        <time>2014-07-21T10:12:14.000Z</time>
      </trkpt>
      <trkpt lat="48.71418" lon="1.73568">
        <ele>164.39999389648</ele>
        <time>2014-07-21T10:12:20.000Z</time>
      </trkpt>
      <trkpt lat="48.71418" lon="1.73569">
        <ele>164.39999389648</ele>
        <time>2014-07-21T10:12:21.000Z</time>
      </trkpt>
      <trkpt lat="48.71423" lon="1.73567">
        <ele>164</ele>
        <time>2014-07-21T10:12:27.000Z</time>
      </trkpt>
      <trkpt lat="48.71424" lon="1.73567">
        <ele>163.80000305176</ele>
        <time>2014-07-21T10:12:28.000Z</time>
      </trkpt>
      <trkpt lat="48.71429" lon="1.73566">
        <ele>163.19999694824</ele>
        <time>2014-07-21T10:12:32.000Z</time>
      </trkpt>
      <trkpt lat="48.71433" lon="1.73564">
        <ele>162.80000305176</ele>
        <time>2014-07-21T10:12:36.000Z</time>
      </trkpt>
      <trkpt lat="48.71438" lon="1.73562">
        <ele>162.19999694824</ele>
        <time>2014-07-21T10:12:41.000Z</time>
      </trkpt>
      <trkpt lat="48.7144" lon="1.7356">
        <ele>162.19999694824</ele>
        <time>2014-07-21T10:12:43.000Z</time>
      </trkpt>
      <trkpt lat="48.71449" lon="1.73555">
        <ele>161.80000305176</ele>
        <time>2014-07-21T10:12:49.000Z</time>
      </trkpt>
      <trkpt lat="48.71462" lon="1.73552">
        <ele>160.80000305176</ele>
        <time>2014-07-21T10:12:57.000Z</time>
      </trkpt>
      <trkpt lat="48.71473" lon="1.73553">
        <ele>159.80000305176</ele>
        <time>2014-07-21T10:13:04.000Z</time>
      </trkpt>
      <trkpt lat="48.71478" lon="1.73554">
        <ele>159.39999389648</ele>
        <time>2014-07-21T10:13:07.000Z</time>
      </trkpt>
      <trkpt lat="48.71481" lon="1.73554">
        <ele>159</ele>
        <time>2014-07-21T10:13:09.000Z</time>
      </trkpt>
      <trkpt lat="48.71487" lon="1.73552">
        <ele>158.60000610352</ele>
        <time>2014-07-21T10:13:13.000Z</time>
      </trkpt>
      <trkpt lat="48.71495" lon="1.73548">
        <ele>158.19999694824</ele>
        <time>2014-07-21T10:13:18.000Z</time>
      </trkpt>
      <trkpt lat="48.71499" lon="1.73546">
        <ele>157.60000610352</ele>
        <time>2014-07-21T10:13:22.000Z</time>
      </trkpt>
      <trkpt lat="48.71513" lon="1.73544">
        <ele>155.39999389648</ele>
        <time>2014-07-21T10:13:28.000Z</time>
      </trkpt>
      <trkpt lat="48.71518" lon="1.73544">
        <ele>154.39999389648</ele>
        <time>2014-07-21T10:13:32.000Z</time>
      </trkpt>
      <trkpt lat="48.71526" lon="1.73545">
        <ele>153.39999389648</ele>
        <time>2014-07-21T10:13:38.000Z</time>
      </trkpt>
      <trkpt lat="48.71536" lon="1.7354">
        <ele>152</ele>
        <time>2014-07-21T10:13:45.000Z</time>
      </trkpt>
      <trkpt lat="48.71544" lon="1.73538">
        <ele>151</ele>
        <time>2014-07-21T10:13:50.000Z</time>
      </trkpt>
      <trkpt lat="48.71556" lon="1.73538">
        <ele>149.60000610352</ele>
        <time>2014-07-21T10:13:58.000Z</time>
      </trkpt>
      <trkpt lat="48.71561" lon="1.73537">
        <ele>148.80000305176</ele>
        <time>2014-07-21T10:14:03.000Z</time>
      </trkpt>
      <trkpt lat="48.71565" lon="1.73537">
        <ele>148.39999389648</ele>
        <time>2014-07-21T10:14:09.000Z</time>
      </trkpt>
      <trkpt lat="48.71572" lon="1.73535">
        <ele>147.60000610352</ele>
        <time>2014-07-21T10:14:15.000Z</time>
      </trkpt>
      <trkpt lat="48.71574" lon="1.73533">
        <ele>147.39999389648</ele>
        <time>2014-07-21T10:14:18.000Z</time>
      </trkpt>
      <trkpt lat="48.71581" lon="1.73532">
        <ele>146.80000305176</ele>
        <time>2014-07-21T10:14:22.000Z</time>
      </trkpt>
      <trkpt lat="48.71592" lon="1.73529">
        <ele>145.60000610352</ele>
        <time>2014-07-21T10:14:30.000Z</time>
      </trkpt>
      <trkpt lat="48.71601" lon="1.73527">
        <ele>144.80000305176</ele>
        <time>2014-07-21T10:14:36.000Z</time>
      </trkpt>
      <trkpt lat="48.71607" lon="1.73525">
        <ele>144.19999694824</ele>
        <time>2014-07-21T10:14:41.000Z</time>
      </trkpt>
      <trkpt lat="48.71612" lon="1.73524">
        <ele>144</ele>
        <time>2014-07-21T10:14:44.000Z</time>
      </trkpt>
      <trkpt lat="48.71617" lon="1.73521">
        <ele>143.60000610352</ele>
        <time>2014-07-21T10:14:48.000Z</time>
      </trkpt>
      <trkpt lat="48.71623" lon="1.73517">
        <ele>143.19999694824</ele>
        <time>2014-07-21T10:14:52.000Z</time>
      </trkpt>
      <trkpt lat="48.71633" lon="1.73515">
        <ele>142.60000610352</ele>
        <time>2014-07-21T10:14:57.000Z</time>
      </trkpt>
      <trkpt lat="48.71641" lon="1.73514">
        <ele>142.19999694824</ele>
        <time>2014-07-21T10:15:03.000Z</time>
      </trkpt>
      <trkpt lat="48.71645" lon="1.73514">
        <ele>142</ele>
        <time>2014-07-21T10:15:05.000Z</time>
      </trkpt>
      <trkpt lat="48.71655" lon="1.73511">
        <ele>141.60000610352</ele>
        <time>2014-07-21T10:15:12.000Z</time>
      </trkpt>
      <trkpt lat="48.71661" lon="1.73509">
        <ele>141.19999694824</ele>
        <time>2014-07-21T10:15:17.000Z</time>
      </trkpt>
      <trkpt lat="48.7167" lon="1.73509">
        <ele>140.80000305176</ele>
        <time>2014-07-21T10:15:23.000Z</time>
      </trkpt>
      <trkpt lat="48.71673" lon="1.73509">
        <ele>140.60000610352</ele>
        <time>2014-07-21T10:15:25.000Z</time>
      </trkpt>
      <trkpt lat="48.71686" lon="1.73506">
        <ele>140</ele>
        <time>2014-07-21T10:15:33.000Z</time>
      </trkpt>
      <trkpt lat="48.71698" lon="1.73506">
        <ele>140</ele>
        <time>2014-07-21T10:15:41.000Z</time>
      </trkpt>
      <trkpt lat="48.71707" lon="1.73505">
        <ele>140</ele>
        <time>2014-07-21T10:15:47.000Z</time>
      </trkpt>
      <trkpt lat="48.71709" lon="1.73505">
        <ele>139.80000305176</ele>
        <time>2014-07-21T10:15:48.000Z</time>
      </trkpt>
      <trkpt lat="48.71712" lon="1.73502">
        <ele>139.60000610352</ele>
        <time>2014-07-21T10:15:52.000Z</time>
      </trkpt>
      <trkpt lat="48.71727" lon="1.73499">
        <ele>139</ele>
        <time>2014-07-21T10:16:00.000Z</time>
      </trkpt>
      <trkpt lat="48.71736" lon="1.73498">
        <ele>138.60000610352</ele>
        <time>2014-07-21T10:16:06.000Z</time>
      </trkpt>
      <trkpt lat="48.71739" lon="1.73498">
        <ele>138.60000610352</ele>
        <time>2014-07-21T10:16:08.000Z</time>
      </trkpt>
      <trkpt lat="48.71746" lon="1.73495">
        <ele>138.19999694824</ele>
        <time>2014-07-21T10:16:12.000Z</time>
      </trkpt>
      <trkpt lat="48.71751" lon="1.7349">
        <ele>137.80000305176</ele>
        <time>2014-07-21T10:16:16.000Z</time>
      </trkpt>
      <trkpt lat="48.71755" lon="1.73483">
        <ele>137.60000610352</ele>
        <time>2014-07-21T10:16:22.000Z</time>
      </trkpt>
      <trkpt lat="48.71753" lon="1.73475">
        <ele>137.60000610352</ele>
        <time>2014-07-21T10:16:27.000Z</time>
      </trkpt>
      <trkpt lat="48.71749" lon="1.73463">
        <ele>137.80000305176</ele>
        <time>2014-07-21T10:16:34.000Z</time>
      </trkpt>
      <trkpt lat="48.71746" lon="1.7345">
        <ele>137.80000305176</ele>
        <time>2014-07-21T10:16:41.000Z</time>
      </trkpt>
      <trkpt lat="48.71745" lon="1.73435">
        <ele>138</ele>
        <time>2014-07-21T10:16:49.000Z</time>
      </trkpt>
      <trkpt lat="48.71745" lon="1.73433">
        <ele>138</ele>
        <time>2014-07-21T10:16:50.000Z</time>
      </trkpt>
      <trkpt lat="48.71745" lon="1.73425">
        <ele>138</ele>
        <time>2014-07-21T10:16:55.000Z</time>
      </trkpt>
      <trkpt lat="48.71745" lon="1.73409">
        <ele>138</ele>
        <time>2014-07-21T10:17:03.000Z</time>
      </trkpt>
      <trkpt lat="48.71744" lon="1.73396">
        <ele>137.80000305176</ele>
        <time>2014-07-21T10:17:09.000Z</time>
      </trkpt>
      <trkpt lat="48.71741" lon="1.73387">
        <ele>137.60000610352</ele>
        <time>2014-07-21T10:17:14.000Z</time>
      </trkpt>
      <trkpt lat="48.71737" lon="1.73377">
        <ele>137.60000610352</ele>
        <time>2014-07-21T10:17:19.000Z</time>
      </trkpt>
      <trkpt lat="48.71731" lon="1.73364">
        <ele>137.39999389648</ele>
        <time>2014-07-21T10:17:27.000Z</time>
      </trkpt>
      <trkpt lat="48.71726" lon="1.73353">
        <ele>137.39999389648</ele>
        <time>2014-07-21T10:17:33.000Z</time>
      </trkpt>
      <trkpt lat="48.71723" lon="1.73344">
        <ele>137.19999694824</ele>
        <time>2014-07-21T10:17:38.000Z</time>
      </trkpt>
      <trkpt lat="48.71719" lon="1.73332">
        <ele>137.19999694824</ele>
        <time>2014-07-21T10:17:44.000Z</time>
      </trkpt>
      <trkpt lat="48.71718" lon="1.7333">
        <ele>137.19999694824</ele>
        <time>2014-07-21T10:17:45.000Z</time>
      </trkpt>
      <trkpt lat="48.71717" lon="1.73325">
        <ele>137</ele>
        <time>2014-07-21T10:17:47.000Z</time>
      </trkpt>
      <trkpt lat="48.71717" lon="1.73317">
        <ele>137</ele>
        <time>2014-07-21T10:17:51.000Z</time>
      </trkpt>
      <trkpt lat="48.71714" lon="1.73305">
        <ele>137</ele>
        <time>2014-07-21T10:17:57.000Z</time>
      </trkpt>
      <trkpt lat="48.71712" lon="1.73292">
        <ele>137</ele>
        <time>2014-07-21T10:18:03.000Z</time>
      </trkpt>
      <trkpt lat="48.7171" lon="1.73279">
        <ele>137.19999694824</ele>
        <time>2014-07-21T10:18:10.000Z</time>
      </trkpt>
      <trkpt lat="48.71706" lon="1.73265">
        <ele>137.39999389648</ele>
        <time>2014-07-21T10:18:17.000Z</time>
      </trkpt>
      <trkpt lat="48.71705" lon="1.73257">
        <ele>137.39999389648</ele>
        <time>2014-07-21T10:18:21.000Z</time>
      </trkpt>
      <trkpt lat="48.71703" lon="1.73239">
        <ele>137.19999694824</ele>
        <time>2014-07-21T10:18:30.000Z</time>
      </trkpt>
      <trkpt lat="48.71701" lon="1.73217">
        <ele>137</ele>
        <time>2014-07-21T10:18:41.000Z</time>
      </trkpt>
      <trkpt lat="48.71699" lon="1.73196">
        <ele>137</ele>
        <time>2014-07-21T10:18:51.000Z</time>
      </trkpt>
      <trkpt lat="48.71699" lon="1.73187">
        <ele>136.80000305176</ele>
        <time>2014-07-21T10:18:56.000Z</time>
      </trkpt>
      <trkpt lat="48.71696" lon="1.73171">
        <ele>136.80000305176</ele>
        <time>2014-07-21T10:19:04.000Z</time>
      </trkpt>
      <trkpt lat="48.71696" lon="1.73169">
        <ele>136.80000305176</ele>
        <time>2014-07-21T10:19:05.000Z</time>
      </trkpt>
      <trkpt lat="48.71695" lon="1.73165">
        <ele>136.80000305176</ele>
        <time>2014-07-21T10:19:07.000Z</time>
      </trkpt>
      <trkpt lat="48.71694" lon="1.73155">
        <ele>136.80000305176</ele>
        <time>2014-07-21T10:19:12.000Z</time>
      </trkpt>
      <trkpt lat="48.71694" lon="1.73153">
        <ele>136.80000305176</ele>
        <time>2014-07-21T10:19:13.000Z</time>
      </trkpt>
      <trkpt lat="48.71691" lon="1.73142">
        <ele>137.19999694824</ele>
        <time>2014-07-21T10:19:18.000Z</time>
      </trkpt>
      <trkpt lat="48.71689" lon="1.73122">
        <ele>137.80000305176</ele>
        <time>2014-07-21T10:19:27.000Z</time>
      </trkpt>
      <trkpt lat="48.71687" lon="1.731">
        <ele>138.39999389648</ele>
        <time>2014-07-21T10:19:37.000Z</time>
      </trkpt>
      <trkpt lat="48.71686" lon="1.73086">
        <ele>138.60000610352</ele>
        <time>2014-07-21T10:19:43.000Z</time>
      </trkpt>
      <trkpt lat="48.71683" lon="1.73071">
        <ele>139</ele>
        <time>2014-07-21T10:19:50.000Z</time>
      </trkpt>
      <trkpt lat="48.7168" lon="1.7306">
        <ele>139.19999694824</ele>
        <time>2014-07-21T10:19:56.000Z</time>
      </trkpt>
      <trkpt lat="48.71679" lon="1.73041">
        <ele>139</ele>
        <time>2014-07-21T10:20:05.000Z</time>
      </trkpt>
      <trkpt lat="48.71679" lon="1.73035">
        <ele>139</ele>
        <time>2014-07-21T10:20:08.000Z</time>
      </trkpt>
      <trkpt lat="48.71676" lon="1.73022">
        <ele>139</ele>
        <time>2014-07-21T10:20:15.000Z</time>
      </trkpt>
      <trkpt lat="48.71673" lon="1.73014">
        <ele>139</ele>
        <time>2014-07-21T10:20:19.000Z</time>
      </trkpt>
      <trkpt lat="48.7167" lon="1.72999">
        <ele>139</ele>
        <time>2014-07-21T10:20:27.000Z</time>
      </trkpt>
      <trkpt lat="48.71667" lon="1.72988">
        <ele>139</ele>
        <time>2014-07-21T10:20:34.000Z</time>
      </trkpt>
      <trkpt lat="48.71663" lon="1.72975">
        <ele>139</ele>
        <time>2014-07-21T10:20:41.000Z</time>
      </trkpt>
      <trkpt lat="48.71657" lon="1.72963">
        <ele>139.19999694824</ele>
        <time>2014-07-21T10:20:47.000Z</time>
      </trkpt>
      <trkpt lat="48.71656" lon="1.72961">
        <ele>139.19999694824</ele>
        <time>2014-07-21T10:20:48.000Z</time>
      </trkpt>
      <trkpt lat="48.71651" lon="1.72952">
        <ele>139.39999389648</ele>
        <time>2014-07-21T10:20:54.000Z</time>
      </trkpt>
      <trkpt lat="48.71649" lon="1.7295">
        <ele>139.39999389648</ele>
        <time>2014-07-21T10:20:56.000Z</time>
      </trkpt>
      <trkpt lat="48.71645" lon="1.72944">
        <ele>139.39999389648</ele>
        <time>2014-07-21T10:20:59.000Z</time>
      </trkpt>
      <trkpt lat="48.71641" lon="1.72922">
        <ele>139.39999389648</ele>
        <time>2014-07-21T10:21:05.000Z</time>
      </trkpt>
      <trkpt lat="48.71633" lon="1.72899">
        <ele>139.60000610352</ele>
        <time>2014-07-21T10:21:11.000Z</time>
      </trkpt>
      <trkpt lat="48.71623" lon="1.72878">
        <ele>139.80000305176</ele>
        <time>2014-07-21T10:21:16.000Z</time>
      </trkpt>
      <trkpt lat="48.7161" lon="1.72858">
        <ele>140.19999694824</ele>
        <time>2014-07-21T10:21:21.000Z</time>
      </trkpt>
      <trkpt lat="48.71593" lon="1.72829">
        <ele>140.80000305176</ele>
        <time>2014-07-21T10:21:27.000Z</time>
      </trkpt>
      <trkpt lat="48.71588" lon="1.72819">
        <ele>141</ele>
        <time>2014-07-21T10:21:29.000Z</time>
      </trkpt>
      <trkpt lat="48.71578" lon="1.72802">
        <ele>141.80000305176</ele>
        <time>2014-07-21T10:21:33.000Z</time>
      </trkpt>
      <trkpt lat="48.71564" lon="1.72771">
        <ele>143</ele>
        <time>2014-07-21T10:21:40.000Z</time>
      </trkpt>
      <trkpt lat="48.71559" lon="1.72751">
        <ele>143.60000610352</ele>
        <time>2014-07-21T10:21:45.000Z</time>
      </trkpt>
      <trkpt lat="48.7155" lon="1.72733">
        <ele>144</ele>
        <time>2014-07-21T10:21:49.000Z</time>
      </trkpt>
      <trkpt lat="48.71538" lon="1.72711">
        <ele>144.39999389648</ele>
        <time>2014-07-21T10:21:54.000Z</time>
      </trkpt>
      <trkpt lat="48.71529" lon="1.72678">
        <ele>144</ele>
        <time>2014-07-21T10:22:01.000Z</time>
      </trkpt>
      <trkpt lat="48.7152" lon="1.72651">
        <ele>144</ele>
        <time>2014-07-21T10:22:07.000Z</time>
      </trkpt>
      <trkpt lat="48.71514" lon="1.72628">
        <ele>143.80000305176</ele>
        <time>2014-07-21T10:22:12.000Z</time>
      </trkpt>
      <trkpt lat="48.71509" lon="1.72605">
        <ele>143.60000610352</ele>
        <time>2014-07-21T10:22:17.000Z</time>
      </trkpt>
      <trkpt lat="48.71506" lon="1.72576">
        <ele>143</ele>
        <time>2014-07-21T10:22:23.000Z</time>
      </trkpt>
      <trkpt lat="48.71502" lon="1.72549">
        <ele>142.80000305176</ele>
        <time>2014-07-21T10:22:28.000Z</time>
      </trkpt>
      <trkpt lat="48.71497" lon="1.72521">
        <ele>142.80000305176</ele>
        <time>2014-07-21T10:22:33.000Z</time>
      </trkpt>
      <trkpt lat="48.71494" lon="1.72494">
        <ele>142.60000610352</ele>
        <time>2014-07-21T10:22:38.000Z</time>
      </trkpt>
      <trkpt lat="48.71492" lon="1.7247">
        <ele>142.19999694824</ele>
        <time>2014-07-21T10:22:43.000Z</time>
      </trkpt>
      <trkpt lat="48.7149" lon="1.72428">
        <ele>141.39999389648</ele>
        <time>2014-07-21T10:22:51.000Z</time>
      </trkpt>
      <trkpt lat="48.71486" lon="1.72401">
        <ele>141</ele>
        <time>2014-07-21T10:22:56.000Z</time>
      </trkpt>
      <trkpt lat="48.71487" lon="1.72366">
        <ele>140.19999694824</ele>
        <time>2014-07-21T10:23:03.000Z</time>
      </trkpt>
      <trkpt lat="48.71488" lon="1.72338">
        <ele>139.80000305176</ele>
        <time>2014-07-21T10:23:09.000Z</time>
      </trkpt>
      <trkpt lat="48.71488" lon="1.72318">
        <ele>139.60000610352</ele>
        <time>2014-07-21T10:23:13.000Z</time>
      </trkpt>
      <trkpt lat="48.71487" lon="1.72286">
        <ele>140</ele>
        <time>2014-07-21T10:23:19.000Z</time>
      </trkpt>
      <trkpt lat="48.71484" lon="1.72262">
        <ele>140</ele>
        <time>2014-07-21T10:23:24.000Z</time>
      </trkpt>
      <trkpt lat="48.71478" lon="1.72244">
        <ele>140.19999694824</ele>
        <time>2014-07-21T10:23:28.000Z</time>
      </trkpt>
      <trkpt lat="48.71467" lon="1.72217">
        <ele>141.80000305176</ele>
        <time>2014-07-21T10:23:34.000Z</time>
      </trkpt>
      <trkpt lat="48.7146" lon="1.72195">
        <ele>143.39999389648</ele>
        <time>2014-07-21T10:23:39.000Z</time>
      </trkpt>
      <trkpt lat="48.71444" lon="1.72182">
        <ele>145.19999694824</ele>
        <time>2014-07-21T10:23:45.000Z</time>
      </trkpt>
      <trkpt lat="48.71441" lon="1.72179">
        <ele>145.39999389648</ele>
        <time>2014-07-21T10:23:46.000Z</time>
      </trkpt>
      <trkpt lat="48.71436" lon="1.7217">
        <ele>146.39999389648</ele>
        <time>2014-07-21T10:23:49.000Z</time>
      </trkpt>
      <trkpt lat="48.71432" lon="1.72147">
        <ele>147.39999389648</ele>
        <time>2014-07-21T10:23:54.000Z</time>
      </trkpt>
      <trkpt lat="48.7143" lon="1.72128">
        <ele>146.80000305176</ele>
        <time>2014-07-21T10:23:58.000Z</time>
      </trkpt>
      <trkpt lat="48.71429" lon="1.72115">
        <ele>146.39999389648</ele>
        <time>2014-07-21T10:24:01.000Z</time>
      </trkpt>
      <trkpt lat="48.71421" lon="1.72103">
        <ele>146.80000305176</ele>
        <time>2014-07-21T10:24:05.000Z</time>
      </trkpt>
      <trkpt lat="48.71418" lon="1.72093">
        <ele>146.80000305176</ele>
        <time>2014-07-21T10:24:09.000Z</time>
      </trkpt>
      <trkpt lat="48.71417" lon="1.72088">
        <ele>146.80000305176</ele>
        <time>2014-07-21T10:24:11.000Z</time>
      </trkpt>
      <trkpt lat="48.71413" lon="1.72073">
        <ele>146.60000610352</ele>
        <time>2014-07-21T10:24:16.000Z</time>
      </trkpt>
      <trkpt lat="48.71405" lon="1.72056">
        <ele>146.39999389648</ele>
        <time>2014-07-21T10:24:20.000Z</time>
      </trkpt>
      <trkpt lat="48.71391" lon="1.72038">
        <ele>147</ele>
        <time>2014-07-21T10:24:25.000Z</time>
      </trkpt>
      <trkpt lat="48.7137" lon="1.72017">
        <ele>148</ele>
        <time>2014-07-21T10:24:31.000Z</time>
      </trkpt>
      <trkpt lat="48.71356" lon="1.72005">
        <ele>149.19999694824</ele>
        <time>2014-07-21T10:24:35.000Z</time>
      </trkpt>
      <trkpt lat="48.7134" lon="1.7199">
        <ele>149.60000610352</ele>
        <time>2014-07-21T10:24:40.000Z</time>
      </trkpt>
      <trkpt lat="48.71319" lon="1.71967">
        <ele>151.80000305176</ele>
        <time>2014-07-21T10:24:47.000Z</time>
      </trkpt>
      <trkpt lat="48.7131" lon="1.71951">
        <ele>153</ele>
        <time>2014-07-21T10:24:51.000Z</time>
      </trkpt>
      <trkpt lat="48.71311" lon="1.71918">
        <ele>153</ele>
        <time>2014-07-21T10:24:57.000Z</time>
      </trkpt>
      <trkpt lat="48.71317" lon="1.71899">
        <ele>152.60000610352</ele>
        <time>2014-07-21T10:25:01.000Z</time>
      </trkpt>
      <trkpt lat="48.7132" lon="1.71882">
        <ele>152.80000305176</ele>
        <time>2014-07-21T10:25:05.000Z</time>
      </trkpt>
      <trkpt lat="48.7133" lon="1.71854">
        <ele>152.19999694824</ele>
        <time>2014-07-21T10:25:11.000Z</time>
      </trkpt>
      <trkpt lat="48.71334" lon="1.71834">
        <ele>152.19999694824</ele>
        <time>2014-07-21T10:25:15.000Z</time>
      </trkpt>
      <trkpt lat="48.71333" lon="1.71815">
        <ele>152.39999389648</ele>
        <time>2014-07-21T10:25:19.000Z</time>
      </trkpt>
      <trkpt lat="48.71326" lon="1.71784">
        <ele>151</ele>
        <time>2014-07-21T10:25:25.000Z</time>
      </trkpt>
      <trkpt lat="48.71323" lon="1.71758">
        <ele>150.39999389648</ele>
        <time>2014-07-21T10:25:30.000Z</time>
      </trkpt>
      <trkpt lat="48.7132" lon="1.71724">
        <ele>149.19999694824</ele>
        <time>2014-07-21T10:25:37.000Z</time>
      </trkpt>
      <trkpt lat="48.71318" lon="1.71699">
        <ele>148.19999694824</ele>
        <time>2014-07-21T10:25:42.000Z</time>
      </trkpt>
      <trkpt lat="48.71319" lon="1.7168">
        <ele>148</ele>
        <time>2014-07-21T10:25:46.000Z</time>
      </trkpt>
      <trkpt lat="48.71318" lon="1.71658">
        <ele>147.80000305176</ele>
        <time>2014-07-21T10:25:51.000Z</time>
      </trkpt>
      <trkpt lat="48.71316" lon="1.71624">
        <ele>147</ele>
        <time>2014-07-21T10:25:58.000Z</time>
      </trkpt>
      <trkpt lat="48.71315" lon="1.71601">
        <ele>146.39999389648</ele>
        <time>2014-07-21T10:26:02.000Z</time>
      </trkpt>
      <trkpt lat="48.71315" lon="1.71571">
        <ele>145.39999389648</ele>
        <time>2014-07-21T10:26:08.000Z</time>
      </trkpt>
      <trkpt lat="48.71312" lon="1.71536">
        <ele>144.60000610352</ele>
        <time>2014-07-21T10:26:15.000Z</time>
      </trkpt>
      <trkpt lat="48.71312" lon="1.71506">
        <ele>144.19999694824</ele>
        <time>2014-07-21T10:26:21.000Z</time>
      </trkpt>
      <trkpt lat="48.7131" lon="1.71483">
        <ele>144</ele>
        <time>2014-07-21T10:26:27.000Z</time>
      </trkpt>
      <trkpt lat="48.71309" lon="1.71475">
        <ele>144.19999694824</ele>
        <time>2014-07-21T10:26:31.000Z</time>
      </trkpt>
      <trkpt lat="48.71307" lon="1.71465">
        <ele>144.19999694824</ele>
        <time>2014-07-21T10:26:36.000Z</time>
      </trkpt>
      <trkpt lat="48.71306" lon="1.71456">
        <ele>144.19999694824</ele>
        <time>2014-07-21T10:26:40.000Z</time>
      </trkpt>
      <trkpt lat="48.71304" lon="1.71445">
        <ele>144.39999389648</ele>
        <time>2014-07-21T10:26:45.000Z</time>
      </trkpt>
      <trkpt lat="48.71302" lon="1.71438">
        <ele>144.39999389648</ele>
        <time>2014-07-21T10:26:50.000Z</time>
      </trkpt>
      <trkpt lat="48.713" lon="1.71431">
        <ele>144.60000610352</ele>
        <time>2014-07-21T10:26:54.000Z</time>
      </trkpt>
      <trkpt lat="48.713" lon="1.71409">
        <ele>144.19999694824</ele>
        <time>2014-07-21T10:27:03.000Z</time>
      </trkpt>
      <trkpt lat="48.71298" lon="1.7139">
        <ele>144</ele>
        <time>2014-07-21T10:27:12.000Z</time>
      </trkpt>
      <trkpt lat="48.71297" lon="1.71373">
        <ele>143.60000610352</ele>
        <time>2014-07-21T10:27:18.000Z</time>
      </trkpt>
      <trkpt lat="48.71293" lon="1.71349">
        <ele>143.39999389648</ele>
        <time>2014-07-21T10:27:23.000Z</time>
      </trkpt>
      <trkpt lat="48.71286" lon="1.71322">
        <ele>143.19999694824</ele>
        <time>2014-07-21T10:27:28.000Z</time>
      </trkpt>
      <trkpt lat="48.71285" lon="1.71306">
        <ele>143</ele>
        <time>2014-07-21T10:27:31.000Z</time>
      </trkpt>
      <trkpt lat="48.71273" lon="1.7126">
        <ele>142.39999389648</ele>
        <time>2014-07-21T10:27:39.000Z</time>
      </trkpt>
      <trkpt lat="48.71271" lon="1.71241">
        <ele>142</ele>
        <time>2014-07-21T10:27:42.000Z</time>
      </trkpt>
      <trkpt lat="48.71272" lon="1.71195">
        <ele>142</ele>
        <time>2014-07-21T10:27:50.000Z</time>
      </trkpt>
      <trkpt lat="48.7127" lon="1.71166">
        <ele>142</ele>
        <time>2014-07-21T10:27:55.000Z</time>
      </trkpt>
      <trkpt lat="48.71263" lon="1.71135">
        <ele>142.60000610352</ele>
        <time>2014-07-21T10:28:00.000Z</time>
      </trkpt>
      <trkpt lat="48.7126" lon="1.71123">
        <ele>142.60000610352</ele>
        <time>2014-07-21T10:28:02.000Z</time>
      </trkpt>
      <trkpt lat="48.71257" lon="1.71113">
        <ele>143</ele>
        <time>2014-07-21T10:28:04.000Z</time>
      </trkpt>
      <trkpt lat="48.71253" lon="1.71104">
        <ele>143.19999694824</ele>
        <time>2014-07-21T10:28:06.000Z</time>
      </trkpt>
      <trkpt lat="48.71242" lon="1.71082">
        <ele>144.19999694824</ele>
        <time>2014-07-21T10:28:11.000Z</time>
      </trkpt>
      <trkpt lat="48.71228" lon="1.71052">
        <ele>145.39999389648</ele>
        <time>2014-07-21T10:28:18.000Z</time>
      </trkpt>
      <trkpt lat="48.7122" lon="1.71035">
        <ele>146</ele>
        <time>2014-07-21T10:28:22.000Z</time>
      </trkpt>
      <trkpt lat="48.71209" lon="1.71011">
        <ele>147</ele>
        <time>2014-07-21T10:28:27.000Z</time>
      </trkpt>
      <trkpt lat="48.71202" lon="1.70985">
        <ele>148</ele>
        <time>2014-07-21T10:28:32.000Z</time>
      </trkpt>
      <trkpt lat="48.71203" lon="1.7097">
        <ele>148.19999694824</ele>
        <time>2014-07-21T10:28:35.000Z</time>
      </trkpt>
      <trkpt lat="48.71207" lon="1.70939">
        <ele>148.80000305176</ele>
        <time>2014-07-21T10:28:41.000Z</time>
      </trkpt>
      <trkpt lat="48.7121" lon="1.70923">
        <ele>148.80000305176</ele>
        <time>2014-07-21T10:28:45.000Z</time>
      </trkpt>
      <trkpt lat="48.71206" lon="1.70899">
        <ele>149.39999389648</ele>
        <time>2014-07-21T10:28:51.000Z</time>
      </trkpt>
      <trkpt lat="48.71207" lon="1.70873">
        <ele>150.60000610352</ele>
        <time>2014-07-21T10:28:56.000Z</time>
      </trkpt>
      <trkpt lat="48.71213" lon="1.70847">
        <ele>151.19999694824</ele>
        <time>2014-07-21T10:29:01.000Z</time>
      </trkpt>
      <trkpt lat="48.7122" lon="1.70819">
        <ele>151.80000305176</ele>
        <time>2014-07-21T10:29:06.000Z</time>
      </trkpt>
      <trkpt lat="48.7122" lon="1.70793">
        <ele>151.19999694824</ele>
        <time>2014-07-21T10:29:11.000Z</time>
      </trkpt>
      <trkpt lat="48.71219" lon="1.70772">
        <ele>150.80000305176</ele>
        <time>2014-07-21T10:29:17.000Z</time>
      </trkpt>
      <trkpt lat="48.71219" lon="1.70767">
        <ele>150.60000610352</ele>
        <time>2014-07-21T10:29:19.000Z</time>
      </trkpt>
      <trkpt lat="48.71218" lon="1.70755">
        <ele>150.80000305176</ele>
        <time>2014-07-21T10:29:25.000Z</time>
      </trkpt>
      <trkpt lat="48.71219" lon="1.70752">
        <ele>150.80000305176</ele>
        <time>2014-07-21T10:29:27.000Z</time>
      </trkpt>
      <trkpt lat="48.71218" lon="1.70741">
        <ele>150.80000305176</ele>
        <time>2014-07-21T10:29:32.000Z</time>
      </trkpt>
      <trkpt lat="48.71218" lon="1.70738">
        <ele>150.80000305176</ele>
        <time>2014-07-21T10:29:33.000Z</time>
      </trkpt>
      <trkpt lat="48.71217" lon="1.70732">
        <ele>150.80000305176</ele>
        <time>2014-07-21T10:29:39.000Z</time>
      </trkpt>
      <trkpt lat="48.71226" lon="1.70728">
        <ele>150.19999694824</ele>
        <time>2014-07-21T10:29:53.000Z</time>
      </trkpt>
      <trkpt lat="48.71227" lon="1.70725">
        <ele>150.19999694824</ele>
        <time>2014-07-21T10:29:54.000Z</time>
      </trkpt>
      <trkpt lat="48.71222" lon="1.70715">
        <ele>150.39999389648</ele>
        <time>2014-07-21T10:30:01.000Z</time>
      </trkpt>
      <trkpt lat="48.7122" lon="1.70714">
        <ele>150.60000610352</ele>
        <time>2014-07-21T10:30:03.000Z</time>
      </trkpt>
      <trkpt lat="48.7122" lon="1.70698">
        <ele>150.60000610352</ele>
        <time>2014-07-21T10:30:10.000Z</time>
      </trkpt>
      <trkpt lat="48.71221" lon="1.7068">
        <ele>150.60000610352</ele>
        <time>2014-07-21T10:30:17.000Z</time>
      </trkpt>
      <trkpt lat="48.71221" lon="1.70664">
        <ele>150.60000610352</ele>
        <time>2014-07-21T10:30:24.000Z</time>
      </trkpt>
      <trkpt lat="48.71221" lon="1.70644">
        <ele>150.60000610352</ele>
        <time>2014-07-21T10:30:33.000Z</time>
      </trkpt>
      <trkpt lat="48.71219" lon="1.70625">
        <ele>150.60000610352</ele>
        <time>2014-07-21T10:30:41.000Z</time>
      </trkpt>
      <trkpt lat="48.71218" lon="1.70619">
        <ele>150.80000305176</ele>
        <time>2014-07-21T10:30:44.000Z</time>
      </trkpt>
      <trkpt lat="48.71216" lon="1.70605">
        <ele>151</ele>
        <time>2014-07-21T10:30:51.000Z</time>
      </trkpt>
      <trkpt lat="48.71214" lon="1.70591">
        <ele>151</ele>
        <time>2014-07-21T10:30:57.000Z</time>
      </trkpt>
      <trkpt lat="48.71211" lon="1.70577">
        <ele>151</ele>
        <time>2014-07-21T10:31:04.000Z</time>
      </trkpt>
      <trkpt lat="48.71209" lon="1.70573">
        <ele>151.19999694824</ele>
        <time>2014-07-21T10:31:06.000Z</time>
      </trkpt>
      <trkpt lat="48.71204" lon="1.70554">
        <ele>151</ele>
        <time>2014-07-21T10:31:15.000Z</time>
      </trkpt>
      <trkpt lat="48.71201" lon="1.70545">
        <ele>150.80000305176</ele>
        <time>2014-07-21T10:31:19.000Z</time>
      </trkpt>
      <trkpt lat="48.71198" lon="1.70533">
        <ele>150.80000305176</ele>
        <time>2014-07-21T10:31:25.000Z</time>
      </trkpt>
      <trkpt lat="48.71196" lon="1.70525">
        <ele>150.60000610352</ele>
        <time>2014-07-21T10:31:29.000Z</time>
      </trkpt>
      <trkpt lat="48.71192" lon="1.70509">
        <ele>150.39999389648</ele>
        <time>2014-07-21T10:31:37.000Z</time>
      </trkpt>
      <trkpt lat="48.71189" lon="1.70489">
        <ele>149.80000305176</ele>
        <time>2014-07-21T10:31:46.000Z</time>
      </trkpt>
      <trkpt lat="48.71188" lon="1.70478">
        <ele>149.39999389648</ele>
        <time>2014-07-21T10:31:51.000Z</time>
      </trkpt>
      <trkpt lat="48.71181" lon="1.70466">
        <ele>148.80000305176</ele>
        <time>2014-07-21T10:31:58.000Z</time>
      </trkpt>
      <trkpt lat="48.71174" lon="1.7045">
        <ele>147.60000610352</ele>
        <time>2014-07-21T10:32:06.000Z</time>
      </trkpt>
      <trkpt lat="48.71169" lon="1.70437">
        <ele>146.80000305176</ele>
        <time>2014-07-21T10:32:13.000Z</time>
      </trkpt>
      <trkpt lat="48.71163" lon="1.70425">
        <ele>146</ele>
        <time>2014-07-21T10:32:20.000Z</time>
      </trkpt>
      <trkpt lat="48.71161" lon="1.70416">
        <ele>145.39999389648</ele>
        <time>2014-07-21T10:32:25.000Z</time>
      </trkpt>
      <trkpt lat="48.71158" lon="1.70407">
        <ele>144.80000305176</ele>
        <time>2014-07-21T10:32:29.000Z</time>
      </trkpt>
      <trkpt lat="48.71157" lon="1.70387">
        <ele>145.60000610352</ele>
        <time>2014-07-21T10:32:37.000Z</time>
      </trkpt>
      <trkpt lat="48.71158" lon="1.70373">
        <ele>146.39999389648</ele>
        <time>2014-07-21T10:32:44.000Z</time>
      </trkpt>
      <trkpt lat="48.7116" lon="1.70358">
        <ele>146.19999694824</ele>
        <time>2014-07-21T10:32:50.000Z</time>
      </trkpt>
      <trkpt lat="48.71161" lon="1.70342">
        <ele>146.19999694824</ele>
        <time>2014-07-21T10:32:57.000Z</time>
      </trkpt>
      <trkpt lat="48.71162" lon="1.70325">
        <ele>146.19999694824</ele>
        <time>2014-07-21T10:33:04.000Z</time>
      </trkpt>
      <trkpt lat="48.71163" lon="1.70321">
        <ele>146.19999694824</ele>
        <time>2014-07-21T10:33:06.000Z</time>
      </trkpt>
      <trkpt lat="48.71163" lon="1.70309">
        <ele>146.60000610352</ele>
        <time>2014-07-21T10:33:13.000Z</time>
      </trkpt>
      <trkpt lat="48.71164" lon="1.70294">
        <ele>147</ele>
        <time>2014-07-21T10:33:20.000Z</time>
      </trkpt>
      <trkpt lat="48.71166" lon="1.7028">
        <ele>147.19999694824</ele>
        <time>2014-07-21T10:33:27.000Z</time>
      </trkpt>
      <trkpt lat="48.71165" lon="1.70276">
        <ele>147.39999389648</ele>
        <time>2014-07-21T10:33:29.000Z</time>
      </trkpt>
      <trkpt lat="48.71167" lon="1.70271">
        <ele>147.39999389648</ele>
        <time>2014-07-21T10:33:32.000Z</time>
      </trkpt>
      <trkpt lat="48.7117" lon="1.70263">
        <ele>147.39999389648</ele>
        <time>2014-07-21T10:33:36.000Z</time>
      </trkpt>
      <trkpt lat="48.7117" lon="1.70251">
        <ele>147.60000610352</ele>
        <time>2014-07-21T10:33:41.000Z</time>
      </trkpt>
      <trkpt lat="48.71171" lon="1.70243">
        <ele>147.80000305176</ele>
        <time>2014-07-21T10:33:46.000Z</time>
      </trkpt>
      <trkpt lat="48.71176" lon="1.7023">
        <ele>147.80000305176</ele>
        <time>2014-07-21T10:33:53.000Z</time>
      </trkpt>
      <trkpt lat="48.71181" lon="1.70219">
        <ele>147.60000610352</ele>
        <time>2014-07-21T10:33:58.000Z</time>
      </trkpt>
      <trkpt lat="48.71186" lon="1.70206">
        <ele>147.39999389648</ele>
        <time>2014-07-21T10:34:04.000Z</time>
      </trkpt>
      <trkpt lat="48.71188" lon="1.702">
        <ele>147.39999389648</ele>
        <time>2014-07-21T10:34:07.000Z</time>
      </trkpt>
      <trkpt lat="48.71193" lon="1.70184">
        <ele>147</ele>
        <time>2014-07-21T10:34:14.000Z</time>
      </trkpt>
      <trkpt lat="48.71195" lon="1.7017">
        <ele>146.80000305176</ele>
        <time>2014-07-21T10:34:21.000Z</time>
      </trkpt>
      <trkpt lat="48.71199" lon="1.70157">
        <ele>146.60000610352</ele>
        <time>2014-07-21T10:34:27.000Z</time>
      </trkpt>
      <trkpt lat="48.71201" lon="1.70144">
        <ele>146.60000610352</ele>
        <time>2014-07-21T10:34:33.000Z</time>
      </trkpt>
      <trkpt lat="48.71205" lon="1.70128">
        <ele>146.39999389648</ele>
        <time>2014-07-21T10:34:38.000Z</time>
      </trkpt>
      <trkpt lat="48.7121" lon="1.7011">
        <ele>146</ele>
        <time>2014-07-21T10:34:42.000Z</time>
      </trkpt>
      <trkpt lat="48.71216" lon="1.70083">
        <ele>146.19999694824</ele>
        <time>2014-07-21T10:34:47.000Z</time>
      </trkpt>
      <trkpt lat="48.71221" lon="1.70059">
        <ele>146.19999694824</ele>
        <time>2014-07-21T10:34:51.000Z</time>
      </trkpt>
      <trkpt lat="48.71226" lon="1.70035">
        <ele>146</ele>
        <time>2014-07-21T10:34:55.000Z</time>
      </trkpt>
      <trkpt lat="48.71232" lon="1.70002">
        <ele>146.80000305176</ele>
        <time>2014-07-21T10:35:01.000Z</time>
      </trkpt>
      <trkpt lat="48.71233" lon="1.69979">
        <ele>147.19999694824</ele>
        <time>2014-07-21T10:35:05.000Z</time>
      </trkpt>
      <trkpt lat="48.71232" lon="1.69954">
        <ele>147.39999389648</ele>
        <time>2014-07-21T10:35:09.000Z</time>
      </trkpt>
      <trkpt lat="48.71228" lon="1.69921">
        <ele>147.80000305176</ele>
        <time>2014-07-21T10:35:15.000Z</time>
      </trkpt>
      <trkpt lat="48.71228" lon="1.69915">
        <ele>147.80000305176</ele>
        <time>2014-07-21T10:35:16.000Z</time>
      </trkpt>
      <trkpt lat="48.71227" lon="1.69899">
        <ele>148</ele>
        <time>2014-07-21T10:35:19.000Z</time>
      </trkpt>
      <trkpt lat="48.71225" lon="1.69882">
        <ele>148.19999694824</ele>
        <time>2014-07-21T10:35:22.000Z</time>
      </trkpt>
      <trkpt lat="48.71227" lon="1.69855">
        <ele>148.19999694824</ele>
        <time>2014-07-21T10:35:26.000Z</time>
      </trkpt>
      <trkpt lat="48.71232" lon="1.69823">
        <ele>148.39999389648</ele>
        <time>2014-07-21T10:35:31.000Z</time>
      </trkpt>
      <trkpt lat="48.71236" lon="1.69793">
        <ele>148</ele>
        <time>2014-07-21T10:35:36.000Z</time>
      </trkpt>
      <trkpt lat="48.71241" lon="1.69776">
        <ele>147.80000305176</ele>
        <time>2014-07-21T10:35:39.000Z</time>
      </trkpt>
      <trkpt lat="48.71246" lon="1.69741">
        <ele>148.19999694824</ele>
        <time>2014-07-21T10:35:45.000Z</time>
      </trkpt>
      <trkpt lat="48.71251" lon="1.69703">
        <ele>150.39999389648</ele>
        <time>2014-07-21T10:35:52.000Z</time>
      </trkpt>
      <trkpt lat="48.71253" lon="1.69687">
        <ele>150.80000305176</ele>
        <time>2014-07-21T10:35:57.000Z</time>
      </trkpt>
      <trkpt lat="48.71256" lon="1.69675">
        <ele>151</ele>
        <time>2014-07-21T10:36:03.000Z</time>
      </trkpt>
      <trkpt lat="48.71258" lon="1.69663">
        <ele>151.39999389648</ele>
        <time>2014-07-21T10:36:09.000Z</time>
      </trkpt>
      <trkpt lat="48.71259" lon="1.69653">
        <ele>151.80000305176</ele>
        <time>2014-07-21T10:36:14.000Z</time>
      </trkpt>
      <trkpt lat="48.71264" lon="1.69636">
        <ele>152.19999694824</ele>
        <time>2014-07-21T10:36:22.000Z</time>
      </trkpt>
      <trkpt lat="48.71268" lon="1.69626">
        <ele>152.19999694824</ele>
        <time>2014-07-21T10:36:27.000Z</time>
      </trkpt>
      <trkpt lat="48.71269" lon="1.69621">
        <ele>152.19999694824</ele>
        <time>2014-07-21T10:36:29.000Z</time>
      </trkpt>
      <trkpt lat="48.71272" lon="1.69607">
        <ele>152.60000610352</ele>
        <time>2014-07-21T10:36:36.000Z</time>
      </trkpt>
      <trkpt lat="48.71272" lon="1.69604">
        <ele>152.60000610352</ele>
        <time>2014-07-21T10:36:37.000Z</time>
      </trkpt>
      <trkpt lat="48.71276" lon="1.69584">
        <ele>153.19999694824</ele>
        <time>2014-07-21T10:36:46.000Z</time>
      </trkpt>
      <trkpt lat="48.71278" lon="1.6957">
        <ele>153.60000610352</ele>
        <time>2014-07-21T10:36:52.000Z</time>
      </trkpt>
      <trkpt lat="48.71281" lon="1.69557">
        <ele>153</ele>
        <time>2014-07-21T10:36:58.000Z</time>
      </trkpt>
      <trkpt lat="48.71283" lon="1.69544">
        <ele>152.60000610352</ele>
        <time>2014-07-21T10:37:04.000Z</time>
      </trkpt>
      <trkpt lat="48.71284" lon="1.69532">
        <ele>152.19999694824</ele>
        <time>2014-07-21T10:37:10.000Z</time>
      </trkpt>
      <trkpt lat="48.71285" lon="1.69519">
        <ele>151.80000305176</ele>
        <time>2014-07-21T10:37:16.000Z</time>
      </trkpt>
      <trkpt lat="48.71287" lon="1.69507">
        <ele>151.39999389648</ele>
        <time>2014-07-21T10:37:21.000Z</time>
      </trkpt>
      <trkpt lat="48.71288" lon="1.69495">
        <ele>151</ele>
        <time>2014-07-21T10:37:26.000Z</time>
      </trkpt>
      <trkpt lat="48.7129" lon="1.69485">
        <ele>150.19999694824</ele>
        <time>2014-07-21T10:37:31.000Z</time>
      </trkpt>
      <trkpt lat="48.71291" lon="1.69479">
        <ele>149.60000610352</ele>
        <time>2014-07-21T10:37:35.000Z</time>
      </trkpt>
      <trkpt lat="48.7129" lon="1.69467">
        <ele>148.60000610352</ele>
        <time>2014-07-21T10:37:41.000Z</time>
      </trkpt>
      <trkpt lat="48.71293" lon="1.69451">
        <ele>147</ele>
        <time>2014-07-21T10:37:48.000Z</time>
      </trkpt>
      <trkpt lat="48.71295" lon="1.69445">
        <ele>146.39999389648</ele>
        <time>2014-07-21T10:37:51.000Z</time>
      </trkpt>
      <trkpt lat="48.71295" lon="1.69437">
        <ele>145.80000305176</ele>
        <time>2014-07-21T10:37:55.000Z</time>
      </trkpt>
      <trkpt lat="48.71296" lon="1.6942">
        <ele>144.60000610352</ele>
        <time>2014-07-21T10:38:03.000Z</time>
      </trkpt>
      <trkpt lat="48.71297" lon="1.69406">
        <ele>143.80000305176</ele>
        <time>2014-07-21T10:38:09.000Z</time>
      </trkpt>
      <trkpt lat="48.71297" lon="1.69402">
        <ele>143.60000610352</ele>
        <time>2014-07-21T10:38:11.000Z</time>
      </trkpt>
      <trkpt lat="48.71301" lon="1.69385">
        <ele>143.39999389648</ele>
        <time>2014-07-21T10:38:19.000Z</time>
      </trkpt>
      <trkpt lat="48.71307" lon="1.6937">
        <ele>142.80000305176</ele>
        <time>2014-07-21T10:38:26.000Z</time>
      </trkpt>
      <trkpt lat="48.71307" lon="1.69367">
        <ele>142.80000305176</ele>
        <time>2014-07-21T10:38:28.000Z</time>
      </trkpt>
      <trkpt lat="48.7131" lon="1.69358">
        <ele>142.39999389648</ele>
        <time>2014-07-21T10:38:34.000Z</time>
      </trkpt>
      <trkpt lat="48.71311" lon="1.69351">
        <ele>142</ele>
        <time>2014-07-21T10:38:37.000Z</time>
      </trkpt>
      <trkpt lat="48.71315" lon="1.69334">
        <ele>141</ele>
        <time>2014-07-21T10:38:45.000Z</time>
      </trkpt>
      <trkpt lat="48.71318" lon="1.69322">
        <ele>140</ele>
        <time>2014-07-21T10:38:51.000Z</time>
      </trkpt>
      <trkpt lat="48.71321" lon="1.69314">
        <ele>139.60000610352</ele>
        <time>2014-07-21T10:38:55.000Z</time>
      </trkpt>
      <trkpt lat="48.71323" lon="1.69301">
        <ele>139.39999389648</ele>
        <time>2014-07-21T10:39:01.000Z</time>
      </trkpt>
      <trkpt lat="48.71323" lon="1.69288">
        <ele>139.19999694824</ele>
        <time>2014-07-21T10:39:07.000Z</time>
      </trkpt>
      <trkpt lat="48.71324" lon="1.69272">
        <ele>139.60000610352</ele>
        <time>2014-07-21T10:39:14.000Z</time>
      </trkpt>
      <trkpt lat="48.71327" lon="1.69256">
        <ele>139.80000305176</ele>
        <time>2014-07-21T10:39:21.000Z</time>
      </trkpt>
      <trkpt lat="48.71329" lon="1.69241">
        <ele>140</ele>
        <time>2014-07-21T10:39:28.000Z</time>
      </trkpt>
      <trkpt lat="48.71331" lon="1.69226">
        <ele>140</ele>
        <time>2014-07-21T10:39:34.000Z</time>
      </trkpt>
      <trkpt lat="48.71334" lon="1.69213">
        <ele>139.80000305176</ele>
        <time>2014-07-21T10:39:40.000Z</time>
      </trkpt>
      <trkpt lat="48.71334" lon="1.69201">
        <ele>139.60000610352</ele>
        <time>2014-07-21T10:39:46.000Z</time>
      </trkpt>
      <trkpt lat="48.71333" lon="1.69198">
        <ele>139.60000610352</ele>
        <time>2014-07-21T10:39:50.000Z</time>
      </trkpt>
      <trkpt lat="48.71343" lon="1.69138">
        <ele>138.39999389648</ele>
        <time>2014-07-21T10:44:40.000Z</time>
      </trkpt>
      <trkpt lat="48.71346" lon="1.69131">
        <ele>138.80000305176</ele>
        <time>2014-07-21T10:44:44.000Z</time>
      </trkpt>
      <trkpt lat="48.71349" lon="1.69118">
        <ele>139.60000610352</ele>
        <time>2014-07-21T10:44:51.000Z</time>
      </trkpt>
      <trkpt lat="48.71354" lon="1.69107">
        <ele>140.39999389648</ele>
        <time>2014-07-21T10:44:58.000Z</time>
      </trkpt>
      <trkpt lat="48.71357" lon="1.69097">
        <ele>140.80000305176</ele>
        <time>2014-07-21T10:45:03.000Z</time>
      </trkpt>
      <trkpt lat="48.71361" lon="1.69084">
        <ele>141.60000610352</ele>
        <time>2014-07-21T10:45:10.000Z</time>
      </trkpt>
      <trkpt lat="48.71362" lon="1.69082">
        <ele>141.80000305176</ele>
        <time>2014-07-21T10:45:14.000Z</time>
      </trkpt>
      <trkpt lat="48.71365" lon="1.69078">
        <ele>141.60000610352</ele>
        <time>2014-07-21T10:45:21.000Z</time>
      </trkpt>
      <trkpt lat="48.71368" lon="1.69073">
        <ele>141.60000610352</ele>
        <time>2014-07-21T10:45:24.000Z</time>
      </trkpt>
      <trkpt lat="48.71372" lon="1.69066">
        <ele>141.39999389648</ele>
        <time>2014-07-21T10:45:28.000Z</time>
      </trkpt>
      <trkpt lat="48.71378" lon="1.69058">
        <ele>141.39999389648</ele>
        <time>2014-07-21T10:45:34.000Z</time>
      </trkpt>
      <trkpt lat="48.71386" lon="1.69044">
        <ele>141.39999389648</ele>
        <time>2014-07-21T10:45:42.000Z</time>
      </trkpt>
      <trkpt lat="48.71392" lon="1.69031">
        <ele>141.60000610352</ele>
        <time>2014-07-21T10:45:49.000Z</time>
      </trkpt>
      <trkpt lat="48.71395" lon="1.6902">
        <ele>141.80000305176</ele>
        <time>2014-07-21T10:45:55.000Z</time>
      </trkpt>
      <trkpt lat="48.71401" lon="1.69009">
        <ele>141.19999694824</ele>
        <time>2014-07-21T10:46:02.000Z</time>
      </trkpt>
      <trkpt lat="48.71404" lon="1.69001">
        <ele>141</ele>
        <time>2014-07-21T10:46:06.000Z</time>
      </trkpt>
      <trkpt lat="48.71406" lon="1.68993">
        <ele>141</ele>
        <time>2014-07-21T10:46:10.000Z</time>
      </trkpt>
      <trkpt lat="48.71409" lon="1.68981">
        <ele>141</ele>
        <time>2014-07-21T10:46:17.000Z</time>
      </trkpt>
      <trkpt lat="48.7141" lon="1.68978">
        <ele>141</ele>
        <time>2014-07-21T10:46:21.000Z</time>
      </trkpt>
      <trkpt lat="48.71412" lon="1.68974">
        <ele>141</ele>
        <time>2014-07-21T10:46:25.000Z</time>
      </trkpt>
      <trkpt lat="48.71416" lon="1.68967">
        <ele>140.80000305176</ele>
        <time>2014-07-21T10:46:29.000Z</time>
      </trkpt>
      <trkpt lat="48.71418" lon="1.68963">
        <ele>140.60000610352</ele>
        <time>2014-07-21T10:46:31.000Z</time>
      </trkpt>
      <trkpt lat="48.71424" lon="1.6895">
        <ele>140.19999694824</ele>
        <time>2014-07-21T10:46:39.000Z</time>
      </trkpt>
      <trkpt lat="48.71431" lon="1.68942">
        <ele>139.39999389648</ele>
        <time>2014-07-21T10:46:45.000Z</time>
      </trkpt>
      <trkpt lat="48.71433" lon="1.68936">
        <ele>139.39999389648</ele>
        <time>2014-07-21T10:46:49.000Z</time>
      </trkpt>
      <trkpt lat="48.7143" lon="1.68918">
        <ele>140.39999389648</ele>
        <time>2014-07-21T10:46:58.000Z</time>
      </trkpt>
      <trkpt lat="48.7143" lon="1.68916">
        <ele>140.60000610352</ele>
        <time>2014-07-21T10:46:59.000Z</time>
      </trkpt>
      <trkpt lat="48.71428" lon="1.68908">
        <ele>141.19999694824</ele>
        <time>2014-07-21T10:47:03.000Z</time>
      </trkpt>
      <trkpt lat="48.71423" lon="1.68898">
        <ele>142.19999694824</ele>
        <time>2014-07-21T10:47:09.000Z</time>
      </trkpt>
      <trkpt lat="48.71418" lon="1.6889">
        <ele>143</ele>
        <time>2014-07-21T10:47:15.000Z</time>
      </trkpt>
      <trkpt lat="48.71413" lon="1.68875">
        <ele>144.19999694824</ele>
        <time>2014-07-21T10:47:23.000Z</time>
      </trkpt>
      <trkpt lat="48.71409" lon="1.68864">
        <ele>145</ele>
        <time>2014-07-21T10:47:29.000Z</time>
      </trkpt>
      <trkpt lat="48.71408" lon="1.6886">
        <ele>145.19999694824</ele>
        <time>2014-07-21T10:47:32.000Z</time>
      </trkpt>
      <trkpt lat="48.71404" lon="1.68845">
        <ele>146.19999694824</ele>
        <time>2014-07-21T10:47:41.000Z</time>
      </trkpt>
      <trkpt lat="48.714" lon="1.68832">
        <ele>147</ele>
        <time>2014-07-21T10:47:48.000Z</time>
      </trkpt>
      <trkpt lat="48.71396" lon="1.68822">
        <ele>148</ele>
        <time>2014-07-21T10:47:54.000Z</time>
      </trkpt>
      <trkpt lat="48.71391" lon="1.68809">
        <ele>148.60000610352</ele>
        <time>2014-07-21T10:48:01.000Z</time>
      </trkpt>
      <trkpt lat="48.71388" lon="1.68799">
        <ele>149</ele>
        <time>2014-07-21T10:48:07.000Z</time>
      </trkpt>
      <trkpt lat="48.71386" lon="1.68795">
        <ele>149.19999694824</ele>
        <time>2014-07-21T10:48:10.000Z</time>
      </trkpt>
      <trkpt lat="48.71384" lon="1.68782">
        <ele>149.60000610352</ele>
        <time>2014-07-21T10:48:17.000Z</time>
      </trkpt>
      <trkpt lat="48.71377" lon="1.68771">
        <ele>150.60000610352</ele>
        <time>2014-07-21T10:48:23.000Z</time>
      </trkpt>
      <trkpt lat="48.71372" lon="1.68759">
        <ele>151.39999389648</ele>
        <time>2014-07-21T10:48:29.000Z</time>
      </trkpt>
      <trkpt lat="48.7137" lon="1.68751">
        <ele>151.80000305176</ele>
        <time>2014-07-21T10:48:33.000Z</time>
      </trkpt>
      <trkpt lat="48.71369" lon="1.68749">
        <ele>152</ele>
        <time>2014-07-21T10:48:34.000Z</time>
      </trkpt>
      <trkpt lat="48.71367" lon="1.68746">
        <ele>152.39999389648</ele>
        <time>2014-07-21T10:48:36.000Z</time>
      </trkpt>
      <trkpt lat="48.71362" lon="1.68731">
        <ele>153.19999694824</ele>
        <time>2014-07-21T10:48:44.000Z</time>
      </trkpt>
      <trkpt lat="48.71359" lon="1.68722">
        <ele>153.60000610352</ele>
        <time>2014-07-21T10:48:49.000Z</time>
      </trkpt>
      <trkpt lat="48.71358" lon="1.6872">
        <ele>153.60000610352</ele>
        <time>2014-07-21T10:48:50.000Z</time>
      </trkpt>
      <trkpt lat="48.71354" lon="1.68712">
        <ele>154</ele>
        <time>2014-07-21T10:48:55.000Z</time>
      </trkpt>
      <trkpt lat="48.71351" lon="1.68704">
        <ele>154.60000610352</ele>
        <time>2014-07-21T10:48:59.000Z</time>
      </trkpt>
      <trkpt lat="48.71349" lon="1.68696">
        <ele>154.80000305176</ele>
        <time>2014-07-21T10:49:03.000Z</time>
      </trkpt>
      <trkpt lat="48.71343" lon="1.68685">
        <ele>155.80000305176</ele>
        <time>2014-07-21T10:49:10.000Z</time>
      </trkpt>
      <trkpt lat="48.71342" lon="1.68682">
        <ele>156</ele>
        <time>2014-07-21T10:49:11.000Z</time>
      </trkpt>
      <trkpt lat="48.71338" lon="1.68672">
        <ele>156.60000610352</ele>
        <time>2014-07-21T10:49:16.000Z</time>
      </trkpt>
      <trkpt lat="48.71334" lon="1.68661">
        <ele>157.19999694824</ele>
        <time>2014-07-21T10:49:23.000Z</time>
      </trkpt>
      <trkpt lat="48.71334" lon="1.68659">
        <ele>157.19999694824</ele>
        <time>2014-07-21T10:49:24.000Z</time>
      </trkpt>
      <trkpt lat="48.71331" lon="1.68644">
        <ele>157.19999694824</ele>
        <time>2014-07-21T10:49:32.000Z</time>
      </trkpt>
      <trkpt lat="48.71329" lon="1.68636">
        <ele>157.19999694824</ele>
        <time>2014-07-21T10:49:36.000Z</time>
      </trkpt>
      <trkpt lat="48.71327" lon="1.68628">
        <ele>157.39999389648</ele>
        <time>2014-07-21T10:49:41.000Z</time>
      </trkpt>
      <trkpt lat="48.71324" lon="1.68619">
        <ele>157.60000610352</ele>
        <time>2014-07-21T10:49:46.000Z</time>
      </trkpt>
      <trkpt lat="48.71321" lon="1.68603">
        <ele>157.39999389648</ele>
        <time>2014-07-21T10:49:54.000Z</time>
      </trkpt>
      <trkpt lat="48.71319" lon="1.68587">
        <ele>157.39999389648</ele>
        <time>2014-07-21T10:50:01.000Z</time>
      </trkpt>
      <trkpt lat="48.71317" lon="1.68575">
        <ele>157.39999389648</ele>
        <time>2014-07-21T10:50:07.000Z</time>
      </trkpt>
      <trkpt lat="48.71315" lon="1.68563">
        <ele>157.19999694824</ele>
        <time>2014-07-21T10:50:13.000Z</time>
      </trkpt>
      <trkpt lat="48.71311" lon="1.68549">
        <ele>157.19999694824</ele>
        <time>2014-07-21T10:50:20.000Z</time>
      </trkpt>
      <trkpt lat="48.71308" lon="1.68542">
        <ele>157.19999694824</ele>
        <time>2014-07-21T10:50:23.000Z</time>
      </trkpt>
      <trkpt lat="48.71308" lon="1.6853">
        <ele>156.80000305176</ele>
        <time>2014-07-21T10:50:28.000Z</time>
      </trkpt>
      <trkpt lat="48.71306" lon="1.68526">
        <ele>156.80000305176</ele>
        <time>2014-07-21T10:50:30.000Z</time>
      </trkpt>
      <trkpt lat="48.71302" lon="1.6851">
        <ele>156.60000610352</ele>
        <time>2014-07-21T10:50:38.000Z</time>
      </trkpt>
      <trkpt lat="48.71301" lon="1.68505">
        <ele>156.60000610352</ele>
        <time>2014-07-21T10:50:40.000Z</time>
      </trkpt>
      <trkpt lat="48.71297" lon="1.68493">
        <ele>156.80000305176</ele>
        <time>2014-07-21T10:50:46.000Z</time>
      </trkpt>
      <trkpt lat="48.71293" lon="1.68484">
        <ele>156.80000305176</ele>
        <time>2014-07-21T10:50:52.000Z</time>
      </trkpt>
      <trkpt lat="48.71291" lon="1.68477">
        <ele>156.80000305176</ele>
        <time>2014-07-21T10:50:56.000Z</time>
      </trkpt>
      <trkpt lat="48.71285" lon="1.68468">
        <ele>157</ele>
        <time>2014-07-21T10:51:02.000Z</time>
      </trkpt>
      <trkpt lat="48.71279" lon="1.68458">
        <ele>157.19999694824</ele>
        <time>2014-07-21T10:51:10.000Z</time>
      </trkpt>
      <trkpt lat="48.71271" lon="1.68453">
        <ele>158</ele>
        <time>2014-07-21T10:51:16.000Z</time>
      </trkpt>
      <trkpt lat="48.7126" lon="1.68444">
        <ele>158.80000305176</ele>
        <time>2014-07-21T10:51:25.000Z</time>
      </trkpt>
      <trkpt lat="48.71254" lon="1.68439">
        <ele>159.19999694824</ele>
        <time>2014-07-21T10:51:29.000Z</time>
      </trkpt>
      <trkpt lat="48.71248" lon="1.68435">
        <ele>159.80000305176</ele>
        <time>2014-07-21T10:51:35.000Z</time>
      </trkpt>
      <trkpt lat="48.71244" lon="1.68431">
        <ele>160.19999694824</ele>
        <time>2014-07-21T10:51:39.000Z</time>
      </trkpt>
      <trkpt lat="48.71238" lon="1.6842">
        <ele>160.19999694824</ele>
        <time>2014-07-21T10:51:46.000Z</time>
      </trkpt>
      <trkpt lat="48.71237" lon="1.68418">
        <ele>160.39999389648</ele>
        <time>2014-07-21T10:51:47.000Z</time>
      </trkpt>
      <trkpt lat="48.71231" lon="1.68404">
        <ele>160.19999694824</ele>
        <time>2014-07-21T10:51:53.000Z</time>
      </trkpt>
      <trkpt lat="48.71223" lon="1.6839">
        <ele>161.39999389648</ele>
        <time>2014-07-21T10:51:59.000Z</time>
      </trkpt>
      <trkpt lat="48.71221" lon="1.68383">
        <ele>161.60000610352</ele>
        <time>2014-07-21T10:52:03.000Z</time>
      </trkpt>
      <trkpt lat="48.71216" lon="1.68367">
        <ele>162.60000610352</ele>
        <time>2014-07-21T10:52:09.000Z</time>
      </trkpt>
      <trkpt lat="48.71212" lon="1.68359">
        <ele>163.19999694824</ele>
        <time>2014-07-21T10:52:13.000Z</time>
      </trkpt>
      <trkpt lat="48.71207" lon="1.68339">
        <ele>164</ele>
        <time>2014-07-21T10:52:21.000Z</time>
      </trkpt>
      <trkpt lat="48.71201" lon="1.68327">
        <ele>164.60000610352</ele>
        <time>2014-07-21T10:52:27.000Z</time>
      </trkpt>
      <trkpt lat="48.71199" lon="1.68316">
        <ele>165</ele>
        <time>2014-07-21T10:52:33.000Z</time>
      </trkpt>
      <trkpt lat="48.71197" lon="1.68302">
        <ele>166.19999694824</ele>
        <time>2014-07-21T10:52:39.000Z</time>
      </trkpt>
      <trkpt lat="48.71197" lon="1.683">
        <ele>166.19999694824</ele>
        <time>2014-07-21T10:52:40.000Z</time>
      </trkpt>
      <trkpt lat="48.71197" lon="1.68291">
        <ele>166.60000610352</ele>
        <time>2014-07-21T10:52:46.000Z</time>
      </trkpt>
      <trkpt lat="48.71197" lon="1.68288">
        <ele>166.60000610352</ele>
        <time>2014-07-21T10:52:47.000Z</time>
      </trkpt>
      <trkpt lat="48.71199" lon="1.68273">
        <ele>167.19999694824</ele>
        <time>2014-07-21T10:52:55.000Z</time>
      </trkpt>
      <trkpt lat="48.71197" lon="1.68265">
        <ele>167.80000305176</ele>
        <time>2014-07-21T10:53:00.000Z</time>
      </trkpt>
      <trkpt lat="48.71196" lon="1.68263">
        <ele>168</ele>
        <time>2014-07-21T10:53:01.000Z</time>
      </trkpt>
      <trkpt lat="48.71195" lon="1.6826">
        <ele>168.39999389648</ele>
        <time>2014-07-21T10:53:03.000Z</time>
      </trkpt>
      <trkpt lat="48.71191" lon="1.68245">
        <ele>170</ele>
        <time>2014-07-21T10:53:10.000Z</time>
      </trkpt>
      <trkpt lat="48.71189" lon="1.68231">
        <ele>170.39999389648</ele>
        <time>2014-07-21T10:53:15.000Z</time>
      </trkpt>
      <trkpt lat="48.71193" lon="1.6822">
        <ele>169.39999389648</ele>
        <time>2014-07-21T10:53:21.000Z</time>
      </trkpt>
      <trkpt lat="48.71192" lon="1.68219">
        <ele>169.60000610352</ele>
        <time>2014-07-21T10:53:22.000Z</time>
      </trkpt>
      <trkpt lat="48.71192" lon="1.68215">
        <ele>169.39999389648</ele>
        <time>2014-07-21T10:53:24.000Z</time>
      </trkpt>
      <trkpt lat="48.71191" lon="1.68206">
        <ele>169.80000305176</ele>
        <time>2014-07-21T10:53:28.000Z</time>
      </trkpt>
      <trkpt lat="48.71186" lon="1.68192">
        <ele>170.60000610352</ele>
        <time>2014-07-21T10:53:34.000Z</time>
      </trkpt>
      <trkpt lat="48.71184" lon="1.68183">
        <ele>170.60000610352</ele>
        <time>2014-07-21T10:53:39.000Z</time>
      </trkpt>
      <trkpt lat="48.71184" lon="1.68181">
        <ele>170.60000610352</ele>
        <time>2014-07-21T10:53:40.000Z</time>
      </trkpt>
      <trkpt lat="48.71183" lon="1.68155">
        <ele>170.39999389648</ele>
        <time>2014-07-21T10:53:46.000Z</time>
      </trkpt>
      <trkpt lat="48.71178" lon="1.68137">
        <ele>171.19999694824</ele>
        <time>2014-07-21T10:53:50.000Z</time>
      </trkpt>
      <trkpt lat="48.71172" lon="1.68123">
        <ele>172</ele>
        <time>2014-07-21T10:53:55.000Z</time>
      </trkpt>
      <trkpt lat="48.71165" lon="1.68117">
        <ele>172.80000305176</ele>
        <time>2014-07-21T10:54:01.000Z</time>
      </trkpt>
      <trkpt lat="48.71162" lon="1.68117">
        <ele>173.19999694824</ele>
        <time>2014-07-21T10:54:03.000Z</time>
      </trkpt>
      <trkpt lat="48.71159" lon="1.68116">
        <ele>173.39999389648</ele>
        <time>2014-07-21T10:54:07.000Z</time>
      </trkpt>
      <trkpt lat="48.71152" lon="1.68111">
        <ele>174.19999694824</ele>
        <time>2014-07-21T10:54:14.000Z</time>
      </trkpt>
      <trkpt lat="48.71152" lon="1.68108">
        <ele>174.19999694824</ele>
        <time>2014-07-21T10:54:16.000Z</time>
      </trkpt>
      <trkpt lat="48.71151" lon="1.68101">
        <ele>174.60000610352</ele>
        <time>2014-07-21T10:54:20.000Z</time>
      </trkpt>
      <trkpt lat="48.71148" lon="1.68095">
        <ele>174.80000305176</ele>
        <time>2014-07-21T10:54:23.000Z</time>
      </trkpt>
      <trkpt lat="48.71143" lon="1.68089">
        <ele>175.39999389648</ele>
        <time>2014-07-21T10:54:27.000Z</time>
      </trkpt>
      <trkpt lat="48.71133" lon="1.68084">
        <ele>176.60000610352</ele>
        <time>2014-07-21T10:54:35.000Z</time>
      </trkpt>
      <trkpt lat="48.71132" lon="1.68084">
        <ele>176.80000305176</ele>
        <time>2014-07-21T10:54:36.000Z</time>
      </trkpt>
      <trkpt lat="48.71125" lon="1.68082">
        <ele>177.60000610352</ele>
        <time>2014-07-21T10:54:42.000Z</time>
      </trkpt>
      <trkpt lat="48.71118" lon="1.68082">
        <ele>178.19999694824</ele>
        <time>2014-07-21T10:54:48.000Z</time>
      </trkpt>
      <trkpt lat="48.71107" lon="1.68079">
        <ele>179.60000610352</ele>
        <time>2014-07-21T10:54:56.000Z</time>
      </trkpt>
      <trkpt lat="48.71105" lon="1.68078">
        <ele>179.80000305176</ele>
        <time>2014-07-21T10:54:58.000Z</time>
      </trkpt>
      <trkpt lat="48.71101" lon="1.68076">
        <ele>180</ele>
        <time>2014-07-21T10:55:02.000Z</time>
      </trkpt>
      <trkpt lat="48.71093" lon="1.68073">
        <ele>180.19999694824</ele>
        <time>2014-07-21T10:55:08.000Z</time>
      </trkpt>
      <trkpt lat="48.71089" lon="1.68072">
        <ele>180.39999389648</ele>
        <time>2014-07-21T10:55:11.000Z</time>
      </trkpt>
      <trkpt lat="48.71081" lon="1.68071">
        <ele>180.60000610352</ele>
        <time>2014-07-21T10:55:16.000Z</time>
      </trkpt>
      <trkpt lat="48.71074" lon="1.68068">
        <ele>180.60000610352</ele>
        <time>2014-07-21T10:55:22.000Z</time>
      </trkpt>
      <trkpt lat="48.71069" lon="1.68068">
        <ele>180.80000305176</ele>
        <time>2014-07-21T10:55:27.000Z</time>
      </trkpt>
      <trkpt lat="48.71064" lon="1.68068">
        <ele>180.80000305176</ele>
        <time>2014-07-21T10:55:34.000Z</time>
      </trkpt>
      <trkpt lat="48.71059" lon="1.68065">
        <ele>181</ele>
        <time>2014-07-21T10:55:38.000Z</time>
      </trkpt>
      <trkpt lat="48.7105" lon="1.68065">
        <ele>181.19999694824</ele>
        <time>2014-07-21T10:55:45.000Z</time>
      </trkpt>
      <trkpt lat="48.71041" lon="1.68066">
        <ele>181.39999389648</ele>
        <time>2014-07-21T10:55:51.000Z</time>
      </trkpt>
      <trkpt lat="48.7104" lon="1.68065">
        <ele>181.39999389648</ele>
        <time>2014-07-21T10:55:52.000Z</time>
      </trkpt>
      <trkpt lat="48.71032" lon="1.68066">
        <ele>181.60000610352</ele>
        <time>2014-07-21T10:55:58.000Z</time>
      </trkpt>
      <trkpt lat="48.71029" lon="1.68066">
        <ele>181.80000305176</ele>
        <time>2014-07-21T10:56:00.000Z</time>
      </trkpt>
      <trkpt lat="48.71019" lon="1.68069">
        <ele>182</ele>
        <time>2014-07-21T10:56:07.000Z</time>
      </trkpt>
      <trkpt lat="48.71009" lon="1.6807">
        <ele>182.39999389648</ele>
        <time>2014-07-21T10:56:12.000Z</time>
      </trkpt>
      <trkpt lat="48.70998" lon="1.68065">
        <ele>182.80000305176</ele>
        <time>2014-07-21T10:56:20.000Z</time>
      </trkpt>
      <trkpt lat="48.70993" lon="1.6806">
        <ele>183.19999694824</ele>
        <time>2014-07-21T10:56:25.000Z</time>
      </trkpt>
      <trkpt lat="48.7099" lon="1.68056">
        <ele>183.39999389648</ele>
        <time>2014-07-21T10:56:28.000Z</time>
      </trkpt>
      <trkpt lat="48.70987" lon="1.6805">
        <ele>183.60000610352</ele>
        <time>2014-07-21T10:56:32.000Z</time>
      </trkpt>
      <trkpt lat="48.70984" lon="1.68034">
        <ele>184.19999694824</ele>
        <time>2014-07-21T10:56:39.000Z</time>
      </trkpt>
      <trkpt lat="48.70984" lon="1.68026">
        <ele>184</ele>
        <time>2014-07-21T10:56:44.000Z</time>
      </trkpt>
      <trkpt lat="48.70985" lon="1.68022">
        <ele>183.80000305176</ele>
        <time>2014-07-21T10:56:46.000Z</time>
      </trkpt>
      <trkpt lat="48.70985" lon="1.68014">
        <ele>183.60000610352</ele>
        <time>2014-07-21T10:56:51.000Z</time>
      </trkpt>
      <trkpt lat="48.7098" lon="1.67999">
        <ele>183.80000305176</ele>
        <time>2014-07-21T10:56:57.000Z</time>
      </trkpt>
      <trkpt lat="48.70976" lon="1.67994">
        <ele>184</ele>
        <time>2014-07-21T10:57:00.000Z</time>
      </trkpt>
      <trkpt lat="48.70965" lon="1.6799">
        <ele>184.80000305176</ele>
        <time>2014-07-21T10:57:08.000Z</time>
      </trkpt>
      <trkpt lat="48.70956" lon="1.67986">
        <ele>185.39999389648</ele>
        <time>2014-07-21T10:57:15.000Z</time>
      </trkpt>
      <trkpt lat="48.70953" lon="1.67984">
        <ele>185.60000610352</ele>
        <time>2014-07-21T10:57:17.000Z</time>
      </trkpt>
      <trkpt lat="48.70942" lon="1.67977">
        <ele>186.39999389648</ele>
        <time>2014-07-21T10:57:26.000Z</time>
      </trkpt>
      <trkpt lat="48.70932" lon="1.67969">
        <ele>186.80000305176</ele>
        <time>2014-07-21T10:57:33.000Z</time>
      </trkpt>
      <trkpt lat="48.70925" lon="1.67964">
        <ele>187</ele>
        <time>2014-07-21T10:57:40.000Z</time>
      </trkpt>
      <trkpt lat="48.70919" lon="1.67962">
        <ele>187</ele>
        <time>2014-07-21T10:57:45.000Z</time>
      </trkpt>
      <trkpt lat="48.70914" lon="1.67958">
        <ele>187.19999694824</ele>
        <time>2014-07-21T10:57:50.000Z</time>
      </trkpt>
      <trkpt lat="48.7091" lon="1.67954">
        <ele>187.19999694824</ele>
        <time>2014-07-21T10:57:53.000Z</time>
      </trkpt>
      <trkpt lat="48.70905" lon="1.67953">
        <ele>187.39999389648</ele>
        <time>2014-07-21T10:57:56.000Z</time>
      </trkpt>
      <trkpt lat="48.70898" lon="1.67948">
        <ele>187.39999389648</ele>
        <time>2014-07-21T10:58:00.000Z</time>
      </trkpt>
      <trkpt lat="48.70888" lon="1.67942">
        <ele>187.80000305176</ele>
        <time>2014-07-21T10:58:06.000Z</time>
      </trkpt>
      <trkpt lat="48.70886" lon="1.67942">
        <ele>187.80000305176</ele>
        <time>2014-07-21T10:58:07.000Z</time>
      </trkpt>
      <trkpt lat="48.70879" lon="1.67937">
        <ele>188</ele>
        <time>2014-07-21T10:58:13.000Z</time>
      </trkpt>
      <trkpt lat="48.70868" lon="1.67932">
        <ele>188.39999389648</ele>
        <time>2014-07-21T10:58:20.000Z</time>
      </trkpt>
      <trkpt lat="48.70866" lon="1.6793">
        <ele>188.39999389648</ele>
        <time>2014-07-21T10:58:22.000Z</time>
      </trkpt>
      <trkpt lat="48.70861" lon="1.67926">
        <ele>188.39999389648</ele>
        <time>2014-07-21T10:58:26.000Z</time>
      </trkpt>
      <trkpt lat="48.70849" lon="1.67922">
        <ele>188.80000305176</ele>
        <time>2014-07-21T10:58:34.000Z</time>
      </trkpt>
      <trkpt lat="48.7084" lon="1.67918">
        <ele>188.80000305176</ele>
        <time>2014-07-21T10:58:41.000Z</time>
      </trkpt>
      <trkpt lat="48.70834" lon="1.67914">
        <ele>188.80000305176</ele>
        <time>2014-07-21T10:58:46.000Z</time>
      </trkpt>
      <trkpt lat="48.70827" lon="1.67913">
        <ele>189</ele>
        <time>2014-07-21T10:58:50.000Z</time>
      </trkpt>
      <trkpt lat="48.70818" lon="1.67905">
        <ele>189</ele>
        <time>2014-07-21T10:58:57.000Z</time>
      </trkpt>
      <trkpt lat="48.70812" lon="1.67902">
        <ele>189</ele>
        <time>2014-07-21T10:59:01.000Z</time>
      </trkpt>
      <trkpt lat="48.70805" lon="1.67898">
        <ele>189.19999694824</ele>
        <time>2014-07-21T10:59:06.000Z</time>
      </trkpt>
      <trkpt lat="48.70795" lon="1.67893">
        <ele>189.19999694824</ele>
        <time>2014-07-21T10:59:13.000Z</time>
      </trkpt>
      <trkpt lat="48.70787" lon="1.67891">
        <ele>189.39999389648</ele>
        <time>2014-07-21T10:59:19.000Z</time>
      </trkpt>
      <trkpt lat="48.70779" lon="1.67885">
        <ele>189.60000610352</ele>
        <time>2014-07-21T10:59:25.000Z</time>
      </trkpt>
      <trkpt lat="48.70769" lon="1.67879">
        <ele>189.60000610352</ele>
        <time>2014-07-21T10:59:33.000Z</time>
      </trkpt>
      <trkpt lat="48.7076" lon="1.67871">
        <ele>189.19999694824</ele>
        <time>2014-07-21T10:59:40.000Z</time>
      </trkpt>
      <trkpt lat="48.70752" lon="1.67865">
        <ele>188.60000610352</ele>
        <time>2014-07-21T10:59:47.000Z</time>
      </trkpt>
      <trkpt lat="48.70746" lon="1.67862">
        <ele>188.39999389648</ele>
        <time>2014-07-21T10:59:51.000Z</time>
      </trkpt>
      <trkpt lat="48.70742" lon="1.67859">
        <ele>188</ele>
        <time>2014-07-21T10:59:54.000Z</time>
      </trkpt>
      <trkpt lat="48.70735" lon="1.67855">
        <ele>187.80000305176</ele>
        <time>2014-07-21T10:59:59.000Z</time>
      </trkpt>
      <trkpt lat="48.70725" lon="1.6785">
        <ele>187.19999694824</ele>
        <time>2014-07-21T11:00:06.000Z</time>
      </trkpt>
      <trkpt lat="48.70715" lon="1.67845">
        <ele>186.60000610352</ele>
        <time>2014-07-21T11:00:13.000Z</time>
      </trkpt>
      <trkpt lat="48.7071" lon="1.67842">
        <ele>186.39999389648</ele>
        <time>2014-07-21T11:00:17.000Z</time>
      </trkpt>
      <trkpt lat="48.70701" lon="1.67836">
        <ele>185.80000305176</ele>
        <time>2014-07-21T11:00:23.000Z</time>
      </trkpt>
      <trkpt lat="48.707" lon="1.67836">
        <ele>185.80000305176</ele>
        <time>2014-07-21T11:00:24.000Z</time>
      </trkpt>
      <trkpt lat="48.70698" lon="1.67834">
        <ele>185.60000610352</ele>
        <time>2014-07-21T11:00:26.000Z</time>
      </trkpt>
      <trkpt lat="48.70692" lon="1.67832">
        <ele>185.19999694824</ele>
        <time>2014-07-21T11:00:30.000Z</time>
      </trkpt>
      <trkpt lat="48.7068" lon="1.67828">
        <ele>184.80000305176</ele>
        <time>2014-07-21T11:00:37.000Z</time>
      </trkpt>
      <trkpt lat="48.70676" lon="1.67825">
        <ele>184.60000610352</ele>
        <time>2014-07-21T11:00:40.000Z</time>
      </trkpt>
      <trkpt lat="48.70671" lon="1.67822">
        <ele>184.60000610352</ele>
        <time>2014-07-21T11:00:44.000Z</time>
      </trkpt>
      <trkpt lat="48.70663" lon="1.67817">
        <ele>184.60000610352</ele>
        <time>2014-07-21T11:00:50.000Z</time>
      </trkpt>
      <trkpt lat="48.70655" lon="1.67812">
        <ele>184.60000610352</ele>
        <time>2014-07-21T11:00:56.000Z</time>
      </trkpt>
      <trkpt lat="48.70641" lon="1.67809">
        <ele>184.39999389648</ele>
        <time>2014-07-21T11:01:04.000Z</time>
      </trkpt>
      <trkpt lat="48.70632" lon="1.67808">
        <ele>184.19999694824</ele>
        <time>2014-07-21T11:01:10.000Z</time>
      </trkpt>
      <trkpt lat="48.70621" lon="1.67802">
        <ele>184.19999694824</ele>
        <time>2014-07-21T11:01:18.000Z</time>
      </trkpt>
      <trkpt lat="48.70616" lon="1.67799">
        <ele>184.19999694824</ele>
        <time>2014-07-21T11:01:22.000Z</time>
      </trkpt>
      <trkpt lat="48.70609" lon="1.67795">
        <ele>184.39999389648</ele>
        <time>2014-07-21T11:01:28.000Z</time>
      </trkpt>
      <trkpt lat="48.70608" lon="1.67794">
        <ele>184.39999389648</ele>
        <time>2014-07-21T11:01:29.000Z</time>
      </trkpt>
      <trkpt lat="48.706" lon="1.67787">
        <ele>184.39999389648</ele>
        <time>2014-07-21T11:01:36.000Z</time>
      </trkpt>
      <trkpt lat="48.7059" lon="1.67781">
        <ele>184.19999694824</ele>
        <time>2014-07-21T11:01:43.000Z</time>
      </trkpt>
      <trkpt lat="48.70581" lon="1.67773">
        <ele>184.19999694824</ele>
        <time>2014-07-21T11:01:50.000Z</time>
      </trkpt>
      <trkpt lat="48.70574" lon="1.6777">
        <ele>184</ele>
        <time>2014-07-21T11:01:55.000Z</time>
      </trkpt>
      <trkpt lat="48.70571" lon="1.67769">
        <ele>183.80000305176</ele>
        <time>2014-07-21T11:01:57.000Z</time>
      </trkpt>
      <trkpt lat="48.70559" lon="1.6776">
        <ele>183.60000610352</ele>
        <time>2014-07-21T11:02:06.000Z</time>
      </trkpt>
      <trkpt lat="48.70556" lon="1.67759">
        <ele>183.60000610352</ele>
        <time>2014-07-21T11:02:08.000Z</time>
      </trkpt>
      <trkpt lat="48.70547" lon="1.67751">
        <ele>183.60000610352</ele>
        <time>2014-07-21T11:02:15.000Z</time>
      </trkpt>
      <trkpt lat="48.70543" lon="1.67749">
        <ele>183.39999389648</ele>
        <time>2014-07-21T11:02:19.000Z</time>
      </trkpt>
      <trkpt lat="48.70532" lon="1.67748">
        <ele>183</ele>
        <time>2014-07-21T11:02:24.000Z</time>
      </trkpt>
      <trkpt lat="48.70521" lon="1.67744">
        <ele>182.80000305176</ele>
        <time>2014-07-21T11:02:31.000Z</time>
      </trkpt>
      <trkpt lat="48.70512" lon="1.67735">
        <ele>183</ele>
        <time>2014-07-21T11:02:38.000Z</time>
      </trkpt>
      <trkpt lat="48.70509" lon="1.67734">
        <ele>183</ele>
        <time>2014-07-21T11:02:40.000Z</time>
      </trkpt>
      <trkpt lat="48.70499" lon="1.67728">
        <ele>183.39999389648</ele>
        <time>2014-07-21T11:02:47.000Z</time>
      </trkpt>
      <trkpt lat="48.7049" lon="1.67724">
        <ele>183.39999389648</ele>
        <time>2014-07-21T11:02:53.000Z</time>
      </trkpt>
      <trkpt lat="48.70477" lon="1.67717">
        <ele>183.80000305176</ele>
        <time>2014-07-21T11:03:02.000Z</time>
      </trkpt>
      <trkpt lat="48.70466" lon="1.67709">
        <ele>184</ele>
        <time>2014-07-21T11:03:10.000Z</time>
      </trkpt>
      <trkpt lat="48.70452" lon="1.67705">
        <ele>184.19999694824</ele>
        <time>2014-07-21T11:03:18.000Z</time>
      </trkpt>
      <trkpt lat="48.7044" lon="1.67701">
        <ele>184.19999694824</ele>
        <time>2014-07-21T11:03:26.000Z</time>
      </trkpt>
      <trkpt lat="48.70433" lon="1.67697">
        <ele>184.39999389648</ele>
        <time>2014-07-21T11:03:31.000Z</time>
      </trkpt>
      <trkpt lat="48.70427" lon="1.67691">
        <ele>184.60000610352</ele>
        <time>2014-07-21T11:03:37.000Z</time>
      </trkpt>
      <trkpt lat="48.70418" lon="1.67682">
        <ele>185</ele>
        <time>2014-07-21T11:03:44.000Z</time>
      </trkpt>
      <trkpt lat="48.70413" lon="1.67677">
        <ele>185.19999694824</ele>
        <time>2014-07-21T11:03:48.000Z</time>
      </trkpt>
      <trkpt lat="48.70402" lon="1.67671">
        <ele>185.39999389648</ele>
        <time>2014-07-21T11:03:56.000Z</time>
      </trkpt>
      <trkpt lat="48.70392" lon="1.67664">
        <ele>185.60000610352</ele>
        <time>2014-07-21T11:04:04.000Z</time>
      </trkpt>
      <trkpt lat="48.7038" lon="1.67662">
        <ele>185.60000610352</ele>
        <time>2014-07-21T11:04:11.000Z</time>
      </trkpt>
      <trkpt lat="48.70372" lon="1.67658">
        <ele>185.80000305176</ele>
        <time>2014-07-21T11:04:17.000Z</time>
      </trkpt>
      <trkpt lat="48.70363" lon="1.67653">
        <ele>186</ele>
        <time>2014-07-21T11:04:24.000Z</time>
      </trkpt>
      <trkpt lat="48.70351" lon="1.67646">
        <ele>185.80000305176</ele>
        <time>2014-07-21T11:04:33.000Z</time>
      </trkpt>
      <trkpt lat="48.70339" lon="1.67639">
        <ele>184.80000305176</ele>
        <time>2014-07-21T11:04:41.000Z</time>
      </trkpt>
      <trkpt lat="48.70329" lon="1.67631">
        <ele>184</ele>
        <time>2014-07-21T11:04:48.000Z</time>
      </trkpt>
      <trkpt lat="48.70321" lon="1.67628">
        <ele>183.60000610352</ele>
        <time>2014-07-21T11:04:53.000Z</time>
      </trkpt>
      <trkpt lat="48.70312" lon="1.67624">
        <ele>183.19999694824</ele>
        <time>2014-07-21T11:04:58.000Z</time>
      </trkpt>
      <trkpt lat="48.70303" lon="1.67618">
        <ele>182.60000610352</ele>
        <time>2014-07-21T11:05:04.000Z</time>
      </trkpt>
      <trkpt lat="48.70293" lon="1.6761">
        <ele>181.80000305176</ele>
        <time>2014-07-21T11:05:12.000Z</time>
      </trkpt>
      <trkpt lat="48.70283" lon="1.67609">
        <ele>181.39999389648</ele>
        <time>2014-07-21T11:05:17.000Z</time>
      </trkpt>
      <trkpt lat="48.70276" lon="1.67604">
        <ele>180.80000305176</ele>
        <time>2014-07-21T11:05:22.000Z</time>
      </trkpt>
      <trkpt lat="48.70267" lon="1.676">
        <ele>180.19999694824</ele>
        <time>2014-07-21T11:05:28.000Z</time>
      </trkpt>
      <trkpt lat="48.7026" lon="1.67594">
        <ele>179.60000610352</ele>
        <time>2014-07-21T11:05:33.000Z</time>
      </trkpt>
      <trkpt lat="48.70249" lon="1.67589">
        <ele>178.60000610352</ele>
        <time>2014-07-21T11:05:40.000Z</time>
      </trkpt>
      <trkpt lat="48.70241" lon="1.67584">
        <ele>178</ele>
        <time>2014-07-21T11:05:46.000Z</time>
      </trkpt>
      <trkpt lat="48.70234" lon="1.67579">
        <ele>177.19999694824</ele>
        <time>2014-07-21T11:05:52.000Z</time>
      </trkpt>
      <trkpt lat="48.70225" lon="1.67573">
        <ele>176.39999389648</ele>
        <time>2014-07-21T11:06:00.000Z</time>
      </trkpt>
      <trkpt lat="48.70218" lon="1.67569">
        <ele>175.80000305176</ele>
        <time>2014-07-21T11:06:06.000Z</time>
      </trkpt>
      <trkpt lat="48.70209" lon="1.67564">
        <ele>175</ele>
        <time>2014-07-21T11:06:12.000Z</time>
      </trkpt>
      <trkpt lat="48.70196" lon="1.67565">
        <ele>174.19999694824</ele>
        <time>2014-07-21T11:06:19.000Z</time>
      </trkpt>
      <trkpt lat="48.70188" lon="1.67562">
        <ele>173.60000610352</ele>
        <time>2014-07-21T11:06:23.000Z</time>
      </trkpt>
      <trkpt lat="48.70181" lon="1.67557">
        <ele>173</ele>
        <time>2014-07-21T11:06:28.000Z</time>
      </trkpt>
      <trkpt lat="48.70179" lon="1.67557">
        <ele>172.80000305176</ele>
        <time>2014-07-21T11:06:29.000Z</time>
      </trkpt>
      <trkpt lat="48.7017" lon="1.6755">
        <ele>172</ele>
        <time>2014-07-21T11:06:35.000Z</time>
      </trkpt>
      <trkpt lat="48.70163" lon="1.67544">
        <ele>171.39999389648</ele>
        <time>2014-07-21T11:06:40.000Z</time>
      </trkpt>
      <trkpt lat="48.70156" lon="1.67539">
        <ele>170.60000610352</ele>
        <time>2014-07-21T11:06:45.000Z</time>
      </trkpt>
      <trkpt lat="48.70151" lon="1.67537">
        <ele>170.19999694824</ele>
        <time>2014-07-21T11:06:48.000Z</time>
      </trkpt>
      <trkpt lat="48.70137" lon="1.67533">
        <ele>168.80000305176</ele>
        <time>2014-07-21T11:06:56.000Z</time>
      </trkpt>
      <trkpt lat="48.70128" lon="1.67528">
        <ele>167.80000305176</ele>
        <time>2014-07-21T11:07:03.000Z</time>
      </trkpt>
      <trkpt lat="48.7012" lon="1.67522">
        <ele>167</ele>
        <time>2014-07-21T11:07:10.000Z</time>
      </trkpt>
      <trkpt lat="48.70113" lon="1.6752">
        <ele>166.39999389648</ele>
        <time>2014-07-21T11:07:17.000Z</time>
      </trkpt>
      <trkpt lat="48.70107" lon="1.67514">
        <ele>165.60000610352</ele>
        <time>2014-07-21T11:07:26.000Z</time>
      </trkpt>
      <trkpt lat="48.70101" lon="1.67511">
        <ele>165.19999694824</ele>
        <time>2014-07-21T11:07:32.000Z</time>
      </trkpt>
      <trkpt lat="48.70092" lon="1.67507">
        <ele>164.60000610352</ele>
        <time>2014-07-21T11:07:38.000Z</time>
      </trkpt>
      <trkpt lat="48.70082" lon="1.67504">
        <ele>164</ele>
        <time>2014-07-21T11:07:44.000Z</time>
      </trkpt>
      <trkpt lat="48.70076" lon="1.67499">
        <ele>163.39999389648</ele>
        <time>2014-07-21T11:07:49.000Z</time>
      </trkpt>
      <trkpt lat="48.70067" lon="1.67494">
        <ele>162.80000305176</ele>
        <time>2014-07-21T11:07:55.000Z</time>
      </trkpt>
      <trkpt lat="48.70062" lon="1.6749">
        <ele>162.60000610352</ele>
        <time>2014-07-21T11:07:59.000Z</time>
      </trkpt>
      <trkpt lat="48.70053" lon="1.67486">
        <ele>162</ele>
        <time>2014-07-21T11:08:06.000Z</time>
      </trkpt>
      <trkpt lat="48.70048" lon="1.6748">
        <ele>161.60000610352</ele>
        <time>2014-07-21T11:08:10.000Z</time>
      </trkpt>
      <trkpt lat="48.70044" lon="1.67476">
        <ele>161.19999694824</ele>
        <time>2014-07-21T11:08:13.000Z</time>
      </trkpt>
      <trkpt lat="48.70034" lon="1.6747">
        <ele>160.39999389648</ele>
        <time>2014-07-21T11:08:20.000Z</time>
      </trkpt>
      <trkpt lat="48.70022" lon="1.67463">
        <ele>159.60000610352</ele>
        <time>2014-07-21T11:08:27.000Z</time>
      </trkpt>
      <trkpt lat="48.70016" lon="1.67462">
        <ele>159.19999694824</ele>
        <time>2014-07-21T11:08:31.000Z</time>
      </trkpt>
      <trkpt lat="48.7001" lon="1.67458">
        <ele>158.60000610352</ele>
        <time>2014-07-21T11:08:35.000Z</time>
      </trkpt>
      <trkpt lat="48.69995" lon="1.67451">
        <ele>157.39999389648</ele>
        <time>2014-07-21T11:08:44.000Z</time>
      </trkpt>
      <trkpt lat="48.69984" lon="1.67445">
        <ele>156.39999389648</ele>
        <time>2014-07-21T11:08:51.000Z</time>
      </trkpt>
      <trkpt lat="48.69972" lon="1.67438">
        <ele>155.39999389648</ele>
        <time>2014-07-21T11:08:58.000Z</time>
      </trkpt>
      <trkpt lat="48.69961" lon="1.67432">
        <ele>154.19999694824</ele>
        <time>2014-07-21T11:09:06.000Z</time>
      </trkpt>
      <trkpt lat="48.69953" lon="1.67427">
        <ele>153.39999389648</ele>
        <time>2014-07-21T11:09:12.000Z</time>
      </trkpt>
      <trkpt lat="48.69942" lon="1.67422">
        <ele>152.39999389648</ele>
        <time>2014-07-21T11:09:18.000Z</time>
      </trkpt>
      <trkpt lat="48.69932" lon="1.6742">
        <ele>151.60000610352</ele>
        <time>2014-07-21T11:09:24.000Z</time>
      </trkpt>
      <trkpt lat="48.69926" lon="1.67417">
        <ele>151.19999694824</ele>
        <time>2014-07-21T11:09:29.000Z</time>
      </trkpt>
      <trkpt lat="48.69924" lon="1.67416">
        <ele>151.19999694824</ele>
        <time>2014-07-21T11:09:31.000Z</time>
      </trkpt>
      <trkpt lat="48.69915" lon="1.67411">
        <ele>150.60000610352</ele>
        <time>2014-07-21T11:09:36.000Z</time>
      </trkpt>
      <trkpt lat="48.69912" lon="1.6741">
        <ele>150.39999389648</ele>
        <time>2014-07-21T11:09:38.000Z</time>
      </trkpt>
      <trkpt lat="48.69905" lon="1.67405">
        <ele>150</ele>
        <time>2014-07-21T11:09:43.000Z</time>
      </trkpt>
      <trkpt lat="48.699" lon="1.674">
        <ele>150</ele>
        <time>2014-07-21T11:09:47.000Z</time>
      </trkpt>
      <trkpt lat="48.6989" lon="1.67398">
        <ele>149.60000610352</ele>
        <time>2014-07-21T11:09:52.000Z</time>
      </trkpt>
      <trkpt lat="48.69888" lon="1.67397">
        <ele>149.39999389648</ele>
        <time>2014-07-21T11:09:53.000Z</time>
      </trkpt>
      <trkpt lat="48.69885" lon="1.67395">
        <ele>149.39999389648</ele>
        <time>2014-07-21T11:09:55.000Z</time>
      </trkpt>
      <trkpt lat="48.6988" lon="1.67394">
        <ele>149.19999694824</ele>
        <time>2014-07-21T11:09:58.000Z</time>
      </trkpt>
      <trkpt lat="48.69871" lon="1.67389">
        <ele>149</ele>
        <time>2014-07-21T11:10:04.000Z</time>
      </trkpt>
      <trkpt lat="48.69862" lon="1.67383">
        <ele>148.80000305176</ele>
        <time>2014-07-21T11:10:10.000Z</time>
      </trkpt>
      <trkpt lat="48.69851" lon="1.67377">
        <ele>148.60000610352</ele>
        <time>2014-07-21T11:10:17.000Z</time>
      </trkpt>
      <trkpt lat="48.69837" lon="1.67369">
        <ele>149.19999694824</ele>
        <time>2014-07-21T11:10:25.000Z</time>
      </trkpt>
      <trkpt lat="48.69827" lon="1.67365">
        <ele>149.60000610352</ele>
        <time>2014-07-21T11:10:31.000Z</time>
      </trkpt>
      <trkpt lat="48.6982" lon="1.67358">
        <ele>150</ele>
        <time>2014-07-21T11:10:37.000Z</time>
      </trkpt>
      <trkpt lat="48.69812" lon="1.67353">
        <ele>150.60000610352</ele>
        <time>2014-07-21T11:10:44.000Z</time>
      </trkpt>
      <trkpt lat="48.69806" lon="1.67352">
        <ele>150.60000610352</ele>
        <time>2014-07-21T11:10:48.000Z</time>
      </trkpt>
      <trkpt lat="48.69797" lon="1.67347">
        <ele>151</ele>
        <time>2014-07-21T11:10:54.000Z</time>
      </trkpt>
      <trkpt lat="48.69791" lon="1.67346">
        <ele>151.19999694824</ele>
        <time>2014-07-21T11:10:57.000Z</time>
      </trkpt>
      <trkpt lat="48.69784" lon="1.67338">
        <ele>151.80000305176</ele>
        <time>2014-07-21T11:11:03.000Z</time>
      </trkpt>
      <trkpt lat="48.69782" lon="1.67335">
        <ele>152</ele>
        <time>2014-07-21T11:11:05.000Z</time>
      </trkpt>
      <trkpt lat="48.6977" lon="1.67331">
        <ele>152.60000610352</ele>
        <time>2014-07-21T11:11:12.000Z</time>
      </trkpt>
      <trkpt lat="48.69767" lon="1.6733">
        <ele>152.60000610352</ele>
        <time>2014-07-21T11:11:14.000Z</time>
      </trkpt>
      <trkpt lat="48.69759" lon="1.67323">
        <ele>152.60000610352</ele>
        <time>2014-07-21T11:11:20.000Z</time>
      </trkpt>
      <trkpt lat="48.69752" lon="1.67318">
        <ele>152.60000610352</ele>
        <time>2014-07-21T11:11:25.000Z</time>
      </trkpt>
      <trkpt lat="48.69736" lon="1.67315">
        <ele>152.19999694824</ele>
        <time>2014-07-21T11:11:34.000Z</time>
      </trkpt>
      <trkpt lat="48.69722" lon="1.67314">
        <ele>151.80000305176</ele>
        <time>2014-07-21T11:11:41.000Z</time>
      </trkpt>
      <trkpt lat="48.69711" lon="1.67309">
        <ele>151.60000610352</ele>
        <time>2014-07-21T11:11:48.000Z</time>
      </trkpt>
      <trkpt lat="48.6971" lon="1.67308">
        <ele>151.60000610352</ele>
        <time>2014-07-21T11:11:49.000Z</time>
      </trkpt>
      <trkpt lat="48.697" lon="1.67301">
        <ele>151.39999389648</ele>
        <time>2014-07-21T11:11:56.000Z</time>
      </trkpt>
      <trkpt lat="48.69689" lon="1.67298">
        <ele>151</ele>
        <time>2014-07-21T11:12:03.000Z</time>
      </trkpt>
      <trkpt lat="48.69685" lon="1.67294">
        <ele>151</ele>
        <time>2014-07-21T11:12:07.000Z</time>
      </trkpt>
      <trkpt lat="48.69677" lon="1.67286">
        <ele>150.60000610352</ele>
        <time>2014-07-21T11:12:13.000Z</time>
      </trkpt>
      <trkpt lat="48.6967" lon="1.67285">
        <ele>150.39999389648</ele>
        <time>2014-07-21T11:12:18.000Z</time>
      </trkpt>
      <trkpt lat="48.6966" lon="1.67279">
        <ele>150</ele>
        <time>2014-07-21T11:12:24.000Z</time>
      </trkpt>
      <trkpt lat="48.69651" lon="1.67275">
        <ele>149.80000305176</ele>
        <time>2014-07-21T11:12:31.000Z</time>
      </trkpt>
      <trkpt lat="48.69642" lon="1.67268">
        <ele>149.39999389648</ele>
        <time>2014-07-21T11:12:37.000Z</time>
      </trkpt>
      <trkpt lat="48.69632" lon="1.67261">
        <ele>149</ele>
        <time>2014-07-21T11:12:44.000Z</time>
      </trkpt>
      <trkpt lat="48.69621" lon="1.67253">
        <ele>148.60000610352</ele>
        <time>2014-07-21T11:12:53.000Z</time>
      </trkpt>
      <trkpt lat="48.6961" lon="1.67254">
        <ele>148.19999694824</ele>
        <time>2014-07-21T11:13:00.000Z</time>
      </trkpt>
      <trkpt lat="48.69607" lon="1.67253">
        <ele>148.19999694824</ele>
        <time>2014-07-21T11:13:02.000Z</time>
      </trkpt>
      <trkpt lat="48.696" lon="1.67249">
        <ele>148</ele>
        <time>2014-07-21T11:13:08.000Z</time>
      </trkpt>
      <trkpt lat="48.69598" lon="1.67249">
        <ele>148</ele>
        <time>2014-07-21T11:13:09.000Z</time>
      </trkpt>
      <trkpt lat="48.69588" lon="1.67247">
        <ele>147.80000305176</ele>
        <time>2014-07-21T11:13:15.000Z</time>
      </trkpt>
      <trkpt lat="48.6958" lon="1.67243">
        <ele>147.80000305176</ele>
        <time>2014-07-21T11:13:20.000Z</time>
      </trkpt>
      <trkpt lat="48.6957" lon="1.67241">
        <ele>147.60000610352</ele>
        <time>2014-07-21T11:13:26.000Z</time>
      </trkpt>
      <trkpt lat="48.69563" lon="1.6724">
        <ele>147.60000610352</ele>
        <time>2014-07-21T11:13:31.000Z</time>
      </trkpt>
      <trkpt lat="48.69559" lon="1.67238">
        <ele>147.39999389648</ele>
        <time>2014-07-21T11:13:34.000Z</time>
      </trkpt>
      <trkpt lat="48.69554" lon="1.67239">
        <ele>147.39999389648</ele>
        <time>2014-07-21T11:13:37.000Z</time>
      </trkpt>
      <trkpt lat="48.69542" lon="1.67232">
        <ele>147.19999694824</ele>
        <time>2014-07-21T11:13:45.000Z</time>
      </trkpt>
      <trkpt lat="48.69535" lon="1.67229">
        <ele>147.19999694824</ele>
        <time>2014-07-21T11:13:50.000Z</time>
      </trkpt>
      <trkpt lat="48.69528" lon="1.67228">
        <ele>147.19999694824</ele>
        <time>2014-07-21T11:13:54.000Z</time>
      </trkpt>
      <trkpt lat="48.69528" lon="1.67235">
        <ele>147</ele>
        <time>2014-07-21T11:13:58.000Z</time>
      </trkpt>
      <trkpt lat="48.69528" lon="1.67238">
        <ele>147</ele>
        <time>2014-07-21T11:13:59.000Z</time>
      </trkpt>
      <trkpt lat="48.69537" lon="1.67261">
        <ele>147.19999694824</ele>
        <time>2014-07-21T11:14:07.000Z</time>
      </trkpt>
      <trkpt lat="48.69548" lon="1.67288">
        <ele>147.39999389648</ele>
        <time>2014-07-21T11:14:13.000Z</time>
      </trkpt>
      <trkpt lat="48.69561" lon="1.67315">
        <ele>147.39999389648</ele>
        <time>2014-07-21T11:14:19.000Z</time>
      </trkpt>
      <trkpt lat="48.69579" lon="1.67338">
        <ele>147.39999389648</ele>
        <time>2014-07-21T11:14:24.000Z</time>
      </trkpt>
      <trkpt lat="48.69582" lon="1.67343">
        <ele>147.39999389648</ele>
        <time>2014-07-21T11:14:25.000Z</time>
      </trkpt>
      <trkpt lat="48.69586" lon="1.67352">
        <ele>147.39999389648</ele>
        <time>2014-07-21T11:14:27.000Z</time>
      </trkpt>
      <trkpt lat="48.69599" lon="1.67375">
        <ele>147.19999694824</ele>
        <time>2014-07-21T11:14:32.000Z</time>
      </trkpt>
      <trkpt lat="48.69608" lon="1.674">
        <ele>147.19999694824</ele>
        <time>2014-07-21T11:14:37.000Z</time>
      </trkpt>
      <trkpt lat="48.69614" lon="1.67415">
        <ele>146.80000305176</ele>
        <time>2014-07-21T11:14:40.000Z</time>
      </trkpt>
      <trkpt lat="48.69627" lon="1.67445">
        <ele>145.80000305176</ele>
        <time>2014-07-21T11:14:46.000Z</time>
      </trkpt>
      <trkpt lat="48.69638" lon="1.67456">
        <ele>145.60000610352</ele>
        <time>2014-07-21T11:14:50.000Z</time>
      </trkpt>
      <trkpt lat="48.69655" lon="1.67477">
        <ele>145</ele>
        <time>2014-07-21T11:14:56.000Z</time>
      </trkpt>
      <trkpt lat="48.69664" lon="1.67497">
        <ele>144.80000305176</ele>
        <time>2014-07-21T11:15:01.000Z</time>
      </trkpt>
      <trkpt lat="48.69669" lon="1.67518">
        <ele>144.80000305176</ele>
        <time>2014-07-21T11:15:06.000Z</time>
      </trkpt>
      <trkpt lat="48.69676" lon="1.67547">
        <ele>144.80000305176</ele>
        <time>2014-07-21T11:15:11.000Z</time>
      </trkpt>
      <trkpt lat="48.69683" lon="1.67575">
        <ele>144.80000305176</ele>
        <time>2014-07-21T11:15:14.000Z</time>
      </trkpt>
      <trkpt lat="48.69689" lon="1.67601">
        <ele>144.80000305176</ele>
        <time>2014-07-21T11:15:17.000Z</time>
      </trkpt>
      <trkpt lat="48.6969" lon="1.67643">
        <ele>144.39999389648</ele>
        <time>2014-07-21T11:15:22.000Z</time>
      </trkpt>
      <trkpt lat="48.69693" lon="1.67667">
        <ele>144.39999389648</ele>
        <time>2014-07-21T11:15:25.000Z</time>
      </trkpt>
      <trkpt lat="48.69696" lon="1.67691">
        <ele>144.80000305176</ele>
        <time>2014-07-21T11:15:28.000Z</time>
      </trkpt>
      <trkpt lat="48.69713" lon="1.67751">
        <ele>146</ele>
        <time>2014-07-21T11:15:35.000Z</time>
      </trkpt>
      <trkpt lat="48.69714" lon="1.67758">
        <ele>146</ele>
        <time>2014-07-21T11:15:36.000Z</time>
      </trkpt>
      <trkpt lat="48.69715" lon="1.67776">
        <ele>146</ele>
        <time>2014-07-21T11:15:38.000Z</time>
      </trkpt>
      <trkpt lat="48.69719" lon="1.67809">
        <ele>146.19999694824</ele>
        <time>2014-07-21T11:15:42.000Z</time>
      </trkpt>
      <trkpt lat="48.69725" lon="1.67855">
        <ele>146.39999389648</ele>
        <time>2014-07-21T11:15:47.000Z</time>
      </trkpt>
      <trkpt lat="48.69734" lon="1.67891">
        <ele>146.80000305176</ele>
        <time>2014-07-21T11:15:52.000Z</time>
      </trkpt>
      <trkpt lat="48.69736" lon="1.67899">
        <ele>146.80000305176</ele>
        <time>2014-07-21T11:15:53.000Z</time>
      </trkpt>
      <trkpt lat="48.6974" lon="1.67942">
        <ele>147</ele>
        <time>2014-07-21T11:15:58.000Z</time>
      </trkpt>
      <trkpt lat="48.69749" lon="1.67993">
        <ele>147</ele>
        <time>2014-07-21T11:16:04.000Z</time>
      </trkpt>
      <trkpt lat="48.69753" lon="1.6803">
        <ele>146.39999389648</ele>
        <time>2014-07-21T11:16:08.000Z</time>
      </trkpt>
      <trkpt lat="48.69758" lon="1.68053">
        <ele>146</ele>
        <time>2014-07-21T11:16:11.000Z</time>
      </trkpt>
      <trkpt lat="48.6976" lon="1.68086">
        <ele>145.60000610352</ele>
        <time>2014-07-21T11:16:15.000Z</time>
      </trkpt>
      <trkpt lat="48.69759" lon="1.68139">
        <ele>145.60000610352</ele>
        <time>2014-07-21T11:16:21.000Z</time>
      </trkpt>
      <trkpt lat="48.69755" lon="1.68184">
        <ele>146</ele>
        <time>2014-07-21T11:16:25.000Z</time>
      </trkpt>
      <trkpt lat="48.69754" lon="1.68253">
        <ele>147</ele>
        <time>2014-07-21T11:16:31.000Z</time>
      </trkpt>
      <trkpt lat="48.69754" lon="1.68327">
        <ele>146.80000305176</ele>
        <time>2014-07-21T11:16:37.000Z</time>
      </trkpt>
      <trkpt lat="48.69754" lon="1.68382">
        <ele>148.19999694824</ele>
        <time>2014-07-21T11:16:42.000Z</time>
      </trkpt>
      <trkpt lat="48.69753" lon="1.68408">
        <ele>148.60000610352</ele>
        <time>2014-07-21T11:16:45.000Z</time>
      </trkpt>
      <trkpt lat="48.69752" lon="1.68422">
        <ele>148.80000305176</ele>
        <time>2014-07-21T11:16:47.000Z</time>
      </trkpt>
      <trkpt lat="48.69748" lon="1.68456">
        <ele>149</ele>
        <time>2014-07-21T11:16:52.000Z</time>
      </trkpt>
      <trkpt lat="48.69747" lon="1.68484">
        <ele>150</ele>
        <time>2014-07-21T11:16:56.000Z</time>
      </trkpt>
      <trkpt lat="48.69746" lon="1.68496">
        <ele>150</ele>
        <time>2014-07-21T11:16:58.000Z</time>
      </trkpt>
      <trkpt lat="48.69744" lon="1.68532">
        <ele>150</ele>
        <time>2014-07-21T11:17:04.000Z</time>
      </trkpt>
      <trkpt lat="48.69744" lon="1.68557">
        <ele>150.39999389648</ele>
        <time>2014-07-21T11:17:09.000Z</time>
      </trkpt>
      <trkpt lat="48.69745" lon="1.68586">
        <ele>150.19999694824</ele>
        <time>2014-07-21T11:17:15.000Z</time>
      </trkpt>
      <trkpt lat="48.69747" lon="1.68626">
        <ele>149.19999694824</ele>
        <time>2014-07-21T11:17:23.000Z</time>
      </trkpt>
      <trkpt lat="48.69749" lon="1.68652">
        <ele>148.60000610352</ele>
        <time>2014-07-21T11:17:28.000Z</time>
      </trkpt>
      <trkpt lat="48.69746" lon="1.68676">
        <ele>149.19999694824</ele>
        <time>2014-07-21T11:17:33.000Z</time>
      </trkpt>
      <trkpt lat="48.69743" lon="1.68705">
        <ele>150</ele>
        <time>2014-07-21T11:17:39.000Z</time>
      </trkpt>
      <trkpt lat="48.69742" lon="1.68729">
        <ele>150.80000305176</ele>
        <time>2014-07-21T11:17:43.000Z</time>
      </trkpt>
      <trkpt lat="48.69742" lon="1.68757">
        <ele>151</ele>
        <time>2014-07-21T11:17:48.000Z</time>
      </trkpt>
      <trkpt lat="48.69745" lon="1.68785">
        <ele>150.80000305176</ele>
        <time>2014-07-21T11:17:53.000Z</time>
      </trkpt>
      <trkpt lat="48.69746" lon="1.68806">
        <ele>151</ele>
        <time>2014-07-21T11:17:57.000Z</time>
      </trkpt>
      <trkpt lat="48.69745" lon="1.68837">
        <ele>151.39999389648</ele>
        <time>2014-07-21T11:18:03.000Z</time>
      </trkpt>
      <trkpt lat="48.69745" lon="1.68851">
        <ele>151.60000610352</ele>
        <time>2014-07-21T11:18:07.000Z</time>
      </trkpt>
      <trkpt lat="48.69748" lon="1.68871">
        <ele>151.60000610352</ele>
        <time>2014-07-21T11:18:15.000Z</time>
      </trkpt>
      <trkpt lat="48.69749" lon="1.6888">
        <ele>151.80000305176</ele>
        <time>2014-07-21T11:18:19.000Z</time>
      </trkpt>
      <trkpt lat="48.69749" lon="1.68888">
        <ele>151.80000305176</ele>
        <time>2014-07-21T11:18:23.000Z</time>
      </trkpt>
      <trkpt lat="48.69749" lon="1.689">
        <ele>151.80000305176</ele>
        <time>2014-07-21T11:18:29.000Z</time>
      </trkpt>
      <trkpt lat="48.6975" lon="1.68905">
        <ele>151.80000305176</ele>
        <time>2014-07-21T11:18:31.000Z</time>
      </trkpt>
      <trkpt lat="48.69749" lon="1.6892">
        <ele>152</ele>
        <time>2014-07-21T11:18:38.000Z</time>
      </trkpt>
      <trkpt lat="48.69748" lon="1.68924">
        <ele>152</ele>
        <time>2014-07-21T11:18:40.000Z</time>
      </trkpt>
      <trkpt lat="48.69749" lon="1.68934">
        <ele>152.19999694824</ele>
        <time>2014-07-21T11:18:44.000Z</time>
      </trkpt>
      <trkpt lat="48.69751" lon="1.68947">
        <ele>152.19999694824</ele>
        <time>2014-07-21T11:18:49.000Z</time>
      </trkpt>
      <trkpt lat="48.69753" lon="1.6896">
        <ele>152.19999694824</ele>
        <time>2014-07-21T11:18:54.000Z</time>
      </trkpt>
      <trkpt lat="48.69755" lon="1.68973">
        <ele>152.39999389648</ele>
        <time>2014-07-21T11:19:00.000Z</time>
      </trkpt>
      <trkpt lat="48.69755" lon="1.68976">
        <ele>152.39999389648</ele>
        <time>2014-07-21T11:19:01.000Z</time>
      </trkpt>
      <trkpt lat="48.69754" lon="1.68989">
        <ele>152.39999389648</ele>
        <time>2014-07-21T11:19:07.000Z</time>
      </trkpt>
      <trkpt lat="48.69756" lon="1.69009">
        <ele>153.19999694824</ele>
        <time>2014-07-21T11:19:14.000Z</time>
      </trkpt>
      <trkpt lat="48.69757" lon="1.69028">
        <ele>153.80000305176</ele>
        <time>2014-07-21T11:19:22.000Z</time>
      </trkpt>
      <trkpt lat="48.69757" lon="1.69042">
        <ele>154.39999389648</ele>
        <time>2014-07-21T11:19:28.000Z</time>
      </trkpt>
      <trkpt lat="48.69757" lon="1.69044">
        <ele>154.39999389648</ele>
        <time>2014-07-21T11:19:29.000Z</time>
      </trkpt>
      <trkpt lat="48.69754" lon="1.69067">
        <ele>155</ele>
        <time>2014-07-21T11:19:37.000Z</time>
      </trkpt>
      <trkpt lat="48.69755" lon="1.69076">
        <ele>155</ele>
        <time>2014-07-21T11:19:41.000Z</time>
      </trkpt>
      <trkpt lat="48.69755" lon="1.69079">
        <ele>155.19999694824</ele>
        <time>2014-07-21T11:19:44.000Z</time>
      </trkpt>
      <trkpt lat="48.69756" lon="1.69092">
        <ele>155.19999694824</ele>
        <time>2014-07-21T11:19:51.000Z</time>
      </trkpt>
      <trkpt lat="48.69756" lon="1.69098">
        <ele>155.39999389648</ele>
        <time>2014-07-21T11:19:55.000Z</time>
      </trkpt>
      <trkpt lat="48.69759" lon="1.69108">
        <ele>155.39999389648</ele>
        <time>2014-07-21T11:19:59.000Z</time>
      </trkpt>
      <trkpt lat="48.69761" lon="1.69121">
        <ele>155.60000610352</ele>
        <time>2014-07-21T11:20:04.000Z</time>
      </trkpt>
      <trkpt lat="48.69763" lon="1.6914">
        <ele>155.80000305176</ele>
        <time>2014-07-21T11:20:11.000Z</time>
      </trkpt>
      <trkpt lat="48.69765" lon="1.69159">
        <ele>156</ele>
        <time>2014-07-21T11:20:18.000Z</time>
      </trkpt>
      <trkpt lat="48.69766" lon="1.69166">
        <ele>156</ele>
        <time>2014-07-21T11:20:21.000Z</time>
      </trkpt>
      <trkpt lat="48.69769" lon="1.69181">
        <ele>156</ele>
        <time>2014-07-21T11:20:28.000Z</time>
      </trkpt>
      <trkpt lat="48.69772" lon="1.69193">
        <ele>156</ele>
        <time>2014-07-21T11:20:33.000Z</time>
      </trkpt>
      <trkpt lat="48.69774" lon="1.69204">
        <ele>156.19999694824</ele>
        <time>2014-07-21T11:20:38.000Z</time>
      </trkpt>
      <trkpt lat="48.69778" lon="1.69221">
        <ele>156.19999694824</ele>
        <time>2014-07-21T11:20:45.000Z</time>
      </trkpt>
      <trkpt lat="48.69778" lon="1.69224">
        <ele>156.19999694824</ele>
        <time>2014-07-21T11:20:46.000Z</time>
      </trkpt>
      <trkpt lat="48.69778" lon="1.69231">
        <ele>156.19999694824</ele>
        <time>2014-07-21T11:20:49.000Z</time>
      </trkpt>
      <trkpt lat="48.69779" lon="1.69242">
        <ele>156.19999694824</ele>
        <time>2014-07-21T11:20:55.000Z</time>
      </trkpt>
      <trkpt lat="48.69779" lon="1.69247">
        <ele>156.39999389648</ele>
        <time>2014-07-21T11:20:57.000Z</time>
      </trkpt>
      <trkpt lat="48.69779" lon="1.69251">
        <ele>156.19999694824</ele>
        <time>2014-07-21T11:20:59.000Z</time>
      </trkpt>
      <trkpt lat="48.69782" lon="1.69259">
        <ele>156.19999694824</ele>
        <time>2014-07-21T11:21:03.000Z</time>
      </trkpt>
      <trkpt lat="48.69785" lon="1.69275">
        <ele>156.19999694824</ele>
        <time>2014-07-21T11:21:11.000Z</time>
      </trkpt>
      <trkpt lat="48.69787" lon="1.69282">
        <ele>156.19999694824</ele>
        <time>2014-07-21T11:21:15.000Z</time>
      </trkpt>
      <trkpt lat="48.69789" lon="1.69294">
        <ele>156.19999694824</ele>
        <time>2014-07-21T11:21:21.000Z</time>
      </trkpt>
      <trkpt lat="48.69791" lon="1.69312">
        <ele>156</ele>
        <time>2014-07-21T11:21:29.000Z</time>
      </trkpt>
      <trkpt lat="48.69792" lon="1.69323">
        <ele>156.19999694824</ele>
        <time>2014-07-21T11:21:35.000Z</time>
      </trkpt>
      <trkpt lat="48.69794" lon="1.6933">
        <ele>156.60000610352</ele>
        <time>2014-07-21T11:21:39.000Z</time>
      </trkpt>
      <trkpt lat="48.69799" lon="1.6934">
        <ele>157.19999694824</ele>
        <time>2014-07-21T11:21:44.000Z</time>
      </trkpt>
      <trkpt lat="48.69803" lon="1.69354">
        <ele>157.80000305176</ele>
        <time>2014-07-21T11:21:51.000Z</time>
      </trkpt>
      <trkpt lat="48.69804" lon="1.69357">
        <ele>157.80000305176</ele>
        <time>2014-07-21T11:21:52.000Z</time>
      </trkpt>
      <trkpt lat="48.69805" lon="1.69363">
        <ele>157.80000305176</ele>
        <time>2014-07-21T11:21:55.000Z</time>
      </trkpt>
      <trkpt lat="48.69806" lon="1.69379">
        <ele>157.80000305176</ele>
        <time>2014-07-21T11:22:02.000Z</time>
      </trkpt>
      <trkpt lat="48.69806" lon="1.69382">
        <ele>157.80000305176</ele>
        <time>2014-07-21T11:22:03.000Z</time>
      </trkpt>
      <trkpt lat="48.69807" lon="1.69394">
        <ele>157.60000610352</ele>
        <time>2014-07-21T11:22:09.000Z</time>
      </trkpt>
      <trkpt lat="48.6981" lon="1.69408">
        <ele>158</ele>
        <time>2014-07-21T11:22:16.000Z</time>
      </trkpt>
      <trkpt lat="48.69816" lon="1.69419">
        <ele>158.80000305176</ele>
        <time>2014-07-21T11:22:22.000Z</time>
      </trkpt>
      <trkpt lat="48.69818" lon="1.69426">
        <ele>159.19999694824</ele>
        <time>2014-07-21T11:22:25.000Z</time>
      </trkpt>
      <trkpt lat="48.69819" lon="1.6944">
        <ele>159.60000610352</ele>
        <time>2014-07-21T11:22:31.000Z</time>
      </trkpt>
      <trkpt lat="48.69824" lon="1.6945">
        <ele>160.19999694824</ele>
        <time>2014-07-21T11:22:37.000Z</time>
      </trkpt>
      <trkpt lat="48.69825" lon="1.69465">
        <ele>160.60000610352</ele>
        <time>2014-07-21T11:22:44.000Z</time>
      </trkpt>
      <trkpt lat="48.69824" lon="1.69468">
        <ele>160.60000610352</ele>
        <time>2014-07-21T11:22:46.000Z</time>
      </trkpt>
      <trkpt lat="48.69823" lon="1.69483">
        <ele>160.39999389648</ele>
        <time>2014-07-21T11:22:53.000Z</time>
      </trkpt>
      <trkpt lat="48.69825" lon="1.69493">
        <ele>160.39999389648</ele>
        <time>2014-07-21T11:22:58.000Z</time>
      </trkpt>
      <trkpt lat="48.69828" lon="1.69499">
        <ele>160.80000305176</ele>
        <time>2014-07-21T11:23:02.000Z</time>
      </trkpt>
      <trkpt lat="48.69833" lon="1.69512">
        <ele>161</ele>
        <time>2014-07-21T11:23:08.000Z</time>
      </trkpt>
      <trkpt lat="48.69836" lon="1.69527">
        <ele>161</ele>
        <time>2014-07-21T11:23:13.000Z</time>
      </trkpt>
      <trkpt lat="48.69838" lon="1.69537">
        <ele>161</ele>
        <time>2014-07-21T11:23:17.000Z</time>
      </trkpt>
      <trkpt lat="48.69841" lon="1.69546">
        <ele>161</ele>
        <time>2014-07-21T11:23:21.000Z</time>
      </trkpt>
      <trkpt lat="48.69843" lon="1.69559">
        <ele>161</ele>
        <time>2014-07-21T11:23:27.000Z</time>
      </trkpt>
      <trkpt lat="48.69843" lon="1.69563">
        <ele>161.19999694824</ele>
        <time>2014-07-21T11:23:29.000Z</time>
      </trkpt>
      <trkpt lat="48.69847" lon="1.69564">
        <ele>161.39999389648</ele>
        <time>2014-07-21T11:23:33.000Z</time>
      </trkpt>
      <trkpt lat="48.6985" lon="1.69571">
        <ele>161.80000305176</ele>
        <time>2014-07-21T11:23:38.000Z</time>
      </trkpt>
      <trkpt lat="48.69854" lon="1.69583">
        <ele>161.80000305176</ele>
        <time>2014-07-21T11:23:44.000Z</time>
      </trkpt>
      <trkpt lat="48.69858" lon="1.69595">
        <ele>161.80000305176</ele>
        <time>2014-07-21T11:23:50.000Z</time>
      </trkpt>
      <trkpt lat="48.69862" lon="1.69607">
        <ele>161.80000305176</ele>
        <time>2014-07-21T11:23:55.000Z</time>
      </trkpt>
      <trkpt lat="48.6987" lon="1.69627">
        <ele>162</ele>
        <time>2014-07-21T11:24:04.000Z</time>
      </trkpt>
      <trkpt lat="48.69876" lon="1.69644">
        <ele>162</ele>
        <time>2014-07-21T11:24:12.000Z</time>
      </trkpt>
      <trkpt lat="48.69877" lon="1.69648">
        <ele>162</ele>
        <time>2014-07-21T11:24:14.000Z</time>
      </trkpt>
      <trkpt lat="48.6988" lon="1.69663">
        <ele>162.39999389648</ele>
        <time>2014-07-21T11:24:21.000Z</time>
      </trkpt>
      <trkpt lat="48.69885" lon="1.69679">
        <ele>163.39999389648</ele>
        <time>2014-07-21T11:24:29.000Z</time>
      </trkpt>
      <trkpt lat="48.69889" lon="1.69689">
        <ele>164</ele>
        <time>2014-07-21T11:24:35.000Z</time>
      </trkpt>
      <trkpt lat="48.6989" lon="1.69692">
        <ele>164.19999694824</ele>
        <time>2014-07-21T11:24:37.000Z</time>
      </trkpt>
      <trkpt lat="48.69893" lon="1.69704">
        <ele>164.80000305176</ele>
        <time>2014-07-21T11:24:44.000Z</time>
      </trkpt>
      <trkpt lat="48.69894" lon="1.69708">
        <ele>165</ele>
        <time>2014-07-21T11:24:46.000Z</time>
      </trkpt>
      <trkpt lat="48.69896" lon="1.69715">
        <ele>165.60000610352</ele>
        <time>2014-07-21T11:24:50.000Z</time>
      </trkpt>
      <trkpt lat="48.699" lon="1.69728">
        <ele>166.19999694824</ele>
        <time>2014-07-21T11:24:57.000Z</time>
      </trkpt>
      <trkpt lat="48.69902" lon="1.69731">
        <ele>166.60000610352</ele>
        <time>2014-07-21T11:24:59.000Z</time>
      </trkpt>
      <trkpt lat="48.69904" lon="1.69734">
        <ele>166.80000305176</ele>
        <time>2014-07-21T11:25:01.000Z</time>
      </trkpt>
      <trkpt lat="48.69909" lon="1.69749">
        <ele>167.80000305176</ele>
        <time>2014-07-21T11:25:07.000Z</time>
      </trkpt>
      <trkpt lat="48.69915" lon="1.69764">
        <ele>168.80000305176</ele>
        <time>2014-07-21T11:25:14.000Z</time>
      </trkpt>
      <trkpt lat="48.69918" lon="1.69775">
        <ele>169.60000610352</ele>
        <time>2014-07-21T11:25:19.000Z</time>
      </trkpt>
      <trkpt lat="48.69919" lon="1.69779">
        <ele>170</ele>
        <time>2014-07-21T11:25:22.000Z</time>
      </trkpt>
      <trkpt lat="48.69923" lon="1.69792">
        <ele>170.80000305176</ele>
        <time>2014-07-21T11:25:29.000Z</time>
      </trkpt>
      <trkpt lat="48.69927" lon="1.6981">
        <ele>172</ele>
        <time>2014-07-21T11:25:37.000Z</time>
      </trkpt>
      <trkpt lat="48.69931" lon="1.69818">
        <ele>172.60000610352</ele>
        <time>2014-07-21T11:25:43.000Z</time>
      </trkpt>
      <trkpt lat="48.69933" lon="1.6982">
        <ele>172.80000305176</ele>
        <time>2014-07-21T11:25:47.000Z</time>
      </trkpt>
      <trkpt lat="48.69934" lon="1.69829">
        <ele>173.19999694824</ele>
        <time>2014-07-21T11:25:53.000Z</time>
      </trkpt>
      <trkpt lat="48.69936" lon="1.69833">
        <ele>173.39999389648</ele>
        <time>2014-07-21T11:25:57.000Z</time>
      </trkpt>
      <trkpt lat="48.69938" lon="1.69841">
        <ele>173.80000305176</ele>
        <time>2014-07-21T11:26:01.000Z</time>
      </trkpt>
      <trkpt lat="48.6994" lon="1.69845">
        <ele>173.80000305176</ele>
        <time>2014-07-21T11:26:05.000Z</time>
      </trkpt>
      <trkpt lat="48.69945" lon="1.69857">
        <ele>174.19999694824</ele>
        <time>2014-07-21T11:26:11.000Z</time>
      </trkpt>
      <trkpt lat="48.69946" lon="1.69861">
        <ele>174.39999389648</ele>
        <time>2014-07-21T11:26:13.000Z</time>
      </trkpt>
      <trkpt lat="48.6995" lon="1.69868">
        <ele>174.60000610352</ele>
        <time>2014-07-21T11:26:18.000Z</time>
      </trkpt>
      <trkpt lat="48.69954" lon="1.69879">
        <ele>175</ele>
        <time>2014-07-21T11:26:24.000Z</time>
      </trkpt>
      <trkpt lat="48.69959" lon="1.69888">
        <ele>175.19999694824</ele>
        <time>2014-07-21T11:26:29.000Z</time>
      </trkpt>
      <trkpt lat="48.69964" lon="1.699">
        <ele>175.60000610352</ele>
        <time>2014-07-21T11:26:36.000Z</time>
      </trkpt>
      <trkpt lat="48.69969" lon="1.6991">
        <ele>175.80000305176</ele>
        <time>2014-07-21T11:26:42.000Z</time>
      </trkpt>
      <trkpt lat="48.6997" lon="1.69913">
        <ele>175.80000305176</ele>
        <time>2014-07-21T11:26:44.000Z</time>
      </trkpt>
      <trkpt lat="48.69977" lon="1.69924">
        <ele>176</ele>
        <time>2014-07-21T11:26:51.000Z</time>
      </trkpt>
      <trkpt lat="48.69981" lon="1.69929">
        <ele>176</ele>
        <time>2014-07-21T11:26:54.000Z</time>
      </trkpt>
      <trkpt lat="48.69987" lon="1.6994">
        <ele>176.19999694824</ele>
        <time>2014-07-21T11:27:01.000Z</time>
      </trkpt>
      <trkpt lat="48.69994" lon="1.6995">
        <ele>176.39999389648</ele>
        <time>2014-07-21T11:27:08.000Z</time>
      </trkpt>
      <trkpt lat="48.70002" lon="1.6996">
        <ele>176.60000610352</ele>
        <time>2014-07-21T11:27:15.000Z</time>
      </trkpt>
      <trkpt lat="48.70002" lon="1.69961">
        <ele>176.60000610352</ele>
        <time>2014-07-21T11:27:16.000Z</time>
      </trkpt>
      <trkpt lat="48.70008" lon="1.69971">
        <ele>176.80000305176</ele>
        <time>2014-07-21T11:27:22.000Z</time>
      </trkpt>
      <trkpt lat="48.7001" lon="1.69975">
        <ele>176.80000305176</ele>
        <time>2014-07-21T11:27:24.000Z</time>
      </trkpt>
      <trkpt lat="48.70017" lon="1.69988">
        <ele>177</ele>
        <time>2014-07-21T11:27:31.000Z</time>
      </trkpt>
      <trkpt lat="48.70022" lon="1.69997">
        <ele>177.19999694824</ele>
        <time>2014-07-21T11:27:37.000Z</time>
      </trkpt>
      <trkpt lat="48.70028" lon="1.70007">
        <ele>177.60000610352</ele>
        <time>2014-07-21T11:27:43.000Z</time>
      </trkpt>
      <trkpt lat="48.7003" lon="1.70011">
        <ele>177.60000610352</ele>
        <time>2014-07-21T11:27:45.000Z</time>
      </trkpt>
      <trkpt lat="48.70037" lon="1.70023">
        <ele>178</ele>
        <time>2014-07-21T11:27:52.000Z</time>
      </trkpt>
      <trkpt lat="48.70042" lon="1.70031">
        <ele>178.39999389648</ele>
        <time>2014-07-21T11:27:57.000Z</time>
      </trkpt>
      <trkpt lat="48.70048" lon="1.70041">
        <ele>178.60000610352</ele>
        <time>2014-07-21T11:28:03.000Z</time>
      </trkpt>
      <trkpt lat="48.70053" lon="1.70047">
        <ele>179</ele>
        <time>2014-07-21T11:28:07.000Z</time>
      </trkpt>
      <trkpt lat="48.70061" lon="1.7006">
        <ele>179.39999389648</ele>
        <time>2014-07-21T11:28:14.000Z</time>
      </trkpt>
      <trkpt lat="48.70068" lon="1.7007">
        <ele>179.80000305176</ele>
        <time>2014-07-21T11:28:20.000Z</time>
      </trkpt>
      <trkpt lat="48.70074" lon="1.70076">
        <ele>179.80000305176</ele>
        <time>2014-07-21T11:28:25.000Z</time>
      </trkpt>
      <trkpt lat="48.70079" lon="1.70081">
        <ele>179.80000305176</ele>
        <time>2014-07-21T11:28:28.000Z</time>
      </trkpt>
      <trkpt lat="48.70088" lon="1.70091">
        <ele>179.60000610352</ele>
        <time>2014-07-21T11:28:36.000Z</time>
      </trkpt>
      <trkpt lat="48.70094" lon="1.70099">
        <ele>179.60000610352</ele>
        <time>2014-07-21T11:28:42.000Z</time>
      </trkpt>
      <trkpt lat="48.70098" lon="1.70109">
        <ele>179.39999389648</ele>
        <time>2014-07-21T11:28:46.000Z</time>
      </trkpt>
      <trkpt lat="48.70103" lon="1.70122">
        <ele>179.19999694824</ele>
        <time>2014-07-21T11:28:53.000Z</time>
      </trkpt>
      <trkpt lat="48.70105" lon="1.70126">
        <ele>179</ele>
        <time>2014-07-21T11:28:55.000Z</time>
      </trkpt>
      <trkpt lat="48.70111" lon="1.70138">
        <ele>178.60000610352</ele>
        <time>2014-07-21T11:29:01.000Z</time>
      </trkpt>
      <trkpt lat="48.70116" lon="1.70145">
        <ele>178.39999389648</ele>
        <time>2014-07-21T11:29:06.000Z</time>
      </trkpt>
      <trkpt lat="48.70122" lon="1.70159">
        <ele>178</ele>
        <time>2014-07-21T11:29:14.000Z</time>
      </trkpt>
      <trkpt lat="48.70125" lon="1.70166">
        <ele>178</ele>
        <time>2014-07-21T11:29:18.000Z</time>
      </trkpt>
      <trkpt lat="48.7013" lon="1.70176">
        <ele>177.80000305176</ele>
        <time>2014-07-21T11:29:24.000Z</time>
      </trkpt>
      <trkpt lat="48.70136" lon="1.70187">
        <ele>177.60000610352</ele>
        <time>2014-07-21T11:29:30.000Z</time>
      </trkpt>
      <trkpt lat="48.70139" lon="1.70201">
        <ele>177.19999694824</ele>
        <time>2014-07-21T11:29:37.000Z</time>
      </trkpt>
      <trkpt lat="48.70142" lon="1.70207">
        <ele>177.19999694824</ele>
        <time>2014-07-21T11:29:40.000Z</time>
      </trkpt>
      <trkpt lat="48.70147" lon="1.7022">
        <ele>177</ele>
        <time>2014-07-21T11:29:46.000Z</time>
      </trkpt>
      <trkpt lat="48.70152" lon="1.70231">
        <ele>176.80000305176</ele>
        <time>2014-07-21T11:29:52.000Z</time>
      </trkpt>
      <trkpt lat="48.70153" lon="1.70233">
        <ele>176.60000610352</ele>
        <time>2014-07-21T11:29:53.000Z</time>
      </trkpt>
      <trkpt lat="48.70156" lon="1.70249">
        <ele>176.80000305176</ele>
        <time>2014-07-21T11:30:00.000Z</time>
      </trkpt>
      <trkpt lat="48.70161" lon="1.70259">
        <ele>177</ele>
        <time>2014-07-21T11:30:05.000Z</time>
      </trkpt>
      <trkpt lat="48.70165" lon="1.7027">
        <ele>177.19999694824</ele>
        <time>2014-07-21T11:30:11.000Z</time>
      </trkpt>
      <trkpt lat="48.7017" lon="1.70281">
        <ele>177.39999389648</ele>
        <time>2014-07-21T11:30:17.000Z</time>
      </trkpt>
      <trkpt lat="48.70172" lon="1.70292">
        <ele>177.39999389648</ele>
        <time>2014-07-21T11:30:23.000Z</time>
      </trkpt>
      <trkpt lat="48.70176" lon="1.70303">
        <ele>177.60000610352</ele>
        <time>2014-07-21T11:30:28.000Z</time>
      </trkpt>
      <trkpt lat="48.70176" lon="1.70305">
        <ele>177.60000610352</ele>
        <time>2014-07-21T11:30:29.000Z</time>
      </trkpt>
      <trkpt lat="48.7018" lon="1.7032">
        <ele>177.80000305176</ele>
        <time>2014-07-21T11:30:36.000Z</time>
      </trkpt>
      <trkpt lat="48.7018" lon="1.70324">
        <ele>177.80000305176</ele>
        <time>2014-07-21T11:30:38.000Z</time>
      </trkpt>
      <trkpt lat="48.70184" lon="1.70338">
        <ele>178.19999694824</ele>
        <time>2014-07-21T11:30:44.000Z</time>
      </trkpt>
      <trkpt lat="48.70189" lon="1.70352">
        <ele>178.60000610352</ele>
        <time>2014-07-21T11:30:50.000Z</time>
      </trkpt>
      <trkpt lat="48.70193" lon="1.70361">
        <ele>178.80000305176</ele>
        <time>2014-07-21T11:30:55.000Z</time>
      </trkpt>
      <trkpt lat="48.70196" lon="1.70374">
        <ele>179.19999694824</ele>
        <time>2014-07-21T11:31:01.000Z</time>
      </trkpt>
      <trkpt lat="48.70199" lon="1.70377">
        <ele>179.39999389648</ele>
        <time>2014-07-21T11:31:03.000Z</time>
      </trkpt>
      <trkpt lat="48.70205" lon="1.7039">
        <ele>180</ele>
        <time>2014-07-21T11:31:09.000Z</time>
      </trkpt>
      <trkpt lat="48.70209" lon="1.70396">
        <ele>180.19999694824</ele>
        <time>2014-07-21T11:31:12.000Z</time>
      </trkpt>
      <trkpt lat="48.70213" lon="1.7041">
        <ele>180.39999389648</ele>
        <time>2014-07-21T11:31:20.000Z</time>
      </trkpt>
      <trkpt lat="48.70213" lon="1.70411">
        <ele>180.39999389648</ele>
        <time>2014-07-21T11:31:21.000Z</time>
      </trkpt>
      <trkpt lat="48.70211" lon="1.70409">
        <ele>180.19999694824</ele>
        <time>2014-07-21T11:31:28.000Z</time>
      </trkpt>
      <trkpt lat="48.70209" lon="1.70406">
        <ele>180.19999694824</ele>
        <time>2014-07-21T11:31:30.000Z</time>
      </trkpt>
      <trkpt lat="48.70202" lon="1.70397">
        <ele>179.80000305176</ele>
        <time>2014-07-21T11:31:36.000Z</time>
      </trkpt>
      <trkpt lat="48.70194" lon="1.70408">
        <ele>179.39999389648</ele>
        <time>2014-07-21T11:31:42.000Z</time>
      </trkpt>
      <trkpt lat="48.7019" lon="1.70419">
        <ele>179</ele>
        <time>2014-07-21T11:31:47.000Z</time>
      </trkpt>
      <trkpt lat="48.70188" lon="1.70436">
        <ele>178.60000610352</ele>
        <time>2014-07-21T11:31:54.000Z</time>
      </trkpt>
      <trkpt lat="48.70186" lon="1.70451">
        <ele>178.39999389648</ele>
        <time>2014-07-21T11:32:00.000Z</time>
      </trkpt>
      <trkpt lat="48.70185" lon="1.70468">
        <ele>178.19999694824</ele>
        <time>2014-07-21T11:32:07.000Z</time>
      </trkpt>
      <trkpt lat="48.7018" lon="1.70485">
        <ele>177.80000305176</ele>
        <time>2014-07-21T11:32:14.000Z</time>
      </trkpt>
      <trkpt lat="48.70178" lon="1.70501">
        <ele>177.60000610352</ele>
        <time>2014-07-21T11:32:21.000Z</time>
      </trkpt>
      <trkpt lat="48.70173" lon="1.70512">
        <ele>177.39999389648</ele>
        <time>2014-07-21T11:32:26.000Z</time>
      </trkpt>
      <trkpt lat="48.70166" lon="1.7053">
        <ele>177</ele>
        <time>2014-07-21T11:32:34.000Z</time>
      </trkpt>
      <trkpt lat="48.70159" lon="1.70547">
        <ele>176.80000305176</ele>
        <time>2014-07-21T11:32:42.000Z</time>
      </trkpt>
      <trkpt lat="48.70155" lon="1.7056">
        <ele>176.80000305176</ele>
        <time>2014-07-21T11:32:48.000Z</time>
      </trkpt>
      <trkpt lat="48.7015" lon="1.70577">
        <ele>177</ele>
        <time>2014-07-21T11:32:56.000Z</time>
      </trkpt>
      <trkpt lat="48.70145" lon="1.70594">
        <ele>177.19999694824</ele>
        <time>2014-07-21T11:33:04.000Z</time>
      </trkpt>
      <trkpt lat="48.70143" lon="1.70603">
        <ele>177.39999389648</ele>
        <time>2014-07-21T11:33:09.000Z</time>
      </trkpt>
      <trkpt lat="48.70137" lon="1.70611">
        <ele>177.39999389648</ele>
        <time>2014-07-21T11:33:15.000Z</time>
      </trkpt>
      <trkpt lat="48.70133" lon="1.70628">
        <ele>177.39999389648</ele>
        <time>2014-07-21T11:33:23.000Z</time>
      </trkpt>
      <trkpt lat="48.7013" lon="1.70645">
        <ele>177.39999389648</ele>
        <time>2014-07-21T11:33:31.000Z</time>
      </trkpt>
      <trkpt lat="48.70126" lon="1.70659">
        <ele>177.39999389648</ele>
        <time>2014-07-21T11:33:37.000Z</time>
      </trkpt>
      <trkpt lat="48.70124" lon="1.70664">
        <ele>177.60000610352</ele>
        <time>2014-07-21T11:33:40.000Z</time>
      </trkpt>
      <trkpt lat="48.70122" lon="1.70672">
        <ele>178</ele>
        <time>2014-07-21T11:33:44.000Z</time>
      </trkpt>
      <trkpt lat="48.70117" lon="1.70687">
        <ele>178</ele>
        <time>2014-07-21T11:33:51.000Z</time>
      </trkpt>
      <trkpt lat="48.70113" lon="1.70705">
        <ele>178</ele>
        <time>2014-07-21T11:34:00.000Z</time>
      </trkpt>
      <trkpt lat="48.70109" lon="1.70717">
        <ele>178</ele>
        <time>2014-07-21T11:34:06.000Z</time>
      </trkpt>
      <trkpt lat="48.70105" lon="1.7073">
        <ele>178</ele>
        <time>2014-07-21T11:34:13.000Z</time>
      </trkpt>
      <trkpt lat="48.70102" lon="1.70738">
        <ele>178</ele>
        <time>2014-07-21T11:34:18.000Z</time>
      </trkpt>
      <trkpt lat="48.70098" lon="1.7075">
        <ele>177.80000305176</ele>
        <time>2014-07-21T11:34:24.000Z</time>
      </trkpt>
      <trkpt lat="48.70098" lon="1.70752">
        <ele>177.80000305176</ele>
        <time>2014-07-21T11:34:25.000Z</time>
      </trkpt>
      <trkpt lat="48.70096" lon="1.70764">
        <ele>177.80000305176</ele>
        <time>2014-07-21T11:34:31.000Z</time>
      </trkpt>
      <trkpt lat="48.7009" lon="1.70783">
        <ele>177.60000610352</ele>
        <time>2014-07-21T11:34:40.000Z</time>
      </trkpt>
      <trkpt lat="48.70089" lon="1.70789">
        <ele>177.39999389648</ele>
        <time>2014-07-21T11:34:43.000Z</time>
      </trkpt>
      <trkpt lat="48.70084" lon="1.70802">
        <ele>177.39999389648</ele>
        <time>2014-07-21T11:34:49.000Z</time>
      </trkpt>
      <trkpt lat="48.70083" lon="1.70806">
        <ele>177.39999389648</ele>
        <time>2014-07-21T11:34:51.000Z</time>
      </trkpt>
      <trkpt lat="48.70081" lon="1.70816">
        <ele>177.80000305176</ele>
        <time>2014-07-21T11:34:56.000Z</time>
      </trkpt>
      <trkpt lat="48.70079" lon="1.70824">
        <ele>178</ele>
        <time>2014-07-21T11:35:00.000Z</time>
      </trkpt>
      <trkpt lat="48.70075" lon="1.7084">
        <ele>177.60000610352</ele>
        <time>2014-07-21T11:35:08.000Z</time>
      </trkpt>
      <trkpt lat="48.70073" lon="1.70847">
        <ele>177.39999389648</ele>
        <time>2014-07-21T11:35:12.000Z</time>
      </trkpt>
      <trkpt lat="48.70067" lon="1.70859">
        <ele>177</ele>
        <time>2014-07-21T11:35:18.000Z</time>
      </trkpt>
      <trkpt lat="48.70066" lon="1.70865">
        <ele>177</ele>
        <time>2014-07-21T11:35:21.000Z</time>
      </trkpt>
      <trkpt lat="48.70065" lon="1.7088">
        <ele>177</ele>
        <time>2014-07-21T11:35:27.000Z</time>
      </trkpt>
      <trkpt lat="48.70059" lon="1.70892">
        <ele>177.39999389648</ele>
        <time>2014-07-21T11:35:33.000Z</time>
      </trkpt>
      <trkpt lat="48.70058" lon="1.70898">
        <ele>177.60000610352</ele>
        <time>2014-07-21T11:35:36.000Z</time>
      </trkpt>
      <trkpt lat="48.70051" lon="1.70918">
        <ele>177.80000305176</ele>
        <time>2014-07-21T11:35:46.000Z</time>
      </trkpt>
      <trkpt lat="48.70049" lon="1.70925">
        <ele>178</ele>
        <time>2014-07-21T11:35:49.000Z</time>
      </trkpt>
      <trkpt lat="48.70045" lon="1.70936">
        <ele>177.80000305176</ele>
        <time>2014-07-21T11:35:55.000Z</time>
      </trkpt>
      <trkpt lat="48.7004" lon="1.70954">
        <ele>177.19999694824</ele>
        <time>2014-07-21T11:36:03.000Z</time>
      </trkpt>
      <trkpt lat="48.70038" lon="1.70966">
        <ele>176.80000305176</ele>
        <time>2014-07-21T11:36:09.000Z</time>
      </trkpt>
      <trkpt lat="48.70031" lon="1.70983">
        <ele>176.19999694824</ele>
        <time>2014-07-21T11:36:16.000Z</time>
      </trkpt>
      <trkpt lat="48.70027" lon="1.70998">
        <ele>176.19999694824</ele>
        <time>2014-07-21T11:36:22.000Z</time>
      </trkpt>
      <trkpt lat="48.70026" lon="1.71012">
        <ele>176.19999694824</ele>
        <time>2014-07-21T11:36:28.000Z</time>
      </trkpt>
      <trkpt lat="48.70023" lon="1.71022">
        <ele>176</ele>
        <time>2014-07-21T11:36:33.000Z</time>
      </trkpt>
      <trkpt lat="48.70015" lon="1.7104">
        <ele>176</ele>
        <time>2014-07-21T11:36:40.000Z</time>
      </trkpt>
      <trkpt lat="48.70012" lon="1.71048">
        <ele>176</ele>
        <time>2014-07-21T11:36:45.000Z</time>
      </trkpt>
      <trkpt lat="48.7001" lon="1.71057">
        <ele>175.80000305176</ele>
        <time>2014-07-21T11:36:48.000Z</time>
      </trkpt>
      <trkpt lat="48.70006" lon="1.71068">
        <ele>175.60000610352</ele>
        <time>2014-07-21T11:36:54.000Z</time>
      </trkpt>
      <trkpt lat="48.70004" lon="1.71073">
        <ele>175.39999389648</ele>
        <time>2014-07-21T11:36:56.000Z</time>
      </trkpt>
      <trkpt lat="48.69998" lon="1.71092">
        <ele>175.19999694824</ele>
        <time>2014-07-21T11:37:04.000Z</time>
      </trkpt>
      <trkpt lat="48.69995" lon="1.711">
        <ele>175.19999694824</ele>
        <time>2014-07-21T11:37:08.000Z</time>
      </trkpt>
      <trkpt lat="48.69993" lon="1.71118">
        <ele>175</ele>
        <time>2014-07-21T11:37:16.000Z</time>
      </trkpt>
      <trkpt lat="48.69992" lon="1.71133">
        <ele>175.19999694824</ele>
        <time>2014-07-21T11:37:22.000Z</time>
      </trkpt>
      <trkpt lat="48.69981" lon="1.71151">
        <ele>175.39999389648</ele>
        <time>2014-07-21T11:37:29.000Z</time>
      </trkpt>
      <trkpt lat="48.69978" lon="1.71155">
        <ele>175.39999389648</ele>
        <time>2014-07-21T11:37:31.000Z</time>
      </trkpt>
      <trkpt lat="48.69974" lon="1.71168">
        <ele>175.19999694824</ele>
        <time>2014-07-21T11:37:38.000Z</time>
      </trkpt>
      <trkpt lat="48.6997" lon="1.71178">
        <ele>174.80000305176</ele>
        <time>2014-07-21T11:37:43.000Z</time>
      </trkpt>
      <trkpt lat="48.69968" lon="1.7119">
        <ele>174.60000610352</ele>
        <time>2014-07-21T11:37:49.000Z</time>
      </trkpt>
      <trkpt lat="48.69967" lon="1.71192">
        <ele>174.60000610352</ele>
        <time>2014-07-21T11:37:50.000Z</time>
      </trkpt>
      <trkpt lat="48.69964" lon="1.71212">
        <ele>174.39999389648</ele>
        <time>2014-07-21T11:37:59.000Z</time>
      </trkpt>
      <trkpt lat="48.69961" lon="1.71223">
        <ele>174.19999694824</ele>
        <time>2014-07-21T11:38:05.000Z</time>
      </trkpt>
      <trkpt lat="48.69956" lon="1.71239">
        <ele>174</ele>
        <time>2014-07-21T11:38:12.000Z</time>
      </trkpt>
      <trkpt lat="48.69956" lon="1.71251">
        <ele>174</ele>
        <time>2014-07-21T11:38:18.000Z</time>
      </trkpt>
      <trkpt lat="48.69955" lon="1.71261">
        <ele>174</ele>
        <time>2014-07-21T11:38:22.000Z</time>
      </trkpt>
      <trkpt lat="48.69953" lon="1.71267">
        <ele>174</ele>
        <time>2014-07-21T11:38:28.000Z</time>
      </trkpt>
      <trkpt lat="48.69949" lon="1.71277">
        <ele>174</ele>
        <time>2014-07-21T11:38:36.000Z</time>
      </trkpt>
      <trkpt lat="48.69946" lon="1.71282">
        <ele>174</ele>
        <time>2014-07-21T11:38:38.000Z</time>
      </trkpt>
      <trkpt lat="48.69945" lon="1.71286">
        <ele>174</ele>
        <time>2014-07-21T11:38:41.000Z</time>
      </trkpt>
      <trkpt lat="48.69943" lon="1.71296">
        <ele>174</ele>
        <time>2014-07-21T11:38:47.000Z</time>
      </trkpt>
      <trkpt lat="48.69941" lon="1.713">
        <ele>174</ele>
        <time>2014-07-21T11:38:49.000Z</time>
      </trkpt>
      <trkpt lat="48.69938" lon="1.71312">
        <ele>174</ele>
        <time>2014-07-21T11:38:54.000Z</time>
      </trkpt>
      <trkpt lat="48.69936" lon="1.71326">
        <ele>173.80000305176</ele>
        <time>2014-07-21T11:39:01.000Z</time>
      </trkpt>
      <trkpt lat="48.69932" lon="1.71335">
        <ele>173.39999389648</ele>
        <time>2014-07-21T11:39:05.000Z</time>
      </trkpt>
      <trkpt lat="48.6993" lon="1.7135">
        <ele>173</ele>
        <time>2014-07-21T11:39:12.000Z</time>
      </trkpt>
      <trkpt lat="48.69925" lon="1.7136">
        <ele>172.60000610352</ele>
        <time>2014-07-21T11:39:17.000Z</time>
      </trkpt>
      <trkpt lat="48.6992" lon="1.71375">
        <ele>172</ele>
        <time>2014-07-21T11:39:25.000Z</time>
      </trkpt>
      <trkpt lat="48.69917" lon="1.71389">
        <ele>171.60000610352</ele>
        <time>2014-07-21T11:39:32.000Z</time>
      </trkpt>
      <trkpt lat="48.69917" lon="1.71393">
        <ele>171.60000610352</ele>
        <time>2014-07-21T11:39:34.000Z</time>
      </trkpt>
      <trkpt lat="48.69914" lon="1.714">
        <ele>171.60000610352</ele>
        <time>2014-07-21T11:39:38.000Z</time>
      </trkpt>
      <trkpt lat="48.69912" lon="1.7141">
        <ele>171.60000610352</ele>
        <time>2014-07-21T11:39:42.000Z</time>
      </trkpt>
      <trkpt lat="48.69907" lon="1.71424">
        <ele>171.80000305176</ele>
        <time>2014-07-21T11:39:48.000Z</time>
      </trkpt>
      <trkpt lat="48.69906" lon="1.71429">
        <ele>171.80000305176</ele>
        <time>2014-07-21T11:39:51.000Z</time>
      </trkpt>
      <trkpt lat="48.69907" lon="1.71438">
        <ele>171.80000305176</ele>
        <time>2014-07-21T11:39:57.000Z</time>
      </trkpt>
      <trkpt lat="48.699" lon="1.7145">
        <ele>171.80000305176</ele>
        <time>2014-07-21T11:40:02.000Z</time>
      </trkpt>
      <trkpt lat="48.69894" lon="1.71456">
        <ele>172</ele>
        <time>2014-07-21T11:40:06.000Z</time>
      </trkpt>
      <trkpt lat="48.6989" lon="1.71469">
        <ele>172.19999694824</ele>
        <time>2014-07-21T11:40:13.000Z</time>
      </trkpt>
      <trkpt lat="48.6989" lon="1.71471">
        <ele>172.19999694824</ele>
        <time>2014-07-21T11:40:14.000Z</time>
      </trkpt>
      <trkpt lat="48.69885" lon="1.7149">
        <ele>172.39999389648</ele>
        <time>2014-07-21T11:40:22.000Z</time>
      </trkpt>
      <trkpt lat="48.69884" lon="1.71498">
        <ele>172.60000610352</ele>
        <time>2014-07-21T11:40:26.000Z</time>
      </trkpt>
      <trkpt lat="48.69881" lon="1.7151">
        <ele>172.80000305176</ele>
        <time>2014-07-21T11:40:32.000Z</time>
      </trkpt>
      <trkpt lat="48.69877" lon="1.71527">
        <ele>173</ele>
        <time>2014-07-21T11:40:39.000Z</time>
      </trkpt>
      <trkpt lat="48.69873" lon="1.7153">
        <ele>173</ele>
        <time>2014-07-21T11:40:42.000Z</time>
      </trkpt>
      <trkpt lat="48.69867" lon="1.71546">
        <ele>173</ele>
        <time>2014-07-21T11:40:49.000Z</time>
      </trkpt>
      <trkpt lat="48.69864" lon="1.7156">
        <ele>173</ele>
        <time>2014-07-21T11:40:55.000Z</time>
      </trkpt>
      <trkpt lat="48.69861" lon="1.71567">
        <ele>173</ele>
        <time>2014-07-21T11:40:59.000Z</time>
      </trkpt>
      <trkpt lat="48.6986" lon="1.71571">
        <ele>173</ele>
        <time>2014-07-21T11:41:01.000Z</time>
      </trkpt>
      <trkpt lat="48.69857" lon="1.71576">
        <ele>173</ele>
        <time>2014-07-21T11:41:03.000Z</time>
      </trkpt>
      <trkpt lat="48.69858" lon="1.7159">
        <ele>172.80000305176</ele>
        <time>2014-07-21T11:41:09.000Z</time>
      </trkpt>
      <trkpt lat="48.69856" lon="1.71603">
        <ele>173</ele>
        <time>2014-07-21T11:41:15.000Z</time>
      </trkpt>
      <trkpt lat="48.69855" lon="1.71605">
        <ele>173</ele>
        <time>2014-07-21T11:41:16.000Z</time>
      </trkpt>
      <trkpt lat="48.69853" lon="1.71608">
        <ele>173</ele>
        <time>2014-07-21T11:41:18.000Z</time>
      </trkpt>
      <trkpt lat="48.6985" lon="1.71624">
        <ele>173</ele>
        <time>2014-07-21T11:41:25.000Z</time>
      </trkpt>
      <trkpt lat="48.69847" lon="1.71631">
        <ele>173</ele>
        <time>2014-07-21T11:41:28.000Z</time>
      </trkpt>
      <trkpt lat="48.69845" lon="1.71643">
        <ele>173.19999694824</ele>
        <time>2014-07-21T11:41:34.000Z</time>
      </trkpt>
      <trkpt lat="48.69839" lon="1.71657">
        <ele>173.39999389648</ele>
        <time>2014-07-21T11:41:40.000Z</time>
      </trkpt>
      <trkpt lat="48.69835" lon="1.71672">
        <ele>173.19999694824</ele>
        <time>2014-07-21T11:41:48.000Z</time>
      </trkpt>
      <trkpt lat="48.69834" lon="1.71688">
        <ele>173</ele>
        <time>2014-07-21T11:41:55.000Z</time>
      </trkpt>
      <trkpt lat="48.6983" lon="1.71701">
        <ele>173</ele>
        <time>2014-07-21T11:42:01.000Z</time>
      </trkpt>
      <trkpt lat="48.69826" lon="1.71717">
        <ele>172.80000305176</ele>
        <time>2014-07-21T11:42:08.000Z</time>
      </trkpt>
      <trkpt lat="48.69827" lon="1.71722">
        <ele>172.80000305176</ele>
        <time>2014-07-21T11:42:11.000Z</time>
      </trkpt>
      <trkpt lat="48.6983" lon="1.71726">
        <ele>172.60000610352</ele>
        <time>2014-07-21T11:42:15.000Z</time>
      </trkpt>
      <trkpt lat="48.69841" lon="1.7173">
        <ele>172.39999389648</ele>
        <time>2014-07-21T11:42:22.000Z</time>
      </trkpt>
      <trkpt lat="48.69849" lon="1.71738">
        <ele>172</ele>
        <time>2014-07-21T11:42:28.000Z</time>
      </trkpt>
      <trkpt lat="48.69856" lon="1.71745">
        <ele>171.80000305176</ele>
        <time>2014-07-21T11:42:34.000Z</time>
      </trkpt>
      <trkpt lat="48.69861" lon="1.7175">
        <ele>171.80000305176</ele>
        <time>2014-07-21T11:42:37.000Z</time>
      </trkpt>
      <trkpt lat="48.69867" lon="1.71758">
        <ele>171.60000610352</ele>
        <time>2014-07-21T11:42:43.000Z</time>
      </trkpt>
      <trkpt lat="48.69874" lon="1.71767">
        <ele>171.39999389648</ele>
        <time>2014-07-21T11:42:49.000Z</time>
      </trkpt>
      <trkpt lat="48.69883" lon="1.71775">
        <ele>171.19999694824</ele>
        <time>2014-07-21T11:42:55.000Z</time>
      </trkpt>
      <trkpt lat="48.69892" lon="1.71785">
        <ele>171</ele>
        <time>2014-07-21T11:43:01.000Z</time>
      </trkpt>
      <trkpt lat="48.69902" lon="1.71794">
        <ele>170.80000305176</ele>
        <time>2014-07-21T11:43:05.000Z</time>
      </trkpt>
      <trkpt lat="48.69919" lon="1.7181">
        <ele>170.39999389648</ele>
        <time>2014-07-21T11:43:11.000Z</time>
      </trkpt>
      <trkpt lat="48.69936" lon="1.71826">
        <ele>170</ele>
        <time>2014-07-21T11:43:17.000Z</time>
      </trkpt>
      <trkpt lat="48.6995" lon="1.71845">
        <ele>170.39999389648</ele>
        <time>2014-07-21T11:43:22.000Z</time>
      </trkpt>
      <trkpt lat="48.69965" lon="1.71858">
        <ele>170.60000610352</ele>
        <time>2014-07-21T11:43:27.000Z</time>
      </trkpt>
      <trkpt lat="48.69978" lon="1.71874">
        <ele>171</ele>
        <time>2014-07-21T11:43:32.000Z</time>
      </trkpt>
      <trkpt lat="48.69986" lon="1.71883">
        <ele>171.19999694824</ele>
        <time>2014-07-21T11:43:37.000Z</time>
      </trkpt>
      <trkpt lat="48.69993" lon="1.7189">
        <ele>171.39999389648</ele>
        <time>2014-07-21T11:43:43.000Z</time>
      </trkpt>
      <trkpt lat="48.69996" lon="1.71891">
        <ele>171.39999389648</ele>
        <time>2014-07-21T11:43:45.000Z</time>
      </trkpt>
      <trkpt lat="48.70003" lon="1.71897">
        <ele>171.60000610352</ele>
        <time>2014-07-21T11:43:49.000Z</time>
      </trkpt>
      <trkpt lat="48.70024" lon="1.71919">
        <ele>172</ele>
        <time>2014-07-21T11:43:56.000Z</time>
      </trkpt>
      <trkpt lat="48.70044" lon="1.71941">
        <ele>171.80000305176</ele>
        <time>2014-07-21T11:44:02.000Z</time>
      </trkpt>
      <trkpt lat="48.70067" lon="1.71961">
        <ele>171.39999389648</ele>
        <time>2014-07-21T11:44:09.000Z</time>
      </trkpt>
      <trkpt lat="48.7009" lon="1.71982">
        <ele>171.19999694824</ele>
        <time>2014-07-21T11:44:16.000Z</time>
      </trkpt>
      <trkpt lat="48.70108" lon="1.72001">
        <ele>171.19999694824</ele>
        <time>2014-07-21T11:44:22.000Z</time>
      </trkpt>
      <trkpt lat="48.70118" lon="1.72014">
        <ele>171.60000610352</ele>
        <time>2014-07-21T11:44:26.000Z</time>
      </trkpt>
      <trkpt lat="48.70132" lon="1.72029">
        <ele>172.19999694824</ele>
        <time>2014-07-21T11:44:30.000Z</time>
      </trkpt>
      <trkpt lat="48.70147" lon="1.72044">
        <ele>172.80000305176</ele>
        <time>2014-07-21T11:44:34.000Z</time>
      </trkpt>
      <trkpt lat="48.70156" lon="1.72054">
        <ele>173</ele>
        <time>2014-07-21T11:44:37.000Z</time>
      </trkpt>
      <trkpt lat="48.70182" lon="1.72078">
        <ele>174</ele>
        <time>2014-07-21T11:44:44.000Z</time>
      </trkpt>
      <trkpt lat="48.70189" lon="1.72084">
        <ele>174.39999389648</ele>
        <time>2014-07-21T11:44:46.000Z</time>
      </trkpt>
      <trkpt lat="48.70201" lon="1.72096">
        <ele>175.80000305176</ele>
        <time>2014-07-21T11:44:50.000Z</time>
      </trkpt>
      <trkpt lat="48.70216" lon="1.72108">
        <ele>177.60000610352</ele>
        <time>2014-07-21T11:44:55.000Z</time>
      </trkpt>
      <trkpt lat="48.70229" lon="1.72122">
        <ele>179.19999694824</ele>
        <time>2014-07-21T11:45:00.000Z</time>
      </trkpt>
      <trkpt lat="48.70241" lon="1.72135">
        <ele>180.60000610352</ele>
        <time>2014-07-21T11:45:05.000Z</time>
      </trkpt>
      <trkpt lat="48.70256" lon="1.72149">
        <ele>182.39999389648</ele>
        <time>2014-07-21T11:45:10.000Z</time>
      </trkpt>
      <trkpt lat="48.70268" lon="1.72161">
        <ele>183.80000305176</ele>
        <time>2014-07-21T11:45:14.000Z</time>
      </trkpt>
      <trkpt lat="48.70271" lon="1.72165">
        <ele>184.19999694824</ele>
        <time>2014-07-21T11:45:15.000Z</time>
      </trkpt>
      <trkpt lat="48.70277" lon="1.72183">
        <ele>184.39999389648</ele>
        <time>2014-07-21T11:45:19.000Z</time>
      </trkpt>
      <trkpt lat="48.70275" lon="1.7222">
        <ele>184.80000305176</ele>
        <time>2014-07-21T11:45:25.000Z</time>
      </trkpt>
      <trkpt lat="48.70271" lon="1.72238">
        <ele>185</ele>
        <time>2014-07-21T11:45:29.000Z</time>
      </trkpt>
      <trkpt lat="48.70269" lon="1.72263">
        <ele>185</ele>
        <time>2014-07-21T11:45:34.000Z</time>
      </trkpt>
      <trkpt lat="48.70262" lon="1.7229">
        <ele>184.39999389648</ele>
        <time>2014-07-21T11:45:39.000Z</time>
      </trkpt>
      <trkpt lat="48.70258" lon="1.72311">
        <ele>184.19999694824</ele>
        <time>2014-07-21T11:45:43.000Z</time>
      </trkpt>
      <trkpt lat="48.70249" lon="1.72335">
        <ele>184</ele>
        <time>2014-07-21T11:45:47.000Z</time>
      </trkpt>
      <trkpt lat="48.70243" lon="1.72353">
        <ele>183.19999694824</ele>
        <time>2014-07-21T11:45:50.000Z</time>
      </trkpt>
      <trkpt lat="48.70237" lon="1.72387">
        <ele>183</ele>
        <time>2014-07-21T11:45:57.000Z</time>
      </trkpt>
      <trkpt lat="48.70234" lon="1.72396">
        <ele>183.39999389648</ele>
        <time>2014-07-21T11:45:59.000Z</time>
      </trkpt>
      <trkpt lat="48.70227" lon="1.72422">
        <ele>183.39999389648</ele>
        <time>2014-07-21T11:46:05.000Z</time>
      </trkpt>
      <trkpt lat="48.70224" lon="1.72444">
        <ele>182.80000305176</ele>
        <time>2014-07-21T11:46:10.000Z</time>
      </trkpt>
      <trkpt lat="48.70218" lon="1.7247">
        <ele>183</ele>
        <time>2014-07-21T11:46:15.000Z</time>
      </trkpt>
      <trkpt lat="48.70213" lon="1.72497">
        <ele>182.80000305176</ele>
        <time>2014-07-21T11:46:20.000Z</time>
      </trkpt>
      <trkpt lat="48.70212" lon="1.72517">
        <ele>182.60000610352</ele>
        <time>2014-07-21T11:46:24.000Z</time>
      </trkpt>
      <trkpt lat="48.70206" lon="1.72545">
        <ele>182.80000305176</ele>
        <time>2014-07-21T11:46:29.000Z</time>
      </trkpt>
      <trkpt lat="48.70199" lon="1.72578">
        <ele>182.80000305176</ele>
        <time>2014-07-21T11:46:35.000Z</time>
      </trkpt>
      <trkpt lat="48.70191" lon="1.7261">
        <ele>182</ele>
        <time>2014-07-21T11:46:41.000Z</time>
      </trkpt>
      <trkpt lat="48.70185" lon="1.72629">
        <ele>181</ele>
        <time>2014-07-21T11:46:45.000Z</time>
      </trkpt>
      <trkpt lat="48.7018" lon="1.7265">
        <ele>179.80000305176</ele>
        <time>2014-07-21T11:46:49.000Z</time>
      </trkpt>
      <trkpt lat="48.70175" lon="1.72678">
        <ele>178.60000610352</ele>
        <time>2014-07-21T11:46:54.000Z</time>
      </trkpt>
      <trkpt lat="48.70166" lon="1.72714">
        <ele>176.80000305176</ele>
        <time>2014-07-21T11:47:01.000Z</time>
      </trkpt>
      <trkpt lat="48.70155" lon="1.72746">
        <ele>177.80000305176</ele>
        <time>2014-07-21T11:47:07.000Z</time>
      </trkpt>
      <trkpt lat="48.70144" lon="1.72782">
        <ele>178</ele>
        <time>2014-07-21T11:47:14.000Z</time>
      </trkpt>
      <trkpt lat="48.70134" lon="1.72809">
        <ele>178.80000305176</ele>
        <time>2014-07-21T11:47:19.000Z</time>
      </trkpt>
      <trkpt lat="48.70123" lon="1.72833">
        <ele>179.19999694824</ele>
        <time>2014-07-21T11:47:25.000Z</time>
      </trkpt>
      <trkpt lat="48.70122" lon="1.72835">
        <ele>179.39999389648</ele>
        <time>2014-07-21T11:47:26.000Z</time>
      </trkpt>
      <trkpt lat="48.7012" lon="1.72843">
        <ele>179.19999694824</ele>
        <time>2014-07-21T11:47:30.000Z</time>
      </trkpt>
      <trkpt lat="48.70115" lon="1.72865">
        <ele>179.19999694824</ele>
        <time>2014-07-21T11:47:36.000Z</time>
      </trkpt>
      <trkpt lat="48.70106" lon="1.72893">
        <ele>179</ele>
        <time>2014-07-21T11:47:42.000Z</time>
      </trkpt>
      <trkpt lat="48.70095" lon="1.72928">
        <ele>179.80000305176</ele>
        <time>2014-07-21T11:47:49.000Z</time>
      </trkpt>
      <trkpt lat="48.70081" lon="1.72967">
        <ele>181.39999389648</ele>
        <time>2014-07-21T11:47:57.000Z</time>
      </trkpt>
      <trkpt lat="48.70072" lon="1.72989">
        <ele>183</ele>
        <time>2014-07-21T11:48:02.000Z</time>
      </trkpt>
      <trkpt lat="48.70065" lon="1.73011">
        <ele>184</ele>
        <time>2014-07-21T11:48:07.000Z</time>
      </trkpt>
      <trkpt lat="48.70058" lon="1.73037">
        <ele>184.39999389648</ele>
        <time>2014-07-21T11:48:13.000Z</time>
      </trkpt>
      <trkpt lat="48.7005" lon="1.73064">
        <ele>184.39999389648</ele>
        <time>2014-07-21T11:48:18.000Z</time>
      </trkpt>
      <trkpt lat="48.70039" lon="1.731">
        <ele>184.39999389648</ele>
        <time>2014-07-21T11:48:25.000Z</time>
      </trkpt>
      <trkpt lat="48.70032" lon="1.73125">
        <ele>183.80000305176</ele>
        <time>2014-07-21T11:48:30.000Z</time>
      </trkpt>
      <trkpt lat="48.70023" lon="1.7315">
        <ele>183</ele>
        <time>2014-07-21T11:48:35.000Z</time>
      </trkpt>
      <trkpt lat="48.70013" lon="1.73174">
        <ele>181.39999389648</ele>
        <time>2014-07-21T11:48:40.000Z</time>
      </trkpt>
      <trkpt lat="48.7" lon="1.73206">
        <ele>178.60000610352</ele>
        <time>2014-07-21T11:48:47.000Z</time>
      </trkpt>
      <trkpt lat="48.69989" lon="1.73227">
        <ele>177.19999694824</ele>
        <time>2014-07-21T11:48:52.000Z</time>
      </trkpt>
      <trkpt lat="48.69981" lon="1.73245">
        <ele>176.80000305176</ele>
        <time>2014-07-21T11:48:57.000Z</time>
      </trkpt>
      <trkpt lat="48.69976" lon="1.73256">
        <ele>176.60000610352</ele>
        <time>2014-07-21T11:49:02.000Z</time>
      </trkpt>
      <trkpt lat="48.69975" lon="1.7326">
        <ele>176.60000610352</ele>
        <time>2014-07-21T11:49:04.000Z</time>
      </trkpt>
      <trkpt lat="48.69966" lon="1.73273">
        <ele>176.60000610352</ele>
        <time>2014-07-21T11:49:11.000Z</time>
      </trkpt>
      <trkpt lat="48.69964" lon="1.73276">
        <ele>176.60000610352</ele>
        <time>2014-07-21T11:49:13.000Z</time>
      </trkpt>
      <trkpt lat="48.69958" lon="1.73292">
        <ele>176.80000305176</ele>
        <time>2014-07-21T11:49:20.000Z</time>
      </trkpt>
      <trkpt lat="48.69957" lon="1.73297">
        <ele>177</ele>
        <time>2014-07-21T11:49:22.000Z</time>
      </trkpt>
      <trkpt lat="48.69951" lon="1.73308">
        <ele>177</ele>
        <time>2014-07-21T11:49:29.000Z</time>
      </trkpt>
      <trkpt lat="48.69941" lon="1.73325">
        <ele>177.19999694824</ele>
        <time>2014-07-21T11:49:37.000Z</time>
      </trkpt>
      <trkpt lat="48.69936" lon="1.73336">
        <ele>177.39999389648</ele>
        <time>2014-07-21T11:49:43.000Z</time>
      </trkpt>
      <trkpt lat="48.69928" lon="1.73345">
        <ele>177.60000610352</ele>
        <time>2014-07-21T11:49:49.000Z</time>
      </trkpt>
      <trkpt lat="48.69925" lon="1.73349">
        <ele>177.80000305176</ele>
        <time>2014-07-21T11:49:52.000Z</time>
      </trkpt>
      <trkpt lat="48.6992" lon="1.73361">
        <ele>178.19999694824</ele>
        <time>2014-07-21T11:49:58.000Z</time>
      </trkpt>
      <trkpt lat="48.69919" lon="1.73363">
        <ele>178.19999694824</ele>
        <time>2014-07-21T11:49:59.000Z</time>
      </trkpt>
      <trkpt lat="48.69915" lon="1.73377">
        <ele>178.60000610352</ele>
        <time>2014-07-21T11:50:06.000Z</time>
      </trkpt>
      <trkpt lat="48.6991" lon="1.73388">
        <ele>178.80000305176</ele>
        <time>2014-07-21T11:50:14.000Z</time>
      </trkpt>
      <trkpt lat="48.69904" lon="1.73399">
        <ele>179</ele>
        <time>2014-07-21T11:50:21.000Z</time>
      </trkpt>
      <trkpt lat="48.69898" lon="1.73411">
        <ele>178.80000305176</ele>
        <time>2014-07-21T11:50:27.000Z</time>
      </trkpt>
      <trkpt lat="48.69895" lon="1.73417">
        <ele>178.60000610352</ele>
        <time>2014-07-21T11:50:32.000Z</time>
      </trkpt>
      <trkpt lat="48.6989" lon="1.73426">
        <ele>178.19999694824</ele>
        <time>2014-07-21T11:50:38.000Z</time>
      </trkpt>
      <trkpt lat="48.69885" lon="1.73429">
        <ele>178</ele>
        <time>2014-07-21T11:50:45.000Z</time>
      </trkpt>
      <trkpt lat="48.69884" lon="1.73437">
        <ele>177.80000305176</ele>
        <time>2014-07-21T11:52:10.000Z</time>
      </trkpt>
      <trkpt lat="48.69882" lon="1.7344">
        <ele>178</ele>
        <time>2014-07-21T11:52:11.000Z</time>
      </trkpt>
      <trkpt lat="48.6988" lon="1.73447">
        <ele>178</ele>
        <time>2014-07-21T11:52:17.000Z</time>
      </trkpt>
      <trkpt lat="48.69876" lon="1.73458">
        <ele>178.19999694824</ele>
        <time>2014-07-21T11:52:26.000Z</time>
      </trkpt>
      <trkpt lat="48.69873" lon="1.73463">
        <ele>178.39999389648</ele>
        <time>2014-07-21T11:52:28.000Z</time>
      </trkpt>
      <trkpt lat="48.69867" lon="1.73475">
        <ele>178.60000610352</ele>
        <time>2014-07-21T11:52:35.000Z</time>
      </trkpt>
      <trkpt lat="48.69864" lon="1.73482">
        <ele>178.60000610352</ele>
        <time>2014-07-21T11:52:39.000Z</time>
      </trkpt>
      <trkpt lat="48.69861" lon="1.73488">
        <ele>178.80000305176</ele>
        <time>2014-07-21T11:52:43.000Z</time>
      </trkpt>
      <trkpt lat="48.69858" lon="1.73497">
        <ele>178.80000305176</ele>
        <time>2014-07-21T11:52:49.000Z</time>
      </trkpt>
      <trkpt lat="48.69851" lon="1.73509">
        <ele>179</ele>
        <time>2014-07-21T11:52:55.000Z</time>
      </trkpt>
      <trkpt lat="48.69844" lon="1.73522">
        <ele>179.19999694824</ele>
        <time>2014-07-21T11:53:02.000Z</time>
      </trkpt>
      <trkpt lat="48.69844" lon="1.73523">
        <ele>179.19999694824</ele>
        <time>2014-07-21T11:53:03.000Z</time>
      </trkpt>
      <trkpt lat="48.69836" lon="1.73539">
        <ele>179.39999389648</ele>
        <time>2014-07-21T11:53:10.000Z</time>
      </trkpt>
      <trkpt lat="48.6983" lon="1.73551">
        <ele>179.60000610352</ele>
        <time>2014-07-21T11:53:15.000Z</time>
      </trkpt>
      <trkpt lat="48.69826" lon="1.73556">
        <ele>179.39999389648</ele>
        <time>2014-07-21T11:53:18.000Z</time>
      </trkpt>
      <trkpt lat="48.69819" lon="1.73567">
        <ele>179.39999389648</ele>
        <time>2014-07-21T11:53:24.000Z</time>
      </trkpt>
      <trkpt lat="48.69814" lon="1.73575">
        <ele>179.39999389648</ele>
        <time>2014-07-21T11:53:29.000Z</time>
      </trkpt>
      <trkpt lat="48.69812" lon="1.73581">
        <ele>179.60000610352</ele>
        <time>2014-07-21T11:53:33.000Z</time>
      </trkpt>
      <trkpt lat="48.69807" lon="1.73589">
        <ele>179.60000610352</ele>
        <time>2014-07-21T11:53:38.000Z</time>
      </trkpt>
      <trkpt lat="48.69806" lon="1.73592">
        <ele>179.60000610352</ele>
        <time>2014-07-21T11:53:40.000Z</time>
      </trkpt>
      <trkpt lat="48.69802" lon="1.73601">
        <ele>179.60000610352</ele>
        <time>2014-07-21T11:53:46.000Z</time>
      </trkpt>
      <trkpt lat="48.698" lon="1.73614">
        <ele>179.60000610352</ele>
        <time>2014-07-21T11:53:52.000Z</time>
      </trkpt>
      <trkpt lat="48.69795" lon="1.73625">
        <ele>179.80000305176</ele>
        <time>2014-07-21T11:53:57.000Z</time>
      </trkpt>
      <trkpt lat="48.69787" lon="1.73636">
        <ele>179.80000305176</ele>
        <time>2014-07-21T11:54:03.000Z</time>
      </trkpt>
      <trkpt lat="48.69782" lon="1.73648">
        <ele>179.80000305176</ele>
        <time>2014-07-21T11:54:09.000Z</time>
      </trkpt>
      <trkpt lat="48.69776" lon="1.73657">
        <ele>179.80000305176</ele>
        <time>2014-07-21T11:54:14.000Z</time>
      </trkpt>
      <trkpt lat="48.69773" lon="1.73666">
        <ele>179.60000610352</ele>
        <time>2014-07-21T11:54:20.000Z</time>
      </trkpt>
      <trkpt lat="48.69775" lon="1.73673">
        <ele>179.39999389648</ele>
        <time>2014-07-21T11:54:24.000Z</time>
      </trkpt>
      <trkpt lat="48.69785" lon="1.73677">
        <ele>179.39999389648</ele>
        <time>2014-07-21T11:54:31.000Z</time>
      </trkpt>
      <trkpt lat="48.69795" lon="1.73674">
        <ele>179.39999389648</ele>
        <time>2014-07-21T11:54:38.000Z</time>
      </trkpt>
      <trkpt lat="48.69807" lon="1.73675">
        <ele>179.39999389648</ele>
        <time>2014-07-21T11:54:44.000Z</time>
      </trkpt>
      <trkpt lat="48.69818" lon="1.73673">
        <ele>179.19999694824</ele>
        <time>2014-07-21T11:54:50.000Z</time>
      </trkpt>
      <trkpt lat="48.69827" lon="1.73672">
        <ele>179</ele>
        <time>2014-07-21T11:54:56.000Z</time>
      </trkpt>
      <trkpt lat="48.69836" lon="1.73674">
        <ele>179</ele>
        <time>2014-07-21T11:55:02.000Z</time>
      </trkpt>
      <trkpt lat="48.69843" lon="1.73678">
        <ele>178.80000305176</ele>
        <time>2014-07-21T11:55:07.000Z</time>
      </trkpt>
      <trkpt lat="48.6985" lon="1.73682">
        <ele>178.80000305176</ele>
        <time>2014-07-21T11:55:14.000Z</time>
      </trkpt>
      <trkpt lat="48.6986" lon="1.73684">
        <ele>178.39999389648</ele>
        <time>2014-07-21T11:55:21.000Z</time>
      </trkpt>
      <trkpt lat="48.69873" lon="1.73685">
        <ele>178.19999694824</ele>
        <time>2014-07-21T11:55:28.000Z</time>
      </trkpt>
      <trkpt lat="48.69883" lon="1.73686">
        <ele>177.80000305176</ele>
        <time>2014-07-21T11:55:34.000Z</time>
      </trkpt>
      <trkpt lat="48.69894" lon="1.73681">
        <ele>177.80000305176</ele>
        <time>2014-07-21T11:55:40.000Z</time>
      </trkpt>
      <trkpt lat="48.699" lon="1.73683">
        <ele>177.60000610352</ele>
        <time>2014-07-21T11:55:44.000Z</time>
      </trkpt>
      <trkpt lat="48.69909" lon="1.73686">
        <ele>177.19999694824</ele>
        <time>2014-07-21T11:55:50.000Z</time>
      </trkpt>
      <trkpt lat="48.69911" lon="1.73686">
        <ele>177.19999694824</ele>
        <time>2014-07-21T11:55:52.000Z</time>
      </trkpt>
      <trkpt lat="48.69919" lon="1.73683">
        <ele>177</ele>
        <time>2014-07-21T11:55:57.000Z</time>
      </trkpt>
      <trkpt lat="48.69926" lon="1.73682">
        <ele>177</ele>
        <time>2014-07-21T11:56:01.000Z</time>
      </trkpt>
      <trkpt lat="48.69935" lon="1.73687">
        <ele>176.60000610352</ele>
        <time>2014-07-21T11:56:07.000Z</time>
      </trkpt>
      <trkpt lat="48.69941" lon="1.73689">
        <ele>176.60000610352</ele>
        <time>2014-07-21T11:56:11.000Z</time>
      </trkpt>
      <trkpt lat="48.69943" lon="1.73688">
        <ele>176.80000305176</ele>
        <time>2014-07-21T11:56:13.000Z</time>
      </trkpt>
      <trkpt lat="48.69946" lon="1.7369">
        <ele>176.80000305176</ele>
        <time>2014-07-21T11:56:15.000Z</time>
      </trkpt>
      <trkpt lat="48.69953" lon="1.73686">
        <ele>177</ele>
        <time>2014-07-21T11:56:21.000Z</time>
      </trkpt>
      <trkpt lat="48.69962" lon="1.73685">
        <ele>177.19999694824</ele>
        <time>2014-07-21T11:56:26.000Z</time>
      </trkpt>
      <trkpt lat="48.69965" lon="1.73683">
        <ele>177.39999389648</ele>
        <time>2014-07-21T11:56:28.000Z</time>
      </trkpt>
      <trkpt lat="48.69973" lon="1.73682">
        <ele>177.60000610352</ele>
        <time>2014-07-21T11:56:33.000Z</time>
      </trkpt>
      <trkpt lat="48.69983" lon="1.73684">
        <ele>177.80000305176</ele>
        <time>2014-07-21T11:56:39.000Z</time>
      </trkpt>
      <trkpt lat="48.69988" lon="1.73686">
        <ele>177.80000305176</ele>
        <time>2014-07-21T11:56:42.000Z</time>
      </trkpt>
      <trkpt lat="48.69995" lon="1.7369">
        <ele>178</ele>
        <time>2014-07-21T11:56:47.000Z</time>
      </trkpt>
      <trkpt lat="48.70006" lon="1.7369">
        <ele>178.19999694824</ele>
        <time>2014-07-21T11:56:53.000Z</time>
      </trkpt>
      <trkpt lat="48.70017" lon="1.73693">
        <ele>178.39999389648</ele>
        <time>2014-07-21T11:56:59.000Z</time>
      </trkpt>
      <trkpt lat="48.70021" lon="1.73695">
        <ele>178.60000610352</ele>
        <time>2014-07-21T11:57:02.000Z</time>
      </trkpt>
      <trkpt lat="48.70027" lon="1.73694">
        <ele>178.60000610352</ele>
        <time>2014-07-21T11:57:07.000Z</time>
      </trkpt>
      <trkpt lat="48.70031" lon="1.73701">
        <ele>178.39999389648</ele>
        <time>2014-07-21T11:57:11.000Z</time>
      </trkpt>
      <trkpt lat="48.70037" lon="1.737">
        <ele>178.39999389648</ele>
        <time>2014-07-21T11:57:16.000Z</time>
      </trkpt>
      <trkpt lat="48.70044" lon="1.73698">
        <ele>178.39999389648</ele>
        <time>2014-07-21T11:57:22.000Z</time>
      </trkpt>
      <trkpt lat="48.70052" lon="1.73701">
        <ele>178.39999389648</ele>
        <time>2014-07-21T11:57:29.000Z</time>
      </trkpt>
      <trkpt lat="48.70067" lon="1.73699">
        <ele>178.39999389648</ele>
        <time>2014-07-21T11:57:35.000Z</time>
      </trkpt>
      <trkpt lat="48.70081" lon="1.73706">
        <ele>178.19999694824</ele>
        <time>2014-07-21T11:57:41.000Z</time>
      </trkpt>
      <trkpt lat="48.7009" lon="1.73705">
        <ele>178</ele>
        <time>2014-07-21T11:57:47.000Z</time>
      </trkpt>
      <trkpt lat="48.70095" lon="1.73703">
        <ele>177.80000305176</ele>
        <time>2014-07-21T11:57:51.000Z</time>
      </trkpt>
      <trkpt lat="48.70105" lon="1.73704">
        <ele>177.60000610352</ele>
        <time>2014-07-21T11:57:59.000Z</time>
      </trkpt>
      <trkpt lat="48.70115" lon="1.73703">
        <ele>177.60000610352</ele>
        <time>2014-07-21T11:58:06.000Z</time>
      </trkpt>
      <trkpt lat="48.70122" lon="1.73701">
        <ele>177.60000610352</ele>
        <time>2014-07-21T11:58:12.000Z</time>
      </trkpt>
      <trkpt lat="48.70132" lon="1.73699">
        <ele>177.60000610352</ele>
        <time>2014-07-21T11:58:19.000Z</time>
      </trkpt>
      <trkpt lat="48.70139" lon="1.7371">
        <ele>177.60000610352</ele>
        <time>2014-07-21T11:58:33.000Z</time>
      </trkpt>
      <trkpt lat="48.70149" lon="1.73712">
        <ele>177.80000305176</ele>
        <time>2014-07-21T11:58:49.000Z</time>
      </trkpt>
      <trkpt lat="48.70151" lon="1.73712">
        <ele>177.60000610352</ele>
        <time>2014-07-21T11:58:50.000Z</time>
      </trkpt>
      <trkpt lat="48.70155" lon="1.73711">
        <ele>177.60000610352</ele>
        <time>2014-07-21T11:58:53.000Z</time>
      </trkpt>
      <trkpt lat="48.70166" lon="1.73709">
        <ele>177.80000305176</ele>
        <time>2014-07-21T11:59:00.000Z</time>
      </trkpt>
      <trkpt lat="48.70174" lon="1.73711">
        <ele>178</ele>
        <time>2014-07-21T11:59:05.000Z</time>
      </trkpt>
      <trkpt lat="48.70185" lon="1.73713">
        <ele>178.19999694824</ele>
        <time>2014-07-21T11:59:11.000Z</time>
      </trkpt>
      <trkpt lat="48.70192" lon="1.73715">
        <ele>178.19999694824</ele>
        <time>2014-07-21T11:59:16.000Z</time>
      </trkpt>
      <trkpt lat="48.70198" lon="1.73717">
        <ele>178.19999694824</ele>
        <time>2014-07-21T11:59:21.000Z</time>
      </trkpt>
      <trkpt lat="48.702" lon="1.73716">
        <ele>178.19999694824</ele>
        <time>2014-07-21T11:59:22.000Z</time>
      </trkpt>
      <trkpt lat="48.70211" lon="1.73717">
        <ele>178.19999694824</ele>
        <time>2014-07-21T11:59:29.000Z</time>
      </trkpt>
      <trkpt lat="48.70214" lon="1.73717">
        <ele>178.19999694824</ele>
        <time>2014-07-21T11:59:31.000Z</time>
      </trkpt>
      <trkpt lat="48.70227" lon="1.73716">
        <ele>178.19999694824</ele>
        <time>2014-07-21T11:59:38.000Z</time>
      </trkpt>
      <trkpt lat="48.7024" lon="1.73715">
        <ele>178.19999694824</ele>
        <time>2014-07-21T11:59:46.000Z</time>
      </trkpt>
      <trkpt lat="48.70248" lon="1.73716">
        <ele>178.19999694824</ele>
        <time>2014-07-21T11:59:50.000Z</time>
      </trkpt>
      <trkpt lat="48.70253" lon="1.73718">
        <ele>178.19999694824</ele>
        <time>2014-07-21T11:59:54.000Z</time>
      </trkpt>
      <trkpt lat="48.70264" lon="1.73719">
        <ele>178.39999389648</ele>
        <time>2014-07-21T12:00:01.000Z</time>
      </trkpt>
      <trkpt lat="48.70265" lon="1.73719">
        <ele>178.39999389648</ele>
        <time>2014-07-21T12:00:02.000Z</time>
      </trkpt>
      <trkpt lat="48.70274" lon="1.73721">
        <ele>178.39999389648</ele>
        <time>2014-07-21T12:00:08.000Z</time>
      </trkpt>
      <trkpt lat="48.7028" lon="1.73725">
        <ele>178.39999389648</ele>
        <time>2014-07-21T12:00:12.000Z</time>
      </trkpt>
      <trkpt lat="48.70282" lon="1.73738">
        <ele>178.19999694824</ele>
        <time>2014-07-21T12:00:16.000Z</time>
      </trkpt>
      <trkpt lat="48.70282" lon="1.73752">
        <ele>177.80000305176</ele>
        <time>2014-07-21T12:00:21.000Z</time>
      </trkpt>
      <trkpt lat="48.70282" lon="1.73754">
        <ele>177.80000305176</ele>
        <time>2014-07-21T12:00:22.000Z</time>
      </trkpt>
      <trkpt lat="48.70282" lon="1.73759">
        <ele>177.80000305176</ele>
        <time>2014-07-21T12:00:24.000Z</time>
      </trkpt>
      <trkpt lat="48.70283" lon="1.73777">
        <ele>177.80000305176</ele>
        <time>2014-07-21T12:00:31.000Z</time>
      </trkpt>
      <trkpt lat="48.70282" lon="1.73791">
        <ele>177.80000305176</ele>
        <time>2014-07-21T12:00:37.000Z</time>
      </trkpt>
      <trkpt lat="48.70277" lon="1.73813">
        <ele>178</ele>
        <time>2014-07-21T12:00:46.000Z</time>
      </trkpt>
      <trkpt lat="48.70274" lon="1.73815">
        <ele>178</ele>
        <time>2014-07-21T12:00:48.000Z</time>
      </trkpt>
      <trkpt lat="48.70274" lon="1.73826">
        <ele>178</ele>
        <time>2014-07-21T12:00:54.000Z</time>
      </trkpt>
      <trkpt lat="48.70273" lon="1.73832">
        <ele>178</ele>
        <time>2014-07-21T12:00:57.000Z</time>
      </trkpt>
      <trkpt lat="48.70273" lon="1.73841">
        <ele>178</ele>
        <time>2014-07-21T12:01:01.000Z</time>
      </trkpt>
      <trkpt lat="48.7027" lon="1.73852">
        <ele>178</ele>
        <time>2014-07-21T12:01:06.000Z</time>
      </trkpt>
      <trkpt lat="48.70265" lon="1.73864">
        <ele>178</ele>
        <time>2014-07-21T12:01:12.000Z</time>
      </trkpt>
      <trkpt lat="48.70261" lon="1.73875">
        <ele>178</ele>
        <time>2014-07-21T12:01:19.000Z</time>
      </trkpt>
      <trkpt lat="48.70259" lon="1.73883">
        <ele>178</ele>
        <time>2014-07-21T12:01:23.000Z</time>
      </trkpt>
      <trkpt lat="48.7026" lon="1.73896">
        <ele>178</ele>
        <time>2014-07-21T12:01:29.000Z</time>
      </trkpt>
      <trkpt lat="48.70259" lon="1.73901">
        <ele>178</ele>
        <time>2014-07-21T12:01:32.000Z</time>
      </trkpt>
      <trkpt lat="48.7026" lon="1.73904">
        <ele>178</ele>
        <time>2014-07-21T12:01:34.000Z</time>
      </trkpt>
      <trkpt lat="48.70264" lon="1.73912">
        <ele>178.19999694824</ele>
        <time>2014-07-21T12:01:40.000Z</time>
      </trkpt>
      <trkpt lat="48.70265" lon="1.73915">
        <ele>178.39999389648</ele>
        <time>2014-07-21T12:01:42.000Z</time>
      </trkpt>
      <trkpt lat="48.7027" lon="1.73928">
        <ele>178.80000305176</ele>
        <time>2014-07-21T12:01:48.000Z</time>
      </trkpt>
      <trkpt lat="48.70272" lon="1.73932">
        <ele>179</ele>
        <time>2014-07-21T12:01:51.000Z</time>
      </trkpt>
      <trkpt lat="48.7028" lon="1.73945">
        <ele>179.39999389648</ele>
        <time>2014-07-21T12:01:58.000Z</time>
      </trkpt>
      <trkpt lat="48.70285" lon="1.73953">
        <ele>179.60000610352</ele>
        <time>2014-07-21T12:02:04.000Z</time>
      </trkpt>
      <trkpt lat="48.7029" lon="1.73963">
        <ele>180</ele>
        <time>2014-07-21T12:02:10.000Z</time>
      </trkpt>
      <trkpt lat="48.70296" lon="1.73975">
        <ele>180.19999694824</ele>
        <time>2014-07-21T12:02:16.000Z</time>
      </trkpt>
      <trkpt lat="48.70299" lon="1.73981">
        <ele>180.39999389648</ele>
        <time>2014-07-21T12:02:20.000Z</time>
      </trkpt>
      <trkpt lat="48.70302" lon="1.73984">
        <ele>180.60000610352</ele>
        <time>2014-07-21T12:02:23.000Z</time>
      </trkpt>
      <trkpt lat="48.70308" lon="1.73991">
        <ele>180.60000610352</ele>
        <time>2014-07-21T12:02:31.000Z</time>
      </trkpt>
      <trkpt lat="48.70319" lon="1.73999">
        <ele>180.39999389648</ele>
        <time>2014-07-21T12:02:37.000Z</time>
      </trkpt>
      <trkpt lat="48.70327" lon="1.74008">
        <ele>180.39999389648</ele>
        <time>2014-07-21T12:02:43.000Z</time>
      </trkpt>
      <trkpt lat="48.70333" lon="1.74012">
        <ele>180.19999694824</ele>
        <time>2014-07-21T12:02:48.000Z</time>
      </trkpt>
      <trkpt lat="48.7034" lon="1.7402">
        <ele>180.19999694824</ele>
        <time>2014-07-21T12:02:53.000Z</time>
      </trkpt>
      <trkpt lat="48.70346" lon="1.74025">
        <ele>180</ele>
        <time>2014-07-21T12:02:58.000Z</time>
      </trkpt>
      <trkpt lat="48.70356" lon="1.74029">
        <ele>180</ele>
        <time>2014-07-21T12:03:04.000Z</time>
      </trkpt>
      <trkpt lat="48.70362" lon="1.7403">
        <ele>179.80000305176</ele>
        <time>2014-07-21T12:03:09.000Z</time>
      </trkpt>
      <trkpt lat="48.70365" lon="1.74031">
        <ele>179.80000305176</ele>
        <time>2014-07-21T12:03:11.000Z</time>
      </trkpt>
      <trkpt lat="48.70373" lon="1.74039">
        <ele>179.60000610352</ele>
        <time>2014-07-21T12:03:16.000Z</time>
      </trkpt>
      <trkpt lat="48.7038" lon="1.74049">
        <ele>179.39999389648</ele>
        <time>2014-07-21T12:03:22.000Z</time>
      </trkpt>
      <trkpt lat="48.70386" lon="1.74057">
        <ele>179.19999694824</ele>
        <time>2014-07-21T12:03:28.000Z</time>
      </trkpt>
      <trkpt lat="48.70392" lon="1.74063">
        <ele>179</ele>
        <time>2014-07-21T12:03:34.000Z</time>
      </trkpt>
      <trkpt lat="48.70402" lon="1.74076">
        <ele>178.80000305176</ele>
        <time>2014-07-21T12:03:40.000Z</time>
      </trkpt>
      <trkpt lat="48.70413" lon="1.74085">
        <ele>178.60000610352</ele>
        <time>2014-07-21T12:03:46.000Z</time>
      </trkpt>
      <trkpt lat="48.70419" lon="1.74091">
        <ele>178.39999389648</ele>
        <time>2014-07-21T12:03:51.000Z</time>
      </trkpt>
      <trkpt lat="48.70425" lon="1.741">
        <ele>178.19999694824</ele>
        <time>2014-07-21T12:03:58.000Z</time>
      </trkpt>
      <trkpt lat="48.70429" lon="1.74107">
        <ele>178.19999694824</ele>
        <time>2014-07-21T12:04:03.000Z</time>
      </trkpt>
      <trkpt lat="48.70434" lon="1.74118">
        <ele>178</ele>
        <time>2014-07-21T12:04:08.000Z</time>
      </trkpt>
      <trkpt lat="48.70439" lon="1.74125">
        <ele>178</ele>
        <time>2014-07-21T12:04:14.000Z</time>
      </trkpt>
      <trkpt lat="48.70442" lon="1.74128">
        <ele>178</ele>
        <time>2014-07-21T12:04:17.000Z</time>
      </trkpt>
      <trkpt lat="48.70444" lon="1.74134">
        <ele>178</ele>
        <time>2014-07-21T12:04:20.000Z</time>
      </trkpt>
      <trkpt lat="48.70449" lon="1.74144">
        <ele>178</ele>
        <time>2014-07-21T12:04:26.000Z</time>
      </trkpt>
      <trkpt lat="48.70454" lon="1.7415">
        <ele>178</ele>
        <time>2014-07-21T12:04:30.000Z</time>
      </trkpt>
      <trkpt lat="48.70459" lon="1.74158">
        <ele>178</ele>
        <time>2014-07-21T12:04:35.000Z</time>
      </trkpt>
      <trkpt lat="48.70472" lon="1.74165">
        <ele>178</ele>
        <time>2014-07-21T12:04:42.000Z</time>
      </trkpt>
      <trkpt lat="48.70478" lon="1.7417">
        <ele>178</ele>
        <time>2014-07-21T12:04:45.000Z</time>
      </trkpt>
      <trkpt lat="48.70483" lon="1.74181">
        <ele>178</ele>
        <time>2014-07-21T12:04:52.000Z</time>
      </trkpt>
      <trkpt lat="48.70487" lon="1.74192">
        <ele>178</ele>
        <time>2014-07-21T12:04:58.000Z</time>
      </trkpt>
      <trkpt lat="48.7049" lon="1.742">
        <ele>178</ele>
        <time>2014-07-21T12:05:03.000Z</time>
      </trkpt>
      <trkpt lat="48.70492" lon="1.74203">
        <ele>178</ele>
        <time>2014-07-21T12:05:05.000Z</time>
      </trkpt>
      <trkpt lat="48.70496" lon="1.74212">
        <ele>178</ele>
        <time>2014-07-21T12:05:11.000Z</time>
      </trkpt>
      <trkpt lat="48.70502" lon="1.74221">
        <ele>178</ele>
        <time>2014-07-21T12:05:17.000Z</time>
      </trkpt>
      <trkpt lat="48.70506" lon="1.74231">
        <ele>178</ele>
        <time>2014-07-21T12:05:23.000Z</time>
      </trkpt>
      <trkpt lat="48.70504" lon="1.74243">
        <ele>178.19999694824</ele>
        <time>2014-07-21T12:05:29.000Z</time>
      </trkpt>
      <trkpt lat="48.70505" lon="1.7426">
        <ele>178.39999389648</ele>
        <time>2014-07-21T12:05:36.000Z</time>
      </trkpt>
      <trkpt lat="48.70504" lon="1.74273">
        <ele>178.60000610352</ele>
        <time>2014-07-21T12:05:41.000Z</time>
      </trkpt>
      <trkpt lat="48.70503" lon="1.74282">
        <ele>178.80000305176</ele>
        <time>2014-07-21T12:05:45.000Z</time>
      </trkpt>
      <trkpt lat="48.70504" lon="1.74303">
        <ele>179</ele>
        <time>2014-07-21T12:05:52.000Z</time>
      </trkpt>
      <trkpt lat="48.70504" lon="1.74312">
        <ele>179</ele>
        <time>2014-07-21T12:05:55.000Z</time>
      </trkpt>
      <trkpt lat="48.70503" lon="1.74335">
        <ele>179.19999694824</ele>
        <time>2014-07-21T12:06:00.000Z</time>
      </trkpt>
      <trkpt lat="48.70503" lon="1.74356">
        <ele>179.60000610352</ele>
        <time>2014-07-21T12:06:04.000Z</time>
      </trkpt>
      <trkpt lat="48.70499" lon="1.74385">
        <ele>180.19999694824</ele>
        <time>2014-07-21T12:06:09.000Z</time>
      </trkpt>
      <trkpt lat="48.70497" lon="1.74404">
        <ele>179.60000610352</ele>
        <time>2014-07-21T12:06:13.000Z</time>
      </trkpt>
      <trkpt lat="48.70502" lon="1.74431">
        <ele>180.19999694824</ele>
        <time>2014-07-21T12:06:18.000Z</time>
      </trkpt>
      <trkpt lat="48.70501" lon="1.74462">
        <ele>180.60000610352</ele>
        <time>2014-07-21T12:06:23.000Z</time>
      </trkpt>
      <trkpt lat="48.705" lon="1.74479">
        <ele>180.80000305176</ele>
        <time>2014-07-21T12:06:26.000Z</time>
      </trkpt>
      <trkpt lat="48.70499" lon="1.74514">
        <ele>181</ele>
        <time>2014-07-21T12:06:33.000Z</time>
      </trkpt>
      <trkpt lat="48.705" lon="1.74528">
        <ele>181</ele>
        <time>2014-07-21T12:06:38.000Z</time>
      </trkpt>
      <trkpt lat="48.705" lon="1.74531">
        <ele>181</ele>
        <time>2014-07-21T12:06:39.000Z</time>
      </trkpt>
      <trkpt lat="48.70499" lon="1.74543">
        <ele>181</ele>
        <time>2014-07-21T12:06:45.000Z</time>
      </trkpt>
      <trkpt lat="48.705" lon="1.74546">
        <ele>181</ele>
        <time>2014-07-21T12:06:47.000Z</time>
      </trkpt>
      <trkpt lat="48.705" lon="1.74564">
        <ele>181</ele>
        <time>2014-07-21T12:06:54.000Z</time>
      </trkpt>
      <trkpt lat="48.70499" lon="1.74581">
        <ele>180.80000305176</ele>
        <time>2014-07-21T12:07:02.000Z</time>
      </trkpt>
      <trkpt lat="48.70499" lon="1.74592">
        <ele>180.80000305176</ele>
        <time>2014-07-21T12:07:07.000Z</time>
      </trkpt>
      <trkpt lat="48.70502" lon="1.74603">
        <ele>180.80000305176</ele>
        <time>2014-07-21T12:07:13.000Z</time>
      </trkpt>
      <trkpt lat="48.70503" lon="1.74613">
        <ele>180.60000610352</ele>
        <time>2014-07-21T12:07:18.000Z</time>
      </trkpt>
      <trkpt lat="48.70501" lon="1.74623">
        <ele>180.39999389648</ele>
        <time>2014-07-21T12:07:22.000Z</time>
      </trkpt>
      <trkpt lat="48.70501" lon="1.74635">
        <ele>180.19999694824</ele>
        <time>2014-07-21T12:07:25.000Z</time>
      </trkpt>
      <trkpt lat="48.70503" lon="1.74657">
        <ele>180.19999694824</ele>
        <time>2014-07-21T12:07:30.000Z</time>
      </trkpt>
      <trkpt lat="48.70503" lon="1.74668">
        <ele>180.60000610352</ele>
        <time>2014-07-21T12:07:32.000Z</time>
      </trkpt>
      <trkpt lat="48.70504" lon="1.7469">
        <ele>181</ele>
        <time>2014-07-21T12:07:37.000Z</time>
      </trkpt>
      <trkpt lat="48.70504" lon="1.74714">
        <ele>181.60000610352</ele>
        <time>2014-07-21T12:07:42.000Z</time>
      </trkpt>
      <trkpt lat="48.70497" lon="1.74738">
        <ele>181</ele>
        <time>2014-07-21T12:07:46.000Z</time>
      </trkpt>
      <trkpt lat="48.70492" lon="1.74771">
        <ele>181</ele>
        <time>2014-07-21T12:07:52.000Z</time>
      </trkpt>
      <trkpt lat="48.70491" lon="1.74786">
        <ele>181.19999694824</ele>
        <time>2014-07-21T12:07:56.000Z</time>
      </trkpt>
      <trkpt lat="48.7049" lon="1.7481">
        <ele>181.39999389648</ele>
        <time>2014-07-21T12:08:01.000Z</time>
      </trkpt>
      <trkpt lat="48.70493" lon="1.74839">
        <ele>182</ele>
        <time>2014-07-21T12:08:06.000Z</time>
      </trkpt>
      <trkpt lat="48.70493" lon="1.74869">
        <ele>182.19999694824</ele>
        <time>2014-07-21T12:08:12.000Z</time>
      </trkpt>
      <trkpt lat="48.70494" lon="1.74889">
        <ele>182.60000610352</ele>
        <time>2014-07-21T12:08:17.000Z</time>
      </trkpt>
      <trkpt lat="48.70491" lon="1.74908">
        <ele>182.60000610352</ele>
        <time>2014-07-21T12:08:21.000Z</time>
      </trkpt>
      <trkpt lat="48.70489" lon="1.74934">
        <ele>181.60000610352</ele>
        <time>2014-07-21T12:08:26.000Z</time>
      </trkpt>
      <trkpt lat="48.70487" lon="1.74949">
        <ele>181.19999694824</ele>
        <time>2014-07-21T12:08:29.000Z</time>
      </trkpt>
      <trkpt lat="48.70491" lon="1.74995">
        <ele>182</ele>
        <time>2014-07-21T12:08:37.000Z</time>
      </trkpt>
      <trkpt lat="48.70485" lon="1.75026">
        <ele>180.39999389648</ele>
        <time>2014-07-21T12:08:43.000Z</time>
      </trkpt>
      <trkpt lat="48.70483" lon="1.75049">
        <ele>179.80000305176</ele>
        <time>2014-07-21T12:08:48.000Z</time>
      </trkpt>
      <trkpt lat="48.70481" lon="1.75077">
        <ele>179.39999389648</ele>
        <time>2014-07-21T12:08:53.000Z</time>
      </trkpt>
      <trkpt lat="48.70479" lon="1.75103">
        <ele>177.60000610352</ele>
        <time>2014-07-21T12:08:59.000Z</time>
      </trkpt>
      <trkpt lat="48.70472" lon="1.75126">
        <ele>178</ele>
        <time>2014-07-21T12:09:05.000Z</time>
      </trkpt>
      <trkpt lat="48.70467" lon="1.75151">
        <ele>179.39999389648</ele>
        <time>2014-07-21T12:09:11.000Z</time>
      </trkpt>
      <trkpt lat="48.70456" lon="1.75176">
        <ele>180.39999389648</ele>
        <time>2014-07-21T12:09:17.000Z</time>
      </trkpt>
      <trkpt lat="48.70448" lon="1.75203">
        <ele>179.80000305176</ele>
        <time>2014-07-21T12:09:23.000Z</time>
      </trkpt>
      <trkpt lat="48.70441" lon="1.75229">
        <ele>179</ele>
        <time>2014-07-21T12:09:29.000Z</time>
      </trkpt>
      <trkpt lat="48.70433" lon="1.75255">
        <ele>179</ele>
        <time>2014-07-21T12:09:35.000Z</time>
      </trkpt>
      <trkpt lat="48.70425" lon="1.75285">
        <ele>178.80000305176</ele>
        <time>2014-07-21T12:09:42.000Z</time>
      </trkpt>
      <trkpt lat="48.70417" lon="1.7531">
        <ele>178.80000305176</ele>
        <time>2014-07-21T12:09:48.000Z</time>
      </trkpt>
      <trkpt lat="48.70412" lon="1.75337">
        <ele>179.60000610352</ele>
        <time>2014-07-21T12:09:54.000Z</time>
      </trkpt>
      <trkpt lat="48.70401" lon="1.75359">
        <ele>181.19999694824</ele>
        <time>2014-07-21T12:09:59.000Z</time>
      </trkpt>
      <trkpt lat="48.70398" lon="1.75386">
        <ele>181.60000610352</ele>
        <time>2014-07-21T12:10:04.000Z</time>
      </trkpt>
      <trkpt lat="48.70402" lon="1.75407">
        <ele>181.60000610352</ele>
        <time>2014-07-21T12:10:09.000Z</time>
      </trkpt>
      <trkpt lat="48.70411" lon="1.75417">
        <ele>182</ele>
        <time>2014-07-21T12:10:14.000Z</time>
      </trkpt>
      <trkpt lat="48.70416" lon="1.75419">
        <ele>182.19999694824</ele>
        <time>2014-07-21T12:10:21.000Z</time>
      </trkpt>
      <trkpt lat="48.70425" lon="1.75424">
        <ele>182.39999389648</ele>
        <time>2014-07-21T12:10:27.000Z</time>
      </trkpt>
      <trkpt lat="48.70431" lon="1.75428">
        <ele>182.39999389648</ele>
        <time>2014-07-21T12:10:31.000Z</time>
      </trkpt>
      <trkpt lat="48.70438" lon="1.7543">
        <ele>182.60000610352</ele>
        <time>2014-07-21T12:10:36.000Z</time>
      </trkpt>
      <trkpt lat="48.7045" lon="1.7544">
        <ele>182.39999389648</ele>
        <time>2014-07-21T12:10:43.000Z</time>
      </trkpt>
      <trkpt lat="48.70459" lon="1.75448">
        <ele>182.19999694824</ele>
        <time>2014-07-21T12:10:49.000Z</time>
      </trkpt>
      <trkpt lat="48.70469" lon="1.75459">
        <ele>182.19999694824</ele>
        <time>2014-07-21T12:10:58.000Z</time>
      </trkpt>
      <trkpt lat="48.70476" lon="1.75467">
        <ele>182</ele>
        <time>2014-07-21T12:11:06.000Z</time>
      </trkpt>
      <trkpt lat="48.70477" lon="1.75469">
        <ele>182</ele>
        <time>2014-07-21T12:11:07.000Z</time>
      </trkpt>
      <trkpt lat="48.70485" lon="1.75475">
        <ele>182</ele>
        <time>2014-07-21T12:11:14.000Z</time>
      </trkpt>
      <trkpt lat="48.7049" lon="1.75481">
        <ele>182</ele>
        <time>2014-07-21T12:11:19.000Z</time>
      </trkpt>
      <trkpt lat="48.70498" lon="1.75491">
        <ele>182</ele>
        <time>2014-07-21T12:11:26.000Z</time>
      </trkpt>
      <trkpt lat="48.70505" lon="1.75499">
        <ele>182.19999694824</ele>
        <time>2014-07-21T12:11:34.000Z</time>
      </trkpt>
      <trkpt lat="48.70509" lon="1.75504">
        <ele>182.19999694824</ele>
        <time>2014-07-21T12:11:40.000Z</time>
      </trkpt>
      <trkpt lat="48.70518" lon="1.7551">
        <ele>182.19999694824</ele>
        <time>2014-07-21T12:11:47.000Z</time>
      </trkpt>
      <trkpt lat="48.70526" lon="1.75514">
        <ele>182</ele>
        <time>2014-07-21T12:11:53.000Z</time>
      </trkpt>
      <trkpt lat="48.70528" lon="1.75514">
        <ele>182</ele>
        <time>2014-07-21T12:11:54.000Z</time>
      </trkpt>
      <trkpt lat="48.7053" lon="1.75517">
        <ele>182.19999694824</ele>
        <time>2014-07-21T12:11:56.000Z</time>
      </trkpt>
      <trkpt lat="48.7054" lon="1.75529">
        <ele>182.39999389648</ele>
        <time>2014-07-21T12:12:03.000Z</time>
      </trkpt>
      <trkpt lat="48.70546" lon="1.75534">
        <ele>182.60000610352</ele>
        <time>2014-07-21T12:12:07.000Z</time>
      </trkpt>
      <trkpt lat="48.70554" lon="1.75545">
        <ele>183</ele>
        <time>2014-07-21T12:12:14.000Z</time>
      </trkpt>
      <trkpt lat="48.70562" lon="1.7555">
        <ele>183</ele>
        <time>2014-07-21T12:12:21.000Z</time>
      </trkpt>
      <trkpt lat="48.70568" lon="1.75557">
        <ele>183.19999694824</ele>
        <time>2014-07-21T12:12:27.000Z</time>
      </trkpt>
      <trkpt lat="48.70578" lon="1.75561">
        <ele>183.19999694824</ele>
        <time>2014-07-21T12:12:33.000Z</time>
      </trkpt>
      <trkpt lat="48.70579" lon="1.75562">
        <ele>183.19999694824</ele>
        <time>2014-07-21T12:12:34.000Z</time>
      </trkpt>
      <trkpt lat="48.70589" lon="1.75573">
        <ele>183.39999389648</ele>
        <time>2014-07-21T12:12:41.000Z</time>
      </trkpt>
      <trkpt lat="48.70596" lon="1.75587">
        <ele>183.60000610352</ele>
        <time>2014-07-21T12:12:49.000Z</time>
      </trkpt>
      <trkpt lat="48.70597" lon="1.7559">
        <ele>183.60000610352</ele>
        <time>2014-07-21T12:12:51.000Z</time>
      </trkpt>
      <trkpt lat="48.70603" lon="1.75602">
        <ele>183.80000305176</ele>
        <time>2014-07-21T12:12:58.000Z</time>
      </trkpt>
      <trkpt lat="48.70604" lon="1.75605">
        <ele>183.80000305176</ele>
        <time>2014-07-21T12:13:00.000Z</time>
      </trkpt>
      <trkpt lat="48.70613" lon="1.75618">
        <ele>183</ele>
        <time>2014-07-21T12:13:08.000Z</time>
      </trkpt>
      <trkpt lat="48.70622" lon="1.75625">
        <ele>182</ele>
        <time>2014-07-21T12:13:15.000Z</time>
      </trkpt>
      <trkpt lat="48.7063" lon="1.75637">
        <ele>181.39999389648</ele>
        <time>2014-07-21T12:13:21.000Z</time>
      </trkpt>
      <trkpt lat="48.70634" lon="1.75644">
        <ele>181</ele>
        <time>2014-07-21T12:13:24.000Z</time>
      </trkpt>
      <trkpt lat="48.70637" lon="1.75647">
        <ele>180.80000305176</ele>
        <time>2014-07-21T12:13:29.000Z</time>
      </trkpt>
      <trkpt lat="48.70639" lon="1.75649">
        <ele>180.60000610352</ele>
        <time>2014-07-21T12:13:32.000Z</time>
      </trkpt>
      <trkpt lat="48.70641" lon="1.7565">
        <ele>180.39999389648</ele>
        <time>2014-07-21T12:13:33.000Z</time>
      </trkpt>
      <trkpt lat="48.70625" lon="1.75662">
        <ele>182.39999389648</ele>
        <time>2014-07-21T12:13:46.000Z</time>
      </trkpt>
      <trkpt lat="48.70629" lon="1.75657">
        <ele>182</ele>
        <time>2014-07-21T12:13:50.000Z</time>
      </trkpt>
      <trkpt lat="48.70631" lon="1.7565">
        <ele>181.60000610352</ele>
        <time>2014-07-21T12:13:59.000Z</time>
      </trkpt>
      <trkpt lat="48.70643" lon="1.75649">
        <ele>180.19999694824</ele>
        <time>2014-07-21T12:14:13.000Z</time>
      </trkpt>
      <trkpt lat="48.70645" lon="1.75648">
        <ele>180</ele>
        <time>2014-07-21T12:14:14.000Z</time>
      </trkpt>
      <trkpt lat="48.70646" lon="1.75638">
        <ele>179.39999389648</ele>
        <time>2014-07-21T12:14:18.000Z</time>
      </trkpt>
      <trkpt lat="48.70649" lon="1.75624">
        <ele>178.80000305176</ele>
        <time>2014-07-21T12:14:25.000Z</time>
      </trkpt>
      <trkpt lat="48.70651" lon="1.75614">
        <ele>178.39999389648</ele>
        <time>2014-07-21T12:14:30.000Z</time>
      </trkpt>
      <trkpt lat="48.70651" lon="1.75612">
        <ele>178.39999389648</ele>
        <time>2014-07-21T12:14:31.000Z</time>
      </trkpt>
      <trkpt lat="48.70653" lon="1.75595">
        <ele>178.19999694824</ele>
        <time>2014-07-21T12:14:39.000Z</time>
      </trkpt>
      <trkpt lat="48.70659" lon="1.75582">
        <ele>177.60000610352</ele>
        <time>2014-07-21T12:14:47.000Z</time>
      </trkpt>
      <trkpt lat="48.70665" lon="1.75571">
        <ele>177</ele>
        <time>2014-07-21T12:14:53.000Z</time>
      </trkpt>
      <trkpt lat="48.70673" lon="1.75558">
        <ele>175</ele>
        <time>2014-07-21T12:15:01.000Z</time>
      </trkpt>
      <trkpt lat="48.70674" lon="1.75556">
        <ele>174.80000305176</ele>
        <time>2014-07-21T12:15:05.000Z</time>
      </trkpt>
      <trkpt lat="48.70677" lon="1.75547">
        <ele>174.60000610352</ele>
        <time>2014-07-21T12:15:46.000Z</time>
      </trkpt>
      <trkpt lat="48.70683" lon="1.75537">
        <ele>174.19999694824</ele>
        <time>2014-07-21T12:15:51.000Z</time>
      </trkpt>
      <trkpt lat="48.70687" lon="1.75527">
        <ele>174</ele>
        <time>2014-07-21T12:15:57.000Z</time>
      </trkpt>
      <trkpt lat="48.70689" lon="1.75521">
        <ele>173.80000305176</ele>
        <time>2014-07-21T12:16:00.000Z</time>
      </trkpt>
      <trkpt lat="48.70694" lon="1.75504">
        <ele>173</ele>
        <time>2014-07-21T12:16:09.000Z</time>
      </trkpt>
      <trkpt lat="48.70696" lon="1.75499">
        <ele>172.80000305176</ele>
        <time>2014-07-21T12:16:13.000Z</time>
      </trkpt>
    </trkseg>
  </trk>
</gpx>